[[{"header":{"parameterUnit":"m.s-1","parameterCategory":1,"la1":30.6,"la2":28.766,"lo1":-90.7593,"lo2":-88.6598,"dy":0.0162,"dx":0.0183,"nx":116,"ny":114,"refTime":"2023-11-03T18:00:00:Z","depth":0,"parameterNumber":2,"parameterNumberName":"U-component_of_WINDS"},"data":[0.0,0.0,0.0,0.0,0.0,0.0,0.0,0.0,0.0,0.0,0.0,0.0,0.0,0.0,0.0,0.0,0.0,0.0,0.0,0.0,0.0,0.0,0.0,0.0,0.0,0.0,0.0,0.0,0.0,0.0,0.0,0.0,0.0,0.0,0.0,0.0,0.0,0.0,0.0,0.0,0.0,0.0,0.0,0.0,0.0,0.0,0.0,0.0,0.0,0.0,0.0,0.0,0.0,0.0,0.0,0.0,0.0,0.0,0.0,0.0,0.0,0.0,0.0,0.0,0.0,0.0,0.0,0.0,0.0,0.0,0.0,0.0,0.0,0.0,0.0,0.0,0.0,0.0,0.0,0.0,0.0,0.0,0.0,0.0,0.0,0.0,0.0,0.0,0.0,0.0,0.0,0.0,0.0,0.0,0.0,0.0,0.0,0.0,0.0,0.0,0.0,0.0,0.0,0.0,0.0,0.0,0.0,0.0,0.0,0.0,0.0,0.0,0.0,0.0,0.0,0.0,0.0,0.0,0.0,0.0,0.0,0.0,0.0,0.0,0.0,0.0,0.0,0.0,0.0,0.0,0.0,0.0,0.0,0.0,0.0,0.0,0.0,0.0,0.0,0.0,0.0,0.0,0.0,0.0,0.0,0.0,0.0,0.0,0.0,0.0,0.0,0.0,0.0,0.0,0.0,0.0,0.0,0.0,0.0,0.0,0.0,0.0,0.0,0.0,0.0,0.0,0.0,0.0,0.0,0.0,0.0,0.0,0.0,0.0,0.0,0.0,0.0,0.0,0.0,0.0,0.0,0.0,0.0,0.0,0.0,0.0,0.0,0.0,0.0,0.0,0.0,0.0,0.0,0.0,0.0,0.0,0.0,0.0,0.0,0.0,0.0,0.0,0.0,0.0,0.0,0.0,0.0,0.0,0.0,0.0,0.0,0.0,0.0,0.0,0.0,0.0,0.0,0.0,0.0,0.0,0.0,0.0,0.0,0.0,0.0,0.0,0.0,0.0,0.0,0.0,0.0,0.0,0.0,0.0,0.0,0.0,0.0,0.0,0.0,0.0,0.0,0.0,0.0,0.0,0.0,0.0,0.0,0.0,0.0,0.0,0.0,0.0,0.0,0.0,0.0,0.0,0.0,0.0,0.0,0.0,0.0,0.0,0.0,0.0,0.0,0.0,0.0,0.0,0.0,0.0,0.0,0.0,0.0,0.0,0.0,0.0,0.0,0.0,0.0,0.0,0.0,0.0,0.0,0.0,0.0,0.0,0.0,0.0,0.0,0.0,0.0,0.0,0.0,0.0,0.0,0.0,0.0,0.0,0.0,0.0,0.0,0.0,0.0,0.0,0.0,0.0,0.0,0.0,0.0,0.0,0.0,0.0,0.0,0.0,0.0,0.0,0.0,0.0,0.0,0.0,0.0,0.0,0.0,0.0,0.0,0.0,0.0,0.0,0.0,0.0,0.0,0.0,0.0,0.0,0.0,0.0,0.0,0.0,0.0,0.0,0.0,0.0,0.0,0.0,0.0,0.0,0.0,0.0,0.0,0.0,0.0,0.0,0.0,0.0,0.0,0.0,0.0,0.0,0.0,0.0,0.0,0.0,0.0,0.0,0.0,0.0,0.0,0.0,0.0,0.0,0.0,0.0,0.0,0.0,0.0,0.0,0.0,0.0,0.0,0.0,0.0,0.0,0.0,0.0,0.0,0.0,0.0,0.0,0.0,0.0,0.0,0.0,0.0,0.0,0.0,0.0,0.0,0.0,0.0,0.0,0.0,0.0,0.0,0.0,0.0,0.0,0.0,0.0,0.0,0.0,0.0,0.0,0.0,0.0,0.0,0.0,0.0,0.0,0.0,0.0,0.0,0.0,0.0,0.0,0.0,0.0,0.0,0.0,0.0,0.0,0.0,0.0,0.0,0.0,0.0,0.0,0.0,0.0,0.0,0.0,0.0,0.0,0.0,0.0,0.0,0.0,0.0,0.0,0.0,0.0,0.0,0.0,0.0,0.0,0.0,0.0,0.0,0.0,0.0,0.0,0.0,0.0,0.0,0.0,0.0,0.0,0.0,0.0,0.0,0.0,0.0,0.0,0.0,0.0,0.0,0.0,0.0,0.0,0.0,0.0,0.0,0.0,0.0,0.0,0.0,0.0,0.0,0.0,0.0,0.0,0.0,0.0,0.0,0.0,0.0,0.0,0.0,0.0,0.0,0.0,0.0,0.0,0.0,0.0,0.0,0.0,0.0,0.0,0.0,0.0,0.0,0.0,0.0,0.0,0.0,0.0,0.0,0.0,0.0,0.0,0.0,0.0,0.0,0.0,0.0,0.0,0.0,0.0,0.0,0.0,0.0,0.0,0.0,0.0,0.0,0.0,0.0,0.0,0.0,0.0,0.0,0.0,0.0,0.0,0.0,0.0,0.0,0.0,0.0,0.0,0.0,0.0,0.0,0.0,0.0,0.0,0.0,0.0,0.0,0.0,0.0,0.0,0.0,0.0,0.0,0.0,0.0,0.0,0.0,0.0,0.0,0.0,0.0,0.0,0.0,0.0,0.0,0.0,0.0,0.0,0.0,0.0,0.0,0.0,0.0,0.0,0.0,0.0,0.0,0.0,0.0,0.0,0.0,0.0,0.0,0.0,0.0,0.0,0.0,0.0,0.0,0.0,0.0,0.0,0.0,0.0,0.0,0.0,0.0,0.0,0.0,0.0,0.0,0.0,0.0,0.0,0.0,0.0,0.0,0.0,0.0,0.0,0.0,0.0,0.0,0.0,0.0,0.0,0.0,0.0,0.0,0.0,0.0,0.0,0.0,0.0,0.0,0.0,0.0,0.0,0.0,0.0,0.0,0.0,0.0,0.0,0.0,0.0,0.0,0.0,0.0,0.0,0.0,0.0,0.0,0.0,0.0,0.0,0.0,0.0,0.0,0.0,0.0,0.0,0.0,0.0,0.0,0.0,0.0,0.0,0.0,0.0,0.0,0.0,0.0,0.0,0.0,0.0,0.0,0.0,0.0,0.0,0.0,0.0,0.0,0.0,0.0,0.0,0.0,0.0,0.0,0.0,0.0,0.0,0.0,0.0,0.0,0.0,0.0,0.0,0.0,0.0,0.0,0.0,0.0,0.0,0.0,0.0,0.0,0.0,0.0,0.0,0.0,0.0,0.0,0.0,0.0,0.0,0.0,0.0,0.0,0.0,0.0,0.0,0.0,0.0,0.0,0.0,0.0,0.0,0.0,0.0,0.0,0.0,0.0,0.0,0.0,0.0,0.0,0.0,0.0,0.0,0.0,0.0,0.0,0.0,0.0,0.0,0.0,0.0,0.0,0.0,0.0,0.0,0.0,0.0,0.0,0.0,0.0,0.0,0.0,0.0,0.0,0.0,0.0,0.0,0.0,0.0,0.0,0.0,0.0,0.0,0.0,0.0,0.0,0.0,0.0,0.0,0.0,0.0,0.0,0.0,0.0,0.0,0.0,0.0,0.0,0.0,0.0,0.0,0.0,0.0,0.0,0.0,0.0,0.0,0.0,0.0,0.0,0.0,0.0,0.0,0.0,0.0,0.0,0.0,0.0,0.0,0.0,0.0,0.0,0.0,0.0,0.0,0.0,0.0,0.0,0.0,0.0,0.0,0.0,0.0,0.0,0.0,0.0,0.0,0.0,0.0,0.0,0.0,0.0,0.0,0.0,0.0,0.0,0.0,0.0,0.0,0.0,0.0,0.0,0.0,0.0,0.0,0.0,0.0,0.0,0.0,0.0,0.0,0.0,0.0,0.0,0.0,0.0,0.0,0.0,0.0,0.0,0.0,0.0,0.0,0.0,0.0,0.0,0.0,0.0,0.0,0.0,0.0,0.0,0.0,0.0,0.0,0.0,0.0,0.0,0.0,0.0,0.0,0.0,0.0,0.0,0.0,0.0,0.0,0.0,0.0,0.0,0.0,0.0,0.0,0.0,0.0,0.0,0.0,0.0,0.0,0.0,0.0,0.0,0.0,0.0,0.0,0.0,0.0,0.0,0.0,0.0,0.0,0.0,0.0,0.0,0.0,0.0,0.0,0.0,0.0,0.0,0.0,0.0,0.0,0.0,0.0,0.0,0.0,0.0,0.0,0.0,0.0,0.0,0.0,0.0,0.0,0.0,0.0,0.0,0.0,0.0,0.0,0.0,0.0,0.0,0.0,0.0,0.0,0.0,0.0,0.0,0.0,0.0,0.0,0.0,0.0,0.0,0.0,0.0,0.0,0.0,0.0,0.0,0.0,0.0,0.0,0.0,0.0,0.0,0.0,0.0,0.0,0.0,0.0,0.0,0.0,0.0,0.0,0.0,0.0,0.0,0.0,0.0,0.0,0.0,0.0,0.0,0.0,0.0,0.0,0.0,0.0,0.0,0.0,0.0,0.0,0.0,0.0,0.0,0.0,0.0,0.0,0.0,0.0,0.0,0.0,0.0,0.0,0.0,0.0,0.0,0.0,0.0,0.0,0.0,0.0,0.0,0.0,0.0,0.0,0.0,0.0,0.0,0.0,0.0,0.0,0.0,0.0,0.0,0.0,0.0,0.0,0.0,0.0,0.0,0.0,0.0,0.0,0.0,0.0,0.0,0.0,0.0,0.0,0.0,0.0,0.0,0.0,0.0,0.0,0.0,0.0,0.0,0.0,0.0,0.0,0.0,0.0,0.0,0.0,0.0,0.0,0.0,0.0,0.0,0.0,0.0,0.0,0.0,0.0,0.0,0.0,0.0,0.0,0.0,0.0,0.0,0.0,0.0,0.0,0.0,0.0,0.0,0.0,0.0,0.0,0.0,0.0,0.0,0.0,0.0,0.0,0.0,0.0,0.0,0.0,0.0,0.0,0.0,0.0,0.0,0.0,0.0,0.0,0.0,0.0,0.0,0.0,0.0,0.0,0.0,0.0,0.0,0.0,0.0,0.0,0.0,0.0,0.0,0.0,0.0,0.0,0.0,0.0,0.0,0.0,0.0,0.0,0.0,0.0,0.0,0.0,0.0,0.0,0.0,0.0,0.0,0.0,0.0,0.0,0.0,0.0,0.0,0.0,0.0,0.0,0.0,0.0,0.0,0.0,0.0,0.0,0.0,0.0,0.0,0.0,0.0,0.0,0.0,0.0,0.0,0.0,0.0,0.0,0.0,0.0,0.0,0.0,0.0,0.0,0.0,0.0,0.0,0.0,0.0,0.0,0.0,0.0,0.0,0.0,0.0,0.0,0.0,0.0,0.0,0.0,0.0,0.0,0.0,0.0,0.0,0.0,0.0,0.0,0.0,0.0,0.0,0.0,0.0,0.0,0.0,0.0,0.0,0.0,0.0,0.0,0.0,0.0,0.0,0.0,0.0,0.0,0.0,0.0,0.0,0.0,0.0,0.0,0.0,0.0,0.0,0.0,0.0,0.0,0.0,0.0,0.0,0.0,0.0,0.0,0.0,0.0,0.0,0.0,0.0,0.0,0.0,0.0,0.0,0.0,0.0,0.0,0.0,0.0,0.0,0.0,0.0,0.0,0.0,0.0,0.0,0.0,0.0,0.0,0.0,0.0,0.0,0.0,0.0,0.0,0.0,0.0,0.0,0.0,0.0,0.0,0.0,0.0,0.0,0.0,0.0,0.0,0.0,0.0,0.0,0.0,0.0,0.0,0.0,0.0,0.0,0.0,0.0,0.0,0.0,0.0,0.0,0.0,0.0,0.0,0.0,0.0,0.0,0.0,0.0,0.0,0.0,0.0,0.0,0.0,0.0,0.0,0.0,0.0,0.0,0.0,0.0,0.0,0.0,0.0,0.0,0.0,0.0,0.0,0.0,0.0,0.0,0.0,0.0,0.0,0.0,0.0,0.0,0.0,0.0,0.0,0.0,0.0,0.0,0.0,0.0,0.0,0.0,0.0,0.0,0.0,0.0,0.0,0.0,0.0,0.0,0.0,0.0,0.0,0.0,0.0,0.0,0.0,0.0,0.0,0.0,0.0,0.0,0.0,0.0,0.0,0.0,0.0,0.0,0.0,0.0,0.0,0.0,0.0,0.0,0.0,0.0,0.0,0.0,0.0,0.0,0.0,0.0,0.0,0.0,0.0,0.0,0.0,0.0,0.0,0.0,0.0,-1.1951,0.0,0.0,0.0,0.0,0.0,0.0,0.0,0.0,0.0,0.0,0.0,0.0,0.0,0.0,0.0,0.0,0.0,0.0,0.0,0.0,0.0,0.0,0.0,0.0,0.0,0.0,0.0,0.0,0.0,0.0,0.0,0.0,0.0,0.0,0.0,0.0,0.0,0.0,0.0,-1.7118,-1.778,-1.9046,-1.8589,-1.9042,-2.018,0.0,0.0,0.0,0.0,0.0,0.0,0.0,0.0,0.0,0.0,0.0,0.0,0.0,0.0,0.0,0.0,0.0,0.0,0.0,0.0,0.0,0.0,0.0,0.0,0.0,0.0,0.0,0.0,0.0,0.0,0.0,0.0,0.0,0.0,0.0,0.0,0.0,0.0,0.0,0.0,0.0,0.0,0.0,0.0,0.0,0.0,0.0,0.0,0.0,0.0,0.0,0.0,0.0,0.0,0.0,0.0,0.0,0.0,0.0,0.0,0.0,0.0,0.0,0.0,0.0,0.0,0.0,0.0,0.0,0.0,0.0,-1.2369,0.0,0.0,0.0,0.0,0.0,0.0,0.0,0.0,0.0,0.0,0.0,0.0,0.0,0.0,0.0,0.0,0.0,0.0,0.0,0.0,0.0,0.0,0.0,0.0,-1.972,-1.9884,-1.9657,0.0,0.0,0.0,0.0,0.0,0.0,0.0,0.0,0.0,0.0,0.0,-1.708,-1.8114,-1.9503,-1.8885,-1.9446,-2.0869,-1.8677,0.0,0.0,0.0,0.0,0.0,0.0,0.0,0.0,0.0,0.0,0.0,0.0,0.0,0.0,0.0,0.0,0.0,0.0,0.0,0.0,0.0,0.0,0.0,0.0,0.0,0.0,0.0,0.0,0.0,0.0,0.0,0.0,0.0,0.0,0.0,0.0,0.0,0.0,0.0,0.0,0.0,0.0,0.0,0.0,0.0,0.0,0.0,0.0,0.0,0.0,0.0,0.0,0.0,0.0,0.0,0.0,0.0,0.0,0.0,0.0,0.0,0.0,0.0,-1.8496,-1.8491,-1.8579,-1.7707,-1.7653,-1.8079,-1.4565,-1.2908,-1.2676,-1.2446,0.0,0.0,0.0,0.0,0.0,0.0,0.0,0.0,0.0,0.0,0.0,0.0,0.0,0.0,0.0,0.0,0.0,0.0,0.0,0.0,0.0,-1.9854,-1.993,-1.9896,-1.9148,-1.8674,0.0,0.0,0.0,0.0,0.0,0.0,0.0,-1.5753,-1.5734,-1.6503,-1.9427,-2.0954,-2.1193,-2.1839,-2.2648,-2.3437,-1.9453,-1.8677,-2.0196,0.0,0.0,0.0,0.0,0.0,0.0,0.0,0.0,0.0,0.0,0.0,0.0,0.0,0.0,0.0,0.0,0.0,0.0,0.0,0.0,0.0,0.0,0.0,0.0,0.0,0.0,0.0,0.0,0.0,0.0,0.0,0.0,0.0,0.0,0.0,0.0,0.0,0.0,0.0,0.0,0.0,-1.8152,-1.8161,0.0,0.0,0.0,0.0,0.0,0.0,0.0,0.0,0.0,0.0,0.0,0.0,0.0,-2.0138,-2.0584,-2.1188,-2.0714,-1.9206,-2.0313,-1.9774,-1.7859,-1.8219,-1.8018,-1.7319,-1.66,0.0,-1.4993,-1.2918,0.0,0.0,0.0,0.0,0.0,0.0,0.0,0.0,0.0,0.0,0.0,0.0,0.0,0.0,0.0,0.0,0.0,0.0,0.0,0.0,0.0,-2.025,-2.041,-1.9934,-2.0759,-2.0515,-1.8606,0.0,0.0,0.0,0.0,0.0,-1.5715,-1.585,-1.7042,-1.9311,-2.1754,-2.3204,-2.37,-2.4042,-2.4427,-2.4703,-2.1837,-2.0465,-2.0158,-1.7965,0.0,0.0,0.0,0.0,0.0,0.0,0.0,0.0,0.0,0.0,0.0,0.0,0.0,0.0,0.0,0.0,0.0,0.0,0.0,0.0,0.0,0.0,0.0,0.0,0.0,0.0,0.0,0.0,0.0,0.0,0.0,0.0,0.0,0.0,0.0,0.0,0.0,0.0,0.0,-1.9378,-1.9276,-1.8748,-1.9448,-1.9918,0.0,0.0,0.0,0.0,0.0,0.0,0.0,0.0,0.0,-2.0788,-2.1455,-2.1954,-2.2263,-2.2415,-2.2357,-2.2106,-2.2156,-2.1747,-2.0887,-2.0598,-2.0147,-1.9568,-1.8921,-1.7887,-1.6508,-1.4312,-1.2723,-1.164,0.0,0.0,0.0,0.0,-0.9441,-0.8954,0.0,0.0,0.0,0.0,0.0,0.0,0.0,0.0,0.0,0.0,0.0,0.0,-2.0283,-2.1023,-2.1393,-2.1223,-2.2248,-2.1806,-1.9233,-1.8918,0.0,0.0,0.0,-1.5057,-1.5092,-1.6662,-1.8792,-2.1504,-2.3889,-2.5408,-2.6051,-2.6198,-2.6304,-2.6255,-2.4301,-2.2504,-2.0754,-1.797,-1.6798,-1.6683,0.0,0.0,0.0,0.0,0.0,0.0,0.0,0.0,0.0,0.0,0.0,0.0,0.0,0.0,0.0,0.0,0.0,0.0,0.0,0.0,0.0,0.0,0.0,0.0,0.0,0.0,0.0,0.0,0.0,0.0,0.0,0.0,0.0,0.0,0.0,0.0,0.0,-1.9855,-1.9921,-1.8992,-1.9848,-2.0272,0.0,0.0,0.0,0.0,0.0,0.0,-2.0632,-2.1983,-2.2712,-2.2671,-2.3319,-2.3769,-2.3933,-2.3883,-2.4019,-2.4399,-2.3946,-2.3549,-2.3204,-2.2555,-2.1936,-2.1302,-2.0494,-1.9167,-1.7459,-1.5624,-1.3939,-1.2467,-1.1848,-1.138,-1.0999,-1.0431,-1.008,-0.9785,0.0,0.0,0.0,0.0,0.0,0.0,0.0,0.0,0.0,0.0,0.0,-2.0164,-2.1891,-2.2287,-2.3044,-2.4598,-2.2571,-2.1111,-2.0866,-1.7926,-1.6134,-1.6015,-1.5245,-1.49,-1.5092,-1.839,-2.0581,-2.1504,-2.5659,-2.7727,-2.7785,-2.8555,-2.892,-2.8805,-2.6294,-2.4235,-2.2447,-1.9,-1.7588,-1.7471,-1.5578,0.0,0.0,0.0,0.0,0.0,0.0,0.0,0.0,0.0,0.0,0.0,0.0,0.0,0.0,0.0,0.0,0.0,0.0,0.0,0.0,0.0,0.0,0.0,0.0,0.0,0.0,0.0,0.0,0.0,0.0,0.0,0.0,0.0,0.0,0.0,0.0,0.0,0.0,-1.8161,-1.9507,0.0,0.0,0.0,0.0,-2.0234,-2.1579,-2.2418,-2.2459,-2.3916,-2.4672,-2.4489,-2.5125,-2.5801,-2.6514,-2.6776,-2.6135,-2.47,-2.5592,-2.4884,-2.2745,-2.3136,-2.2461,-2.0905,-2.0619,-1.95,-1.7768,-1.6394,-1.4977,-1.3626,-1.2773,-1.2625,-1.2768,-1.1921,-1.1307,-1.0866,0.0,0.0,0.0,0.0,0.0,0.0,0.0,0.0,0.0,-1.8385,-1.952,-2.0798,-2.1994,-2.3771,-2.511,-2.573,-2.4921,-2.3442,-2.1205,-1.9423,-1.7937,-1.6817,-1.5995,-1.6697,-1.9104,-2.0962,-2.312,-2.562,-2.7659,-2.8967,-2.9525,-2.9794,-2.9948,-2.986,-2.8318,-2.6967,-2.5608,-2.1194,-1.9039,-1.8374,-1.6481,-1.5729,0.0,0.0,0.0,0.0,0.0,0.0,0.0,0.0,0.0,0.0,0.0,0.0,0.0,0.0,0.0,0.0,0.0,0.0,0.0,0.0,0.0,0.0,0.0,0.0,0.0,0.0,0.0,0.0,0.0,0.0,0.0,0.0,0.0,0.0,0.0,0.0,0.0,-2.1185,-2.1776,0.0,-2.1939,-2.1965,-2.1989,-2.191,-2.2947,-2.3794,-2.4312,-2.5774,-2.6797,-2.7281,-2.7924,-2.8297,-2.8437,-2.8532,-2.8082,-2.7083,-2.6967,-2.5994,-2.4274,-2.3465,-2.2339,-2.1059,-2.0354,-1.9306,-1.8065,-1.7572,-1.6254,-1.4403,-1.3417,-1.2978,-1.2844,-1.2147,-1.156,-1.1049,0.0,0.0,0.0,0.0,0.0,0.0,0.0,0.0,-1.7907,-1.7907,-1.9761,-2.1677,-2.3182,-2.575,-2.7365,-2.7441,-2.6683,-2.4869,-2.1708,-1.9906,-1.8406,-1.7216,-1.6967,-1.8245,-2.1271,-2.2815,-2.5129,-2.8294,-2.9429,-3.041,-3.1237,-3.0968,-3.095,-3.1092,-2.9849,-2.9117,-2.8508,-2.44,-2.1521,-1.9544,-1.7662,-1.6941,-1.6848,0.0,0.0,0.0,0.0,0.0,0.0,0.0,0.0,0.0,0.0,0.0,0.0,0.0,0.0,0.0,0.0,0.0,0.0,0.0,0.0,0.0,0.0,0.0,0.0,0.0,0.0,0.0,0.0,0.0,0.0,0.0,0.0,0.0,0.0,0.0,-2.2284,-2.3413,-2.4007,-2.4294,-2.4239,-2.3966,-2.3753,-2.3712,-2.4759,-2.5745,-2.6574,-2.7788,-2.8727,-2.9254,-2.9627,-2.9713,-2.9532,-2.9173,-2.8611,-2.7851,-2.6981,-2.5883,-2.4653,-2.3249,-2.2227,-2.1443,-2.0474,-1.9614,-1.8843,-1.8227,-1.7175,-1.5836,-1.4284,-1.3392,-1.2912,-1.238,-1.1906,-1.1422,0.0,0.0,0.0,0.0,0.0,0.0,0.0,-1.7889,-1.7871,-1.7871,-2.0092,-2.2754,-2.5498,-2.8072,-2.9682,-2.9872,-2.7574,-2.5012,-2.2429,-1.9117,-1.7229,-1.7133,-1.8092,-1.9465,-2.132,-2.3885,-2.6493,-2.914,-3.0852,-3.2102,-3.284,-3.2051,-3.2012,-3.2504,-3.0886,-3.0513,-3.0973,-2.8464,-2.5049,-2.1161,-1.9207,-1.8472,-1.8383,0.0,0.0,0.0,0.0,0.0,0.0,0.0,0.0,0.0,0.0,0.0,0.0,0.0,0.0,0.0,0.0,0.0,0.0,0.0,0.0,0.0,0.0,0.0,0.0,0.0,0.0,0.0,0.0,0.0,0.0,0.0,0.0,0.0,-2.1819,-2.3363,-2.4427,-2.4511,-2.5956,-2.6284,-2.462,-2.5176,-2.5624,-2.5624,-2.7086,-2.8357,-2.9197,-2.9965,-3.034,-3.0215,-3.0075,-2.9958,-2.9817,-2.8746,-2.7773,-2.6821,-2.5709,-2.4657,-2.371,-2.2624,-2.2136,-2.2047,-2.0968,-2.0431,-2.0134,-1.8295,-1.7756,-1.7817,-1.5453,-1.397,-1.3134,-1.2786,-1.243,-1.2037,0.0,0.0,0.0,0.0,0.0,0.0,0.0,-1.74,-1.7037,-1.7037,-1.9792,-2.2785,-2.5512,-2.8071,-2.9681,-2.9872,-2.6513,-2.3549,-2.1557,-1.8294,-1.6899,-1.7931,-2.0036,-2.2262,-2.4568,-2.6738,-2.8498,-2.9819,-3.1072,-3.1744,-3.1814,-3.1585,-3.1802,-3.2346,-3.1788,-3.1657,-3.1731,-3.0298,-2.8334,-2.5871,-2.2484,-2.0806,-2.0107,0.0,0.0,0.0,0.0,0.0,0.0,0.0,0.0,0.0,0.0,0.0,0.0,0.0,0.0,0.0,0.0,0.0,0.0,0.0,0.0,0.0,0.0,0.0,0.0,0.0,0.0,0.0,0.0,0.0,0.0,0.0,0.0,-2.3143,-2.2812,-2.3719,-2.511,-2.7008,-2.7597,-2.7905,-2.806,-2.8239,-2.8335,-2.8335,-2.929,-2.9939,-3.0123,-3.0314,-3.0379,-3.0355,-3.0311,-3.0182,-2.9939,-2.908,-2.8374,-2.7792,-2.6859,-2.5809,-2.4693,-2.3807,-2.3019,-2.2345,-2.1306,-2.042,-1.9687,-1.9161,-1.8076,-1.6604,-1.5356,-1.483,-1.4689,-1.4073,-1.3323,-1.2452,0.0,0.0,0.0,0.0,0.0,0.0,0.0,-1.7001,-1.6693,-1.6693,-1.9893,-2.2941,-2.4908,-2.7699,-2.8971,-2.7808,-2.5229,-2.2483,-1.9696,-1.7956,-1.7756,-1.9413,-2.2171,-2.4548,-2.6503,-2.8354,-2.9703,-3.0521,-3.1216,-3.1828,-3.2295,-3.1971,-3.2346,-3.3241,-3.2801,-3.2735,-3.2892,-3.1644,-3.0538,-2.937,-2.6021,-2.4001,-2.2734,-2.0652,-2.0066,-2.0173,-1.8759,-1.917,-2.0255,-1.9307,0.0,0.0,0.0,0.0,0.0,0.0,0.0,0.0,0.0,0.0,0.0,0.0,0.0,0.0,0.0,0.0,0.0,0.0,0.0,0.0,0.0,0.0,0.0,0.0,-2.3624,-2.4895,-2.5168,-2.5681,-2.6727,-2.8623,-2.9139,-2.9531,-3.0039,-3.0025,-2.9982,-2.9982,-3.0378,-3.0618,-3.0552,-3.0501,-3.0471,-3.0447,-3.0436,-3.0186,-2.9666,-2.8779,-2.8018,-2.7396,-2.6489,-2.5631,-2.4816,-2.4025,-2.3472,-2.3131,-2.2175,-2.1363,-2.0696,-1.9956,-1.8814,0.0,0.0,0.0,0.0,0.0,-1.3499,-1.2918,0.0,0.0,0.0,0.0,0.0,0.0,0.0,-1.6678,-1.6693,-1.6693,-1.9974,-2.2718,-2.3805,-2.6669,-2.7399,-2.4673,-2.3639,-2.1576,-1.7798,-1.8193,-1.9455,-2.1412,-2.4375,-2.65,-2.7616,-2.9298,-3.0473,-3.1082,-3.1279,-3.2064,-3.3411,-3.2693,-3.3147,-3.4542,-3.3749,-3.3713,-3.4152,-3.2674,-3.1982,-3.1745,-2.9474,-2.7471,-2.5541,-2.326,-2.2761,-2.3002,-2.0872,-2.0148,-2.0204,-2.0001,0.0,0.0,0.0,0.0,0.0,0.0,0.0,0.0,0.0,0.0,0.0,0.0,0.0,0.0,0.0,0.0,0.0,0.0,0.0,0.0,0.0,0.0,0.0,0.0,-2.4675,-2.6456,-2.8018,-2.8427,-2.8867,-2.9636,-3.0419,-3.0948,-3.103,-3.0976,-3.099,-3.1088,-3.0934,-3.0812,-3.0756,0.0,0.0,0.0,0.0,-2.9978,-2.9206,-2.8126,-2.7158,-2.632,-2.538,-2.4785,-2.4508,-2.3782,-2.3707,-2.4115,-2.3196,-2.2658,-2.2257,-2.0593,-1.9635,-1.8977,-1.6755,-1.5151,-1.4081,-1.3567,-1.3425,-1.3458,0.0,0.0,0.0,0.0,0.0,0.0,0.0,-1.6589,-1.6693,-1.6693,-1.8524,-2.046,-2.2162,-2.3436,-2.3798,-2.2853,-2.1341,-2.0069,-1.9201,-1.9885,-2.1403,-2.3821,-2.6408,-2.8203,-2.9064,-3.0903,-3.1506,-3.0847,-3.1065,-3.1595,-3.2389,-3.222,-3.2966,-3.4431,-3.4149,-3.4213,-3.4476,-3.379,-3.3192,-3.2617,-3.1806,-2.9452,-2.6293,-2.5169,-2.4335,-2.3652,-2.2819,-2.2952,-2.321,-2.1326,-2.1151,-2.1465,-1.9959,0.0,0.0,0.0,0.0,0.0,0.0,0.0,0.0,0.0,0.0,0.0,0.0,0.0,0.0,0.0,0.0,0.0,0.0,0.0,0.0,-2.4658,-2.688,-2.8612,-2.9019,-2.9747,-3.0326,-3.0545,-3.0769,-3.1142,-3.1807,-3.1852,-3.2146,-3.283,-3.2181,-3.175,-3.1724,-3.1015,-3.0582,-3.0585,-2.9854,-2.9361,-2.9187,-2.7663,-2.6755,-2.6454,0.0,0.0,-2.4799,-2.4441,-2.4329,-2.4372,-2.3327,-2.2408,-2.1528,-2.0439,-1.9167,-1.7765,-1.6774,-1.586,-1.5065,-1.4663,-1.4345,-1.4041,0.0,0.0,0.0,0.0,0.0,0.0,0.0,-1.6731,-1.6589,-1.6678,-1.7762,-1.8863,-1.9792,-2.0611,-2.0523,-1.9061,-1.7869,-1.8044,-2.0085,-2.0953,-2.2775,-2.5828,-2.7811,-2.912,-2.9699,-3.0904,-3.1092,-3.015,-3.0697,-3.1337,-3.206,-3.2472,-3.3272,-3.4404,-3.4316,-3.4269,-3.4227,-3.3598,-3.3091,-3.2636,-3.2015,-3.033,-2.8122,-2.7346,-2.6516,-2.5561,-2.4192,-2.3692,-2.3358,-2.1466,-2.0849,-2.0695,-1.975,-1.9434,-1.9405,0.0,0.0,0.0,0.0,0.0,0.0,0.0,0.0,0.0,0.0,0.0,0.0,0.0,0.0,-2.101,0.0,0.0,-2.4977,-2.6296,-2.7999,-2.9313,-2.9775,-2.9938,-3.0194,-3.0696,-3.0816,-3.1001,-3.1411,-3.1844,-3.21,-3.2141,-3.2089,-3.1854,-3.1417,-3.0954,-3.0672,-3.0652,-2.9768,-2.9101,-2.864,-2.7359,-2.6457,-2.5948,-2.5466,-2.5163,-2.5006,-2.4869,-2.4515,-2.397,-2.3401,-2.2362,-2.1013,-1.9973,-1.9,-1.8083,-1.7455,-1.6559,-1.5579,-1.509,-1.4763,-1.4479,0.0,0.0,0.0,0.0,0.0,0.0,0.0,0.0,-1.6201,-1.6399,-1.6992,-1.7405,-1.7421,-1.8055,-1.7694,-1.577,-1.5328,-1.6966,-2.1201,-2.2256,-2.4358,-2.8041,-2.9456,-3.0261,-3.0557,-3.1017,-3.0938,-3.0261,-3.0748,-3.1442,-3.2302,-3.2895,-3.362,-3.4363,-3.434,-3.4179,-3.3865,-3.3195,-3.2834,-3.2602,-3.1682,-3.0749,-2.9836,-2.8964,-2.8161,-2.7186,-2.4957,-2.3584,-2.263,-2.1229,-2.0181,-1.9476,-1.9434,-1.9419,-1.9419,-1.9419,-1.9419,0.0,0.0,0.0,0.0,0.0,0.0,0.0,0.0,0.0,-2.0103,-2.1135,-2.1486,-2.214,-2.3839,-2.4989,-2.6173,-2.7701,-2.8706,-2.952,-3.0062,-2.964,-2.944,-2.9877,-3.0283,-3.0618,-3.0777,-3.1585,-3.1901,-3.1415,-3.1828,-3.1794,-3.1093,-3.0739,-3.0515,-3.0466,-2.9465,-2.8571,-2.7859,-2.6953,-2.6126,-2.5434,-2.5434,-2.5329,-2.5175,-2.5135,-2.4557,-2.3549,-2.3117,-2.2023,-2.0481,-1.9556,-1.903,-1.8753,-1.8226,-1.7243,-1.6087,-1.5448,-1.5104,-1.4887,0.0,0.0,0.0,0.0,0.0,0.0,0.0,0.0,0.0,-1.5425,-1.5529,-1.5627,-1.5759,-1.5863,-1.5832,-1.5626,-1.6343,-1.8859,-2.3599,-2.4763,-2.714,-3.1287,-3.2294,-3.2826,-3.2932,-3.2941,-3.2941,-3.2949,-3.2123,-3.2216,-3.3231,-3.3219,-3.3598,-3.4293,-3.4197,-3.4087,-3.3975,-3.3505,-3.3356,-3.3285,-3.2191,-3.1213,-3.0266,-2.8882,-2.7825,-2.6803,-2.4693,-2.3394,-2.2501,-2.1029,-2.0028,-1.939,-1.92,-1.9135,-1.9135,-1.9135,0.0,-1.9153,-1.9137,-1.912,-1.912,-1.912,-1.9117,-1.9362,0.0,0.0,-2.0889,-2.201,-2.288,-2.3758,-2.4843,-2.6345,-2.772,-2.8624,-2.9545,-2.9921,-2.925,-2.9196,-2.8709,-2.7319,-2.8626,-2.9948,-3.0716,-3.1594,-3.2385,-3.3075,-3.2489,-3.2059,-3.1963,-3.0488,-2.9641,-2.964,-2.8047,-2.7125,-2.7047,-2.6164,-2.5665,-2.5587,-2.5517,-2.548,-2.5447,-2.5263,-2.4701,-2.3755,-2.1953,-2.0586,-1.9636,-1.9503,-1.9198,-1.8771,-1.852,-1.7866,-1.697,-1.6316,-1.5781,-1.5359,0.0,0.0,0.0,0.0,0.0,0.0,0.0,0.0,0.0,0.0,-1.4816,-1.4623,-1.4679,-1.4288,-1.4232,-1.4754,-1.5621,-1.8045,-2.2428,-2.4411,-2.7046,-3.0734,-3.1723,-3.2284,-3.2403,-3.2396,-3.2437,-3.2604,-3.2523,-3.272,-3.3123,-3.352,-3.3796,-3.3943,-3.3891,-3.3778,-3.3634,-3.3462,-3.3345,-3.3189,-3.2206,-3.1058,-2.964,-2.7163,-2.5421,-2.4157,-2.2901,-2.1622,0.0,0.0,-1.8395,-1.8507,-1.8431,-1.8707,-1.9087,-1.9087,-1.9087,0.0,-1.9087,-1.9087,-1.9322,0.0,-2.0499,-2.0844,-2.2209,-2.2575,-2.2922,-2.399,-2.4519,-2.5302,-2.6897,-2.7756,-2.8546,0.0,-2.9983,-2.9953,-2.9123,-2.8199,-2.6996,-2.5321,-2.5866,-2.7101,-2.9046,-3.0443,-3.1397,-3.1796,-3.1952,-3.162,-3.0648,-2.9933,-2.9313,-2.8761,-2.7537,-2.69,-2.6898,-2.6029,-2.5344,-2.4834,-2.4821,-2.454,-2.4059,-2.4491,-2.4179,-2.3243,-2.1886,-2.0765,-1.9898,-1.9869,-1.9681,-1.9415,-1.9125,-1.8608,-1.788,-1.6781,-1.5991,-1.5385,0.0,0.0,0.0,0.0,0.0,0.0,0.0,0.0,0.0,0.0,-1.4229,-1.3984,-1.4012,-1.3382,-1.3165,-1.3733,-1.4423,-1.6563,-2.0642,-2.2993,-2.5993,-2.9899,-3.0944,-3.1728,-3.2386,-3.2381,-3.2428,-3.2542,-3.3045,-3.3234,-3.3228,-3.3796,-3.3954,-3.3707,-3.3707,-3.355,-3.3334,-3.3334,-3.31,-3.2624,-3.153,-3.0159,-2.8452,-2.5145,-2.287,-2.1332,-2.064,-1.9489,-1.8124,-1.7016,-1.7031,-1.7555,-1.7772,-1.8419,-1.9087,-1.9087,-1.9087,-1.9141,-1.9359,0.0,0.0,-2.1441,-2.1821,-2.2185,-2.3585,-2.3935,-2.4222,-2.5023,-2.5393,-2.6059,-2.7582,-2.8074,-2.8605,-2.9618,-2.9617,-2.9314,-2.8715,-2.7197,-2.5631,-2.4177,-2.3625,-2.4331,-2.6733,-2.8534,-2.966,-2.9971,-3.0585,-3.0414,-2.9177,-2.8941,-2.8541,-2.7862,-2.7001,-2.6542,-2.6562,-2.5948,-2.5312,-2.4683,-2.4698,-2.4361,-2.3748,-2.3891,-2.3607,-2.2894,-2.1765,-2.0878,-2.025,-2.0192,-2.0092,-1.9917,-1.9671,-1.9234,-1.8555,-1.7429,-1.6568,-1.5741,0.0,0.0,0.0,0.0,0.0,0.0,0.0,0.0,0.0,0.0,0.0,0.0,0.0,-1.3208,-1.2803,-1.2745,-1.3016,-1.4894,-1.8899,-2.0838,-2.426,-2.9759,-3.0782,-3.203,-3.3784,-3.3821,-3.388,-3.3932,-3.3949,-3.3975,-3.3969,-3.3986,-3.3895,-3.3698,-3.3698,-3.3473,-3.3117,-3.3117,-3.2606,-3.1685,-2.9911,-2.8337,-2.6702,-2.3203,-2.0686,-1.8914,-1.8174,-1.7299,-1.6488,-1.6516,-1.6532,-1.6675,-1.7464,-1.8354,0.0,-1.9087,-1.9087,-1.9268,0.0,0.0,-2.0644,-2.2274,-2.2656,-2.2877,-2.3715,-2.3935,-2.4074,-2.4284,-2.5022,-2.5688,-2.5928,-2.6779,-2.7717,-2.8605,-2.8215,-2.7771,-2.7739,-2.6359,-2.5001,-2.4119,-2.2566,-2.2238,0.0,-2.5827,-2.7262,-2.8126,-2.8252,-2.8257,-2.8145,-2.7396,-2.6973,-2.6934,-2.608,-2.5671,-2.5733,-2.5703,-2.5683,-2.5663,-2.5663,-2.5642,-2.5562,-2.3893,-2.3114,-2.2985,-2.1214,-2.0428,-2.039,-2.038,-2.0234,-1.9998,-2.0051,-1.9593,-1.8838,-1.8484,-1.7753,-1.6773,0.0,0.0,0.0,0.0,0.0,0.0,0.0,0.0,0.0,0.0,0.0,0.0,0.0,0.0,0.0,0.0,-1.3231,-1.4424,-1.645,-1.9092,-2.1868,-2.4753,-2.7308,-2.8966,-2.9562,-3.0734,-3.1323,-3.1354,-3.188,-3.2096,-3.2017,-3.1964,-3.1865,-3.1704,-3.1611,-3.1552,-3.1476,-3.0897,-3.013,-2.9098,-2.688,-2.5065,-2.3319,-2.0008,-1.8102,-1.7007,0.0,-1.5038,-1.4884,-1.4899,-1.5625,-1.6445,-1.6194,-1.7489,-1.9087,-1.9087,-1.9467,-1.9956,-2.0228,0.0,-2.2147,-2.318,-2.3813,-2.4432,-2.523,-2.5474,-2.5415,-2.4974,-2.5124,-2.5261,-2.5015,-2.5274,-2.5834,-2.6767,-2.7352,-2.7414,-2.6612,-2.6231,-2.5268,-2.3183,-2.2057,0.0,0.0,0.0,0.0,-2.7059,-2.7695,-2.7753,-2.7203,-2.6955,-2.6545,-2.5919,-2.5707,-2.5613,-2.5623,-2.5634,-2.5347,-2.4762,-2.418,-2.3904,-2.3896,-2.3291,-2.2731,-2.2204,-2.1637,-2.1043,-2.0477,-2.0466,-2.0399,-2.0263,-2.0234,-1.9274,-1.7841,-1.7277,-1.6038,-1.4556,0.0,0.0,0.0,0.0,0.0,0.0,0.0,0.0,0.0,0.0,0.0,0.0,0.0,0.0,0.0,0.0,0.0,-1.3327,-1.4343,-1.6264,-1.8287,-2.0418,-2.2926,-2.4523,-2.5144,-2.635,-2.695,-2.6881,-2.7775,-2.8106,-2.7922,-2.843,-2.8613,-2.8532,-2.8635,-2.8703,-2.8713,-2.7903,-2.6994,-2.5985,-2.3779,-2.2001,-2.0363,-1.7582,-1.6199,0.0,-1.4181,-1.3791,-1.3894,-1.3909,-1.498,-1.6198,-1.5669,-1.7111,-1.9056,-1.9414,-2.0101,-2.0843,-2.1405,-2.2528,-2.3705,-2.4465,-2.5045,-2.5407,-2.5353,-2.5379,-2.5114,-2.4101,-2.3885,-2.3781,-2.3509,-2.3568,-2.3939,-2.4848,-2.5414,-2.5668,-2.5502,-2.5144,-2.4486,-2.3372,-2.2365,-2.1871,0.0,0.0,0.0,-2.5628,-2.6495,-2.6727,-2.6188,-2.6242,-2.6013,-2.5418,-2.5486,-2.5537,-2.5556,-2.5556,-2.5284,-2.4719,-2.416,-2.3747,-2.3456,-2.3143,-2.2558,-2.1742,-2.1487,-2.1022,-2.0456,-2.0467,-2.0408,-2.0219,-1.9479,-1.8273,-1.6817,-1.5606,-1.3915,-1.2231,0.0,0.0,0.0,0.0,0.0,0.0,0.0,0.0,0.0,0.0,0.0,0.0,0.0,0.0,0.0,0.0,0.0,0.0,-1.2596,-1.2585,-1.3881,-1.6869,-1.7911,-1.9156,-2.0749,-2.1093,-2.1222,-2.1103,-2.2096,-2.244,-2.2252,-2.3634,-2.432,-2.4361,-2.4872,-2.5094,-2.5014,-2.427,-2.3447,-2.2501,-2.069,-1.9218,-1.7899,-1.5957,-1.5056,-1.469,-1.3884,-1.3611,-1.3594,-1.3625,-1.4658,0.0,-1.6024,-1.7292,-1.895,-1.9993,-2.0879,-2.1856,-2.3358,-2.4389,-2.5204,-2.5945,-2.609,-2.5679,-2.4103,-2.3705,-2.3272,-2.1752,-2.1425,-2.1443,0.0,0.0,-2.2054,-2.2996,-2.2667,-2.2891,-2.4497,-2.3449,-2.3059,0.0,0.0,0.0,0.0,0.0,0.0,-2.3907,0.0,-2.5216,-2.5192,-2.5312,-2.5393,-2.5393,-2.5398,-2.5425,-2.5492,-2.5492,-2.5492,-2.5492,-2.5492,-2.5065,-2.4261,-2.3388,-2.2513,-2.1639,-2.0769,-2.0385,-2.0381,-2.0385,-2.0262,-1.9901,-1.8036,-1.6817,-1.5827,-1.3718,-1.1668,-0.994,0.0,0.0,0.0,0.0,0.0,0.0,0.0,0.0,0.0,0.0,0.0,0.0,0.0,0.0,0.0,0.0,0.0,0.0,-1.0885,-1.1378,-1.2064,-1.286,-1.4802,-1.6044,-1.6466,-1.7719,-1.8339,-1.8319,-1.9174,-1.9585,-1.9582,-1.9894,-2.0368,-2.0955,-2.1035,-2.1348,-2.1755,-2.101,-2.0124,-1.9104,-1.7496,-1.628,-1.5407,-1.473,-1.4519,-1.4604,-1.4813,0.0,0.0,0.0,0.0,0.0,0.0,-1.8092,-1.8422,-1.9866,-2.1126,-2.2236,-2.324,-2.4527,-2.5517,-2.5124,-2.4707,-2.4157,-2.3198,-2.2528,-2.1804,-2.0807,-2.0608,-2.0445,0.0,0.0,0.0,-2.1857,-2.321,0.0,-2.5097,-2.6095,0.0,-2.5482,0.0,-2.4538,-2.3491,-2.3802,0.0,0.0,-2.3904,-2.4423,-2.516,-2.5241,-2.5243,-2.5244,-2.5302,-2.5335,-2.534,-2.534,-2.5354,-2.536,-2.536,-2.4925,-2.4122,-2.3149,-2.2254,-2.1439,-2.0611,-2.0231,-2.0179,-2.0125,-2.0096,-2.0027,-1.9164,-1.7074,-1.4422,-1.3854,-1.1044,-0.7471,0.0,0.0,0.0,0.0,0.0,0.0,0.0,0.0,0.0,0.0,0.0,0.0,0.0,0.0,0.0,0.0,0.0,0.0,0.0,-1.0681,-1.0548,-1.0225,-1.1837,-1.2598,-1.2266,-1.3804,-1.4479,-1.4181,-1.4997,-1.5556,-1.5888,-1.6149,-1.6669,-1.7379,-1.7604,-1.7915,-1.8219,-1.7483,-1.6853,0.0,0.0,-1.4473,-1.4366,-1.4233,-1.4472,0.0,0.0,0.0,0.0,0.0,0.0,-1.7268,-1.8707,-1.9467,-2.0065,-2.1285,0.0,-2.4349,-2.465,-2.5906,-2.6755,-2.5305,-2.4569,-2.3768,-2.2329,-2.1473,-2.0735,-1.9937,-1.9774,0.0,0.0,0.0,0.0,0.0,0.0,0.0,-2.4209,-2.5597,-2.6247,0.0,-2.6284,0.0,-2.4928,-2.4978,-2.4879,0.0,-2.4227,-2.4415,-2.5043,-2.5006,-2.5019,-2.5111,-2.5152,-2.5175,-2.5175,-2.5165,-2.513,-2.5075,-2.5043,-2.4624,-2.3801,-2.2893,-2.2005,-2.1185,0.0,-1.9964,-1.9917,-1.9869,-1.9787,-1.9548,-1.8425,-1.6197,-1.3458,-1.2406,-0.9778,-0.6645,0.0,0.0,0.0,0.0,0.0,0.0,0.0,0.0,0.0,0.0,0.0,0.0,0.0,0.0,0.0,0.0,0.0,0.0,0.0,0.0,0.0,0.0,-0.971,-0.9807,-0.919,-1.0475,-1.0872,-1.0296,-1.0994,-1.1617,-1.2182,-1.2753,-1.3379,-1.4066,-1.4602,-1.489,-1.4961,-1.4327,-1.4043,-1.3994,-1.3448,-1.3632,-1.4209,0.0,0.0,0.0,0.0,0.0,0.0,0.0,-1.8039,-1.8485,-1.9419,-2.0884,-2.2389,-2.314,-2.4974,-2.6755,-2.6619,-2.756,-2.8084,-2.5985,-2.4856,-2.3691,-2.154,-2.0564,-1.9903,-1.9198,0.0,-1.9087,-1.9087,0.0,-1.9388,-2.0258,0.0,-2.122,-2.2887,-2.384,-2.4592,-2.5289,-2.6944,-2.7576,-2.6374,-2.5965,-2.5671,-2.5412,-2.4903,-2.4689,-2.4861,-2.4741,-2.476,-2.494,-2.4961,-2.4955,-2.4955,-2.4947,-2.4879,-2.4723,-2.4584,-2.4118,-2.3399,-2.2464,-2.1628,-2.0843,-1.9969,-1.9582,-1.9582,-1.9537,-1.9294,-1.8765,-1.6973,-1.4939,-1.2758,-1.0563,-0.8512,-0.6476,0.0,0.0,0.0,0.0,0.0,0.0,0.0,0.0,0.0,0.0,0.0,0.0,0.0,0.0,0.0,0.0,0.0,0.0,0.0,0.0,0.0,0.0,-1.0663,-1.0677,-1.0561,-1.0825,-1.0906,-1.0772,-1.092,-1.0948,-1.0912,-1.1026,-1.1466,-1.2169,-1.228,-1.276,-1.3466,-1.335,-1.33,-1.3334,-1.383,-1.4076,-1.4324,0.0,0.0,0.0,0.0,0.0,0.0,0.0,-1.8297,-1.9154,-2.0016,-2.1005,-2.2025,-2.2838,-2.4485,-2.6208,-2.6847,-2.7178,-2.7158,-2.6156,-2.412,-2.2089,-2.1079,-1.9921,0.0,0.0,0.0,-1.9087,-1.9087,-1.9101,0.0,-2.0261,0.0,0.0,0.0,0.0,-2.5077,0.0,0.0,0.0,0.0,0.0,0.0,0.0,0.0,-2.4284,-2.462,-2.4588,-2.4588,-2.467,-2.4719,-2.4749,-2.4749,-2.4734,-2.4636,-2.4377,-2.3755,-2.3297,-2.2959,-2.1369,-2.0519,-2.0287,-1.9419,0.0,-1.8935,-1.8662,-1.8395,-1.8097,-1.7034,-1.4754,-1.1931,-1.1009,-0.86,-0.5561,0.0,0.0,0.0,0.0,0.0,0.0,0.0,0.0,0.0,0.0,-1.2726,-1.2673,0.0,0.0,0.0,0.0,0.0,0.0,0.0,0.0,0.0,0.0,0.0,0.0,0.0,-1.1333,-1.1595,-1.1319,0.0,-1.1366,-1.1754,-1.1349,-1.1576,-1.2257,-1.2257,-1.2577,-1.3084,-1.2993,-1.3225,-1.3696,-1.4043,-1.4659,0.0,0.0,0.0,0.0,0.0,0.0,0.0,0.0,-1.8566,-1.9086,-1.9654,-2.104,-2.2597,-2.3224,-2.5201,-2.722,-2.7401,-2.8049,-2.8203,-2.626,-2.4299,-2.2461,-2.0929,0.0,0.0,0.0,-1.8806,-1.8932,-1.8932,0.0,0.0,0.0,0.0,0.0,0.0,0.0,0.0,0.0,0.0,0.0,0.0,0.0,0.0,0.0,0.0,-2.3941,-2.4426,-2.4424,-2.4352,-2.4246,-2.4441,-2.4493,-2.4391,-2.4391,-2.4192,-2.3775,-2.303,-2.2609,-2.2421,-2.0787,-2.0029,-1.9938,-1.891,0.0,-1.8276,-1.7731,-1.7334,-1.6987,-1.6145,-1.4134,-1.156,-1.0549,-0.8109,-0.501,0.0,0.0,0.0,0.0,0.0,0.0,0.0,-1.1665,-1.2071,-1.2858,-1.2857,-1.2773,-1.2726,-1.2343,0.0,0.0,0.0,0.0,0.0,0.0,0.0,0.0,0.0,0.0,0.0,0.0,0.0,-1.1881,-1.1716,0.0,0.0,0.0,0.0,0.0,-1.2662,-1.2794,-1.303,-1.2829,-1.3309,0.0,0.0,-1.518,0.0,0.0,0.0,0.0,0.0,0.0,0.0,0.0,-1.849,-1.8586,-1.8847,-2.0772,-2.2962,-2.3168,-2.5592,-2.8134,-2.7877,-2.8941,-2.9414,-2.6556,-2.4717,-2.3038,-2.083,-1.9312,0.0,0.0,-1.8563,-1.8714,-1.8732,0.0,0.0,0.0,0.0,0.0,0.0,0.0,0.0,0.0,0.0,0.0,0.0,0.0,0.0,0.0,0.0,0.0,-2.4019,-2.4042,-2.3947,-2.3749,-2.3986,-2.4061,-2.3903,-2.3903,-2.3678,-2.3206,-2.245,-2.1922,-2.1557,-2.0188,-1.9426,-1.9154,-1.8237,0.0,0.0,-1.6816,-1.6255,-1.5759,-1.4834,-1.3123,-1.0924,-0.931,-0.7048,-0.4414,0.0,0.0,0.0,0.0,0.0,0.0,0.0,-1.1094,-1.1512,-1.2664,-1.2021,-1.1723,-1.2374,-1.2331,0.0,0.0,0.0,0.0,0.0,0.0,0.0,0.0,0.0,0.0,0.0,0.0,0.0,-1.2431,-1.2411,0.0,0.0,0.0,0.0,0.0,0.0,-1.2412,-1.2794,-1.2623,0.0,0.0,0.0,0.0,0.0,0.0,0.0,0.0,0.0,0.0,0.0,0.0,0.0,-1.7713,-1.7759,-1.9883,-2.2258,-2.162,0.0,0.0,-2.7824,-2.8941,-2.955,-2.7182,-2.5014,-2.2829,-2.0568,0.0,0.0,-1.8044,-1.8249,-1.8463,-1.8522,-1.8544,-1.8598,0.0,0.0,-1.8933,0.0,0.0,0.0,0.0,0.0,0.0,0.0,0.0,0.0,0.0,0.0,0.0,-2.3212,-2.3206,-2.3194,-2.3171,-2.3264,-2.3305,-2.3282,-2.3282,-2.3159,-2.2925,-2.2139,-2.1132,-1.9976,-1.9183,-1.8226,-1.7257,-1.7158,0.0,0.0,-1.5884,-1.5286,-1.4539,-1.329,-1.1496,-0.9334,-0.7069,-0.5193,-0.3423,0.0,0.0,0.0,0.0,0.0,0.0,0.0,-1.093,-1.1352,-1.2156,-1.2029,-1.1785,-1.1584,-1.1255,-1.0949,0.0,0.0,0.0,0.0,0.0,0.0,0.0,0.0,0.0,0.0,0.0,0.0,-1.2086,-1.1924,0.0,0.0,0.0,0.0,0.0,0.0,-1.2291,-1.2604,0.0,0.0,0.0,0.0,0.0,0.0,0.0,0.0,0.0,0.0,0.0,0.0,0.0,0.0,0.0,-1.7025,-1.8382,0.0,0.0,-2.3334,-2.5949,-2.6826,-2.7837,-2.819,-2.6371,-2.425,-2.2147,-2.0293,0.0,-1.7755,-1.7755,-1.7971,-1.8176,-1.818,-1.8304,-1.8388,-1.8426,0.0,0.0,0.0,0.0,0.0,0.0,0.0,0.0,0.0,0.0,0.0,0.0,0.0,0.0,-2.2615,-2.2933,-2.3021,-2.2873,-2.3069,-2.3135,-2.3025,-2.2754,-2.2451,-2.2175,-2.115,-2.0052,-1.8925,-1.8205,-1.738,-1.6544,-1.6208,0.0,0.0,-1.4429,-1.3664,-1.2874,-1.1592,-1.0031,-0.8222,-0.6097,-0.42,-0.2286,0.0,0.0,0.0,0.0,0.0,0.0,-1.031,-1.0638,-1.0954,-1.142,-1.1593,-1.1436,-1.079,-1.0072,-0.9621,-0.9622,0.0,0.0,0.0,0.0,0.0,0.0,0.0,0.0,0.0,0.0,0.0,-1.1593,-1.1566,-1.1634,0.0,0.0,-1.1976,-1.1882,0.0,0.0,0.0,0.0,0.0,0.0,0.0,0.0,0.0,0.0,0.0,0.0,0.0,0.0,0.0,0.0,0.0,0.0,0.0,0.0,0.0,0.0,-2.1933,-2.4284,-2.5311,-2.6454,-2.6925,-2.5195,-2.3402,-2.1642,0.0,0.0,-1.7566,-1.7566,-1.7721,-1.7873,-1.7878,-1.7992,-1.8103,-1.8163,0.0,-1.8184,0.0,0.0,0.0,0.0,0.0,0.0,0.0,0.0,0.0,0.0,0.0,0.0,-2.202,-2.2324,-2.2478,-2.2361,-2.2504,-2.2504,-2.2341,-2.2029,-2.1665,-2.1303,-2.0408,-1.9324,-1.8084,-1.748,-1.673,-1.5834,-1.5242,0.0,0.0,-1.3053,-1.2118,-1.1222,-0.9983,-0.8511,-0.6824,-0.4718,-0.2791,-0.0812,0.0,0.0,0.0,0.0,0.0,0.0,0.0,-1.0003,-1.0131,-1.0473,-1.0469,-1.0338,-1.013,-0.8973,-0.8252,-0.8304,0.0,0.0,0.0,0.0,0.0,0.0,0.0,0.0,0.0,0.0,0.0,-1.1108,-1.1654,-1.164,-1.1123,-1.1654,-1.1735,-1.1423,0.0,0.0,0.0,0.0,0.0,0.0,0.0,0.0,0.0,0.0,0.0,0.0,0.0,0.0,0.0,0.0,0.0,0.0,0.0,0.0,-1.6753,0.0,-2.0274,-2.3234,-2.3251,-2.4827,-2.5984,-2.3768,-2.266,-2.1507,0.0,0.0,-1.7512,-1.7512,-1.7512,-1.7536,-1.7589,-1.7612,-1.7612,-1.7612,-1.7612,0.0,0.0,0.0,0.0,0.0,0.0,0.0,0.0,0.0,0.0,0.0,0.0,0.0,-2.1308,-2.1181,-2.1259,-2.1612,-2.129,-2.107,-2.1023,-2.1023,-2.0797,-2.0423,-2.0114,-1.9108,-1.7418,-1.7137,-1.6249,-1.4876,0.0,0.0,0.0,-1.1893,-1.0872,-0.9635,-0.8528,-0.6921,-0.4956,-0.2583,-0.067,0.1096,0.0,0.0,0.0,0.0,0.0,0.0,0.0,-0.88,-0.8844,-0.8918,-0.9135,-0.9248,-0.908,-0.8641,-0.8193,-0.7859,0.0,0.0,0.0,0.0,0.0,0.0,0.0,0.0,0.0,0.0,0.0,-1.1186,-1.1348,-1.1708,-1.2257,-1.1955,-1.1872,-1.1933,-1.152,0.0,0.0,0.0,0.0,0.0,0.0,0.0,0.0,0.0,0.0,0.0,0.0,0.0,0.0,0.0,0.0,0.0,0.0,0.0,0.0,-1.6841,-1.8508,-2.0375,-2.088,-2.153,-2.1888,-2.1111,-2.001,-1.8912,-1.8178,0.0,-1.6866,-1.6866,-1.7018,-1.7167,-1.7191,-1.7191,-1.7216,-1.7248,-1.7101,0.0,0.0,0.0,0.0,0.0,0.0,0.0,0.0,0.0,0.0,0.0,0.0,0.0,-2.1086,-2.0829,-2.0846,-2.1228,-2.083,-2.0619,-2.0602,-1.9997,-1.9647,-1.951,-1.8667,-1.7497,-1.6,-1.5469,-1.4587,0.0,0.0,0.0,0.0,-1.0374,-0.9449,-0.8545,-0.7328,-0.6064,-0.4542,-0.2137,-0.0433,0.1001,0.0,0.0,0.0,0.0,0.0,0.0,0.0,-0.8244,-0.8205,-0.8062,-0.8393,-0.8523,-0.8308,-0.8154,-0.7926,-0.7554,0.0,0.0,0.0,0.0,0.0,0.0,0.0,0.0,0.0,0.0,0.0,-1.0663,-1.1088,-1.1568,-1.2115,-1.2128,-1.2075,-1.2035,-1.1766,0.0,0.0,0.0,0.0,0.0,0.0,0.0,-1.6176,0.0,0.0,0.0,0.0,0.0,0.0,0.0,0.0,0.0,0.0,0.0,0.0,0.0,-1.6974,-1.7959,0.0,-1.9329,-1.9473,-1.9158,-1.8397,0.0,0.0,0.0,-1.6596,-1.6554,-1.6686,-1.6799,-1.6799,-1.6799,-1.6825,-1.6901,-1.6773,0.0,0.0,0.0,0.0,0.0,0.0,0.0,0.0,0.0,0.0,0.0,0.0,0.0,-2.0382,-1.9954,-1.9869,-2.015,-2.0012,-1.9752,-1.9355,-1.8804,-1.8338,-1.797,-1.7012,-1.5951,-1.4811,-1.4126,-1.3353,0.0,0.0,0.0,0.0,-0.9143,-0.809,-0.7196,-0.6089,-0.4772,-0.3181,-0.1045,0.0493,0.1788,0.0,0.0,0.0,0.0,0.0,0.0,0.0,0.0,0.0,0.0,-0.8052,-0.8138,-0.7821,-0.7637,-0.7493,0.0,0.0,0.0,0.0,0.0,0.0,0.0,0.0,0.0,0.0,-0.7517,-0.837,-0.9812,-1.0833,-1.1253,-1.1109,-1.2099,-1.2298,-1.1879,-1.2099,0.0,0.0,0.0,0.0,0.0,0.0,0.0,0.0,0.0,0.0,0.0,0.0,0.0,0.0,0.0,0.0,0.0,0.0,0.0,0.0,0.0,0.0,0.0,0.0,-1.8026,0.0,0.0,0.0,0.0,0.0,0.0,0.0,-1.6448,-1.6432,-1.6474,-1.6474,-1.6474,-1.6474,-1.6528,0.0,0.0,0.0,0.0,0.0,0.0,0.0,0.0,0.0,0.0,0.0,0.0,0.0,0.0,-1.92,-1.8598,-1.8278,-1.8355,-1.8711,-1.8444,-1.7581,-1.7446,-1.6918,-1.5995,-1.5246,-1.4471,-1.3766,-1.3044,-1.2449,0.0,0.0,0.0,0.0,-0.8105,-0.6826,-0.5631,-0.4765,-0.3212,-0.118,0.0442,0.1888,0.3258,0.0,0.0,0.0,0.0,0.0,0.0,0.0,0.0,0.0,0.0,0.0,-0.7811,-0.7744,-0.7903,0.0,0.0,0.0,0.0,0.0,0.0,0.0,0.0,0.0,0.0,0.0,-0.7293,-0.8143,-0.9793,-1.0405,-1.1113,-1.1908,-1.2073,-1.2336,-1.2635,-1.2229,0.0,0.0,0.0,0.0,0.0,0.0,0.0,0.0,0.0,0.0,0.0,-1.5536,-1.5624,0.0,0.0,0.0,0.0,0.0,0.0,0.0,0.0,-1.558,-1.5492,-1.5122,0.0,-1.6466,-1.6285,-1.6239,0.0,0.0,0.0,0.0,0.0,0.0,0.0,0.0,0.0,0.0,0.0,0.0,0.0,0.0,0.0,0.0,0.0,0.0,0.0,0.0,0.0,0.0,0.0,0.0,-1.7805,-1.7291,-1.6806,-1.639,-1.6104,-1.5875,-1.6179,-1.7035,-1.5892,-1.5205,-1.5025,-1.4021,-1.3233,-1.2635,-1.1964,-1.1234,0.0,0.0,-0.8778,-0.7781,-0.6681,-0.5765,-0.4904,-0.3409,-0.223,-0.1135,0.1023,0.2563,0.3824,0.0,0.0,0.0,0.0,0.0,0.0,0.0,0.0,0.0,0.0,0.0,0.0,0.0,0.0,0.0,0.0,0.0,0.0,0.0,0.0,0.0,0.0,0.0,0.0,0.0,0.0,-0.8099,-0.9597,-1.0278,-1.1072,-1.2021,0.0,0.0,0.0,0.0,0.0,0.0,0.0,0.0,0.0,-1.5088,0.0,0.0,0.0,0.0,0.0,-1.5013,-1.5013,0.0,-1.5043,-1.5043,-1.5043,0.0,0.0,0.0,0.0,-1.5043,-1.4927,-1.4479,-1.4875,-1.5345,-1.4936,-1.4834,-1.4877,0.0,0.0,0.0,0.0,0.0,0.0,0.0,0.0,0.0,0.0,0.0,0.0,0.0,0.0,0.0,0.0,0.0,0.0,0.0,0.0,0.0,0.0,0.0,-1.6386,-1.601,-1.5382,-1.493,-1.4776,-1.4169,-1.4426,-1.5533,-1.4462,-1.3804,-1.3529,-1.2519,-1.1768,-1.1217,-1.0594,-1.0001,0.0,0.0,-0.7811,-0.7058,-0.5615,-0.4635,-0.3891,-0.2352,-0.1156,-0.0134,0.1715,0.3021,0.4174,0.0,0.0,0.0,0.0,0.0,0.0,0.0,0.0,0.0,0.0,0.0,0.0,0.0,0.0,0.0,0.0,0.0,0.0,0.0,0.0,0.0,0.0,0.0,0.0,0.0,0.0,0.0,0.0,0.0,0.0,0.0,0.0,-1.3002,0.0,0.0,0.0,0.0,0.0,0.0,0.0,-1.4606,0.0,0.0,0.0,0.0,0.0,0.0,0.0,0.0,-1.4483,-1.4483,-1.4483,-1.4483,0.0,0.0,0.0,0.0,0.0,-1.4296,-1.4526,-1.4612,-1.3875,-1.3762,-1.3912,0.0,0.0,0.0,0.0,0.0,0.0,0.0,0.0,0.0,0.0,0.0,0.0,0.0,0.0,0.0,0.0,0.0,0.0,0.0,0.0,0.0,0.0,0.0,-1.5016,-1.4938,-1.4053,-1.3607,-1.3698,-1.2977,-1.286,-1.342,-1.3031,-1.2533,-1.1944,-1.1023,-1.0349,-0.9876,-0.9257,-0.8876,-0.8691,0.0,0.0,-0.6476,-0.4669,-0.3585,-0.2879,-0.1467,-0.0133,0.1163,0.237,0.3457,0.4597,0.0,0.0,0.0,0.0,0.0,0.0,0.0,0.0,0.0,0.0,0.0,0.0,0.0,0.0,0.0,0.0,0.0,0.0,0.0,0.0,0.0,0.0,0.0,0.0,0.0,0.0,0.0,0.0,0.0,0.0,-1.0966,-1.186,-1.2602,-1.3175,0.0,0.0,0.0,0.0,0.0,0.0,0.0,0.0,0.0,0.0,0.0,0.0,0.0,0.0,0.0,-1.4319,-1.4319,-1.4319,-1.4319,0.0,0.0,0.0,0.0,0.0,-1.3369,-1.3466,-1.3788,-1.3725,-1.4051,-1.4253,0.0,0.0,0.0,0.0,0.0,0.0,0.0,0.0,0.0,0.0,0.0,0.0,0.0,0.0,0.0,0.0,0.0,0.0,0.0,0.0,0.0,0.0,0.0,-1.3802,-1.3201,-1.2394,-1.1949,-1.1886,-1.1454,-1.1219,-1.1297,-1.1157,-1.0999,-1.0818,-0.9972,-0.9469,-0.9319,-0.8706,-0.809,-0.7536,0.0,-0.57,-0.473,-0.3632,-0.2799,-0.2051,-0.058,0.0624,0.165,0.284,0.4281,0.5878,0.0,0.0,0.0,0.0,0.0,0.0,0.0,0.0,0.0,0.0,0.0,0.0,0.0,0.0,0.0,0.0,0.0,0.0,0.0,0.0,0.0,0.0,0.0,0.0,0.0,0.0,0.0,0.0,0.0,-1.0428,-1.1104,-1.189,-1.2544,-1.3047,0.0,0.0,0.0,0.0,0.0,0.0,0.0,0.0,0.0,0.0,0.0,0.0,0.0,0.0,0.0,0.0,-1.3547,-1.3547,-1.3547,0.0,0.0,0.0,0.0,0.0,-1.2628,-1.269,-1.2773,-1.2498,-1.2803,-1.3168,0.0,0.0,0.0,0.0,0.0,0.0,0.0,0.0,0.0,0.0,0.0,0.0,0.0,0.0,0.0,0.0,0.0,0.0,0.0,0.0,0.0,0.0,0.0,0.0,-1.2113,-1.1282,-1.0791,-1.0725,-1.0273,-1.0007,-0.9953,-0.9572,-0.9502,-0.9733,-0.8807,-0.8195,-0.7848,-0.7238,-0.6735,-0.6362,0.0,-0.4813,-0.3811,-0.2711,-0.1827,-0.1028,0.0223,0.1251,0.2284,0.3947,0.561,0.7238,0.0,0.0,0.0,0.0,0.0,0.0,0.0,0.0,0.0,0.0,0.0,0.0,0.0,0.0,0.0,0.0,0.0,0.0,0.0,0.0,0.0,0.0,0.0,0.0,0.0,0.0,-0.9171,-1.0272,-1.0389,-1.0773,-1.1431,-1.1993,-1.2473,-1.2896,0.0,0.0,0.0,-1.2896,0.0,0.0,0.0,0.0,0.0,0.0,0.0,0.0,0.0,0.0,0.0,0.0,0.0,0.0,0.0,0.0,0.0,-1.2896,-1.266,-1.2349,-1.2238,-1.2168,-1.2058,-1.1596,0.0,0.0,0.0,0.0,0.0,0.0,0.0,0.0,0.0,0.0,0.0,0.0,0.0,0.0,0.0,0.0,0.0,0.0,0.0,0.0,0.0,0.0,0.0,0.0,0.0,0.0,-1.1271,-1.0408,-0.9922,-0.9922,-0.9469,-0.9151,-0.9007,-0.8407,-0.8286,-0.8629,-0.7805,-0.7071,-0.6459,-0.5873,-0.5524,-0.5298,-0.4613,-0.3909,-0.3105,-0.1825,-0.0898,-0.0181,0.0853,0.2022,0.332,0.5223,0.6844,0.8213,0.0,0.0,0.0,0.0,0.0,0.0,0.0,0.0,0.0,0.0,0.0,0.0,0.0,0.0,0.0,0.0,0.0,0.0,0.0,0.0,0.0,0.0,0.0,0.0,0.0,-0.9106,-0.9426,-1.057,-1.0146,-1.0568,-1.1774,-1.1811,-1.221,-1.2896,0.0,0.0,0.0,-1.2873,-1.2873,0.0,0.0,0.0,0.0,0.0,0.0,0.0,0.0,0.0,0.0,0.0,0.0,0.0,0.0,0.0,-1.2896,-1.2896,-1.2871,-1.2736,-1.2337,-1.2123,-1.2,-1.1952,-1.2421,0.0,0.0,0.0,0.0,0.0,0.0,0.0,0.0,0.0,0.0,0.0,0.0,0.0,0.0,0.0,0.0,0.0,0.0,0.0,0.0,0.0,0.0,0.0,0.0,0.0,-1.0588,-0.9806,-0.9359,-0.9359,-0.9213,-0.8884,-0.8366,-0.7818,-0.7585,-0.7607,-0.7014,-0.6459,-0.5851,-0.5303,-0.4831,-0.443,-0.3334,-0.2674,-0.2277,-0.1028,-0.0275,0.0189,0.1315,0.3002,0.5014,0.6635,0.7747,0.8484,0.0,0.0,0.0,0.0,0.0,0.0,0.0,0.0,0.0,0.0,0.0,0.0,0.0,0.0,0.0,0.0,0.0,0.0,0.0,0.0,0.0,0.0,0.0,-0.7832,-0.8716,-0.9139,-0.9751,-1.0582,-1.0336,-1.0702,-1.1627,-1.1282,0.0,0.0,0.0,0.0,0.0,-1.2282,-1.2246,-1.2174,-1.221,0.0,0.0,0.0,0.0,0.0,0.0,0.0,0.0,0.0,-1.2768,-1.2768,-1.2768,-1.2768,-1.2768,-1.2768,-1.2295,-1.1705,-1.1295,-1.1152,-1.0973,-1.049,-1.1194,0.0,0.0,0.0,0.0,0.0,0.0,0.0,0.0,0.0,0.0,0.0,0.0,0.0,0.0,0.0,0.0,0.0,0.0,0.0,0.0,0.0,0.0,0.0,0.0,0.0,-0.9767,-0.9151,-0.8748,-0.8699,-0.8072,-0.7578,-0.7294,-0.6748,-0.6283,-0.5936,-0.5776,-0.5524,-0.5178,-0.4666,-0.4092,-0.3426,-0.294,-0.2184,-0.1208,-0.0184,0.0553,0.1189,0.2718,0.4219,0.5675,0.6654,0.7692,0.8779,0.0,0.0,0.0,0.0,0.0,0.0,0.0,0.0,0.0,0.0,0.0,0.0,0.0,0.0,0.0,0.0,0.0,0.0,0.0,0.0,0.0,0.0,0.0,-0.7858,-0.8528,-0.9262,-0.981,-1.0302,-1.0302,-1.0649,-1.1244,0.0,0.0,0.0,0.0,0.0,0.0,-1.1689,-1.1653,-1.1627,-1.1627,-1.1811,0.0,0.0,0.0,0.0,0.0,0.0,0.0,0.0,-1.2222,-1.2222,-1.2222,-1.2258,-1.2223,-1.2107,-1.1557,-1.0874,-1.0338,-1.0165,-1.0026,0.0,0.0,0.0,0.0,0.0,0.0,0.0,0.0,0.0,0.0,0.0,0.0,0.0,0.0,0.0,0.0,0.0,0.0,0.0,0.0,0.0,0.0,0.0,0.0,0.0,0.0,0.0,0.0,-0.8431,-0.8062,-0.7792,-0.7133,-0.6641,-0.6428,-0.583,-0.5356,-0.4923,-0.47,-0.4443,-0.4228,-0.388,-0.33,-0.2541,-0.2228,-0.1517,-0.0583,0.023,0.1153,0.2197,0.38,0.5098,0.6211,0.7012,0.7988,0.904,0.0,0.0,0.0,0.0,0.0,0.0,0.0,0.0,0.0,0.0,0.0,0.0,0.0,0.0,0.0,0.0,0.0,0.0,0.0,0.0,0.0,0.0,0.0,-0.8467,-0.9262,-0.9509,-0.9619,-0.9619,-0.9952,-1.0302,-1.0715,-1.0611,0.0,0.0,0.0,0.0,0.0,-1.118,-1.118,-1.118,-1.118,-1.118,-1.1217,0.0,0.0,0.0,0.0,0.0,0.0,0.0,-1.1217,-1.1217,-1.1217,-1.1244,-1.1222,-1.0829,-1.0688,-1.0471,-0.9536,-0.9305,-0.9364,0.0,0.0,0.0,0.0,0.0,0.0,0.0,0.0,0.0,0.0,0.0,0.0,0.0,0.0,0.0,0.0,0.0,0.0,0.0,0.0,0.0,0.0,0.0,0.0,0.0,0.0,0.0,0.0,-0.7614,-0.7196,-0.6725,-0.6562,-0.6264,-0.5787,-0.527,-0.4927,-0.4757,-0.3825,-0.3252,-0.299,-0.2943,-0.2497,-0.1739,-0.1028,-0.0626,-0.0447,0.0225,0.1515,0.317,0.4386,0.5601,0.6756,0.7868,0.8659,0.9368,0.0,0.0,0.0,0.0,0.0,0.0,0.0,0.0,0.0,0.0,0.0,0.0,0.0,0.0,0.0,0.0,0.0,0.0,0.0,0.0,0.0,0.0,0.0,0.0,0.0,0.0,-0.9558,-0.9952,-1.001,-1.0244,0.0,0.0,0.0,-1.118,0.0,0.0,-1.0649,-1.0649,-1.0611,-1.0582,-1.0582,-1.0764,-1.1057,0.0,0.0,0.0,0.0,0.0,0.0,0.0,0.0,0.0,-1.1217,-1.103,-1.0777,-1.0672,-1.0155,-0.953,-0.9025,-0.9056,0.0,0.0,0.0,0.0,0.0,0.0,0.0,0.0,0.0,0.0,0.0,0.0,0.0,0.0,0.0,0.0,0.0,0.0,0.0,0.0,0.0,0.0,0.0,0.0,0.0,0.0,0.0,0.0,0.0,-0.6979,-0.6641,-0.6087,-0.5701,-0.5361,-0.5101,-0.4626,-0.4096,-0.3517,-0.3208,-0.2987,-0.2898,-0.2499,-0.1921,-0.1163,-0.0716,-0.0269,0.0315,0.1661,0.3101,0.4524,0.5092,0.6091,0.7289,0.7735,0.8613,0.9718,0.0,0.0,0.0,0.0,0.0,0.0,0.0,0.0,0.0,0.0,-0.5897,0.0,0.0,0.0,0.0,0.0,0.0,0.0,0.0,0.0,0.0,0.0,0.0,0.0,0.0,-0.9243,-0.9646,0.0,0.0,0.0,0.0,0.0,-1.0059,-1.0582,0.0,-1.0127,0.0,-1.0088,-1.001,-0.9961,-0.9791,-1.0002,-1.0399,0.0,0.0,0.0,0.0,0.0,0.0,0.0,0.0,0.0,-1.0409,-1.024,-0.9991,-0.9678,-0.9176,-0.8643,-0.8288,0.0,0.0,0.0,0.0,0.0,0.0,0.0,0.0,0.0,0.0,0.0,0.0,0.0,0.0,0.0,0.0,0.0,0.0,0.0,0.0,0.0,0.0,0.0,0.0,0.0,0.0,0.0,0.0,0.0,0.0,-0.6343,-0.5959,-0.5404,-0.5058,-0.4753,-0.4451,-0.3924,-0.3435,-0.2943,-0.2455,-0.2142,-0.2008,-0.1741,-0.1207,-0.0493,0.0045,0.0627,0.1303,0.266,0.3834,0.4872,0.5229,0.6271,0.7593,0.7757,0.8671,0.9917,0.0,0.0,0.0,0.0,0.0,0.0,0.0,0.0,0.0,0.0,-0.6114,-0.6402,0.0,0.0,0.0,0.0,0.0,0.0,0.0,0.0,0.0,-0.781,0.0,0.0,0.0,0.0,0.0,0.0,0.0,0.0,0.0,0.0,-0.9683,-0.9683,0.0,-0.9683,-0.9634,-0.9515,-0.9475,-0.9448,-0.907,-0.9142,-0.9478,-0.9214,0.0,0.0,0.0,0.0,0.0,0.0,0.0,0.0,-0.9207,-0.9069,-0.8928,-0.8201,-0.7927,-0.7784,-0.7453,0.0,0.0,0.0,0.0,0.0,0.0,0.0,0.0,0.0,0.0,0.0,0.0,0.0,0.0,0.0,0.0,0.0,0.0,0.0,0.0,0.0,0.0,0.0,0.0,0.0,0.0,0.0,0.0,0.0,0.0,-0.5701,-0.5188,-0.4714,-0.453,-0.4224,-0.3792,-0.3211,-0.2854,-0.2721,-0.1654,-0.0985,-0.0627,-0.0761,-0.0493,0.018,0.1075,0.1834,0.2464,0.3355,0.4013,0.4538,0.5054,0.6299,0.7811,0.8025,0.8873,1.002,0.0,0.0,0.0,0.0,0.0,0.0,0.0,0.0,0.0,0.0,0.0,0.0,0.0,0.0,0.0,0.0,0.0,0.0,0.0,0.0,0.0,-0.8546,-0.9232,-0.9576,-0.9634,0.0,0.0,0.0,0.0,0.0,0.0,0.0,0.0,-0.9524,0.0,-0.9368,-0.9368,-0.9368,-0.9328,-0.9319,-0.9231,-0.9248,-0.9319,-0.927,-0.9138,0.0,0.0,0.0,0.0,0.0,0.0,0.0,-0.8975,-0.8468,-0.7945,-0.7872,-0.74,-0.6919,0.0,-0.6969,0.0,0.0,0.0,0.0,0.0,0.0,0.0,0.0,0.0,0.0,0.0,0.0,0.0,0.0,0.0,0.0,0.0,0.0,0.0,0.0,0.0,0.0,0.0,0.0,0.0,0.0,0.0,0.0,-0.5145,-0.4923,-0.453,-0.3961,-0.3565,-0.3208,-0.294,-0.2453,-0.1964,-0.1475,-0.1029,-0.0583,-0.0135,-0.018,0.0269,0.112,0.1834,0.2499,0.3217,0.3589,0.4322,0.5213,0.5722,0.6883,0.836,0.8607,0.9537,1.071,0.0,0.0,0.0,0.0,0.0,0.0,0.0,0.0,0.0,0.0,0.0,0.0,0.0,0.0,0.0,0.0,0.0,0.0,0.0,0.0,0.0,0.0,-0.9515,-0.9634,-0.9603,-0.9545,-0.9457,0.0,0.0,0.0,0.0,0.0,0.0,-0.9484,0.0,-0.9199,-0.8999,-0.8958,-0.8797,-0.8569,-0.8358,-0.843,-0.8553,-0.8318,-0.8169,-0.8166,-0.8166,0.0,0.0,0.0,0.0,0.0,0.0,0.0,-0.709,-0.6979,-0.6653,-0.6374,0.0,0.0,0.0,0.0,0.0,0.0,0.0,0.0,0.0,0.0,0.0,0.0,0.0,0.0,0.0,0.0,0.0,0.0,0.0,0.0,0.0,0.0,0.0,0.0,0.0,0.0,0.0,0.0,0.0,-0.4971,-0.4709,-0.4355,-0.3913,-0.3341,-0.3031,-0.2674,-0.2273,-0.1741,-0.1297,-0.0985,-0.0493,0.0045,0.0628,0.0628,0.1031,0.1789,0.2457,0.3123,0.3748,0.4017,0.4554,0.5241,0.5867,0.7037,0.833,0.8827,0.9745,1.0777,0.0,0.0,0.0,0.0,0.0,0.0,0.0,0.0,0.0,0.0,0.0,0.0,0.0,0.0,0.0,0.0,0.0,0.0,0.0,0.0,0.0,0.0,-0.9594,-0.9475,-0.9475,-0.9368,-0.9279,0.0,0.0,0.0,0.0,0.0,0.0,-0.9315,0.0,-0.8918,-0.8513,-0.839,-0.8144,-0.775,-0.743,-0.7488,-0.7747,-0.7258,0.0,-0.7409,-0.7395,-0.7372,-0.7455,-0.7649,0.0,0.0,0.0,0.0,-0.6405,-0.6105,-0.5983,-0.5975,0.0,0.0,0.0,0.0,0.0,0.0,0.0,0.0,0.0,0.0,0.0,0.0,0.0,0.0,0.0,0.0,0.0,0.0,0.0,0.0,0.0,0.0,0.0,0.0,0.0,0.0,0.0,0.0,0.0,-0.4399,-0.4308,-0.3785,-0.3255,-0.2721,-0.2497,-0.214,-0.1607,-0.1029,-0.0716,-0.0716,0.0045,0.0763,0.1432,0.1566,0.1834,0.2322,0.3034,0.3615,0.4152,0.4412,0.4723,0.518,0.5949,0.7036,0.8257,0.8897,0.9749,1.0624,0.0,0.0,0.0,0.0,0.0,0.0,0.0,0.0,0.0,0.0,-0.7747,0.0,0.0,0.0,0.0,0.0,0.0,0.0,0.0,0.0,0.0,0.0,-0.9524,-0.9426,-0.9328,-0.9319,-0.9288,0.0,0.0,0.0,0.0,0.0,0.0,-0.8643,0.0,0.0,-0.7848,-0.7807,-0.7765,-0.7716,-0.7672,-0.768,-0.7687,0.0,0.0,0.0,0.0,-0.6525,-0.671,-0.6491,-0.6612,0.0,0.0,0.0,-0.5926,-0.5974,-0.5765,-0.5508,0.0,0.0,0.0,0.0,0.0,0.0,0.0,0.0,0.0,0.0,0.0,0.0,0.0,0.0,0.0,0.0,0.0,0.0,0.0,0.0,0.0,0.0,0.0,0.0,0.0,0.0,0.0,0.0,-0.41,-0.3571,-0.3252,-0.2857,-0.2457,-0.1964,-0.1429,-0.1029,-0.085,-0.0269,0.0045,0.0045,0.0807,0.1432,0.201,0.2544,0.2857,0.3081,0.3568,0.3968,0.4276,0.4456,0.5029,0.5912,0.6294,0.7473,0.8971,0.9237,0.9987,1.0871,0.0,0.0,0.0,0.0,0.0,0.0,0.0,0.0,0.0,0.0,0.0,-0.8301,0.0,0.0,0.0,0.0,0.0,0.0,0.0,0.0,0.0,0.0,0.0,-0.9306,-0.9248,-0.9168,0.0,0.0,0.0,0.0,0.0,-0.9056,-0.8947,0.0,0.0,0.0,0.0,0.0,-0.7189,-0.6992,-0.6992,-0.6943,0.0,0.0,0.0,0.0,0.0,0.0,0.0,-0.5739,-0.5863,-0.5985,-0.5999,0.0,0.0,0.0,-0.5584,0.0,0.0,0.0,0.0,0.0,0.0,0.0,0.0,0.0,0.0,0.0,0.0,0.0,0.0,0.0,0.0,0.0,0.0,0.0,0.0,0.0,0.0,0.0,0.0,0.0,0.0,0.0,0.0,0.0,-0.3435,-0.3034,-0.2851,-0.2364,-0.1876,-0.1295,-0.1029,-0.0672,-0.0179,0.009,0.0404,0.0897,0.1787,0.2366,0.2724,0.3255,0.3391,0.3214,0.3796,0.4276,0.4705,0.4884,0.5351,0.6105,0.7065,0.799,0.8801,0.9609,1.025,1.0718,0.0,0.0,0.0,0.0,0.0,0.0,0.0,0.0,0.0,0.0,0.0,0.0,0.0,0.0,0.0,0.0,0.0,0.0,0.0,0.0,0.0,0.0,0.0,0.0,-0.9145,0.0,0.0,0.0,0.0,0.0,-0.8915,-0.8752,-0.8614,0.0,-0.8272,0.0,0.0,0.0,0.0,0.0,0.0,0.0,0.0,0.0,0.0,0.0,0.0,0.0,0.0,0.0,0.0,0.0,0.0,-0.5192,0.0,0.0,0.0,0.0,0.0,0.0,0.0,0.0,0.0,0.0,0.0,0.0,0.0,0.0,0.0,0.0,0.0,0.0,0.0,0.0,0.0,0.0,0.0,0.0,0.0,0.0,0.0,0.0,0.0,0.0,0.0,0.0,-0.2857,-0.2497,-0.2319,-0.1784,-0.1206,-0.0672,-0.0627,-0.0269,0.0404,0.0583,0.1031,0.1834,0.2588,0.3078,0.3391,0.3792,0.3792,0.3524,0.3972,0.4495,0.5091,0.5265,0.569,0.6331,0.7553,0.8233,0.8707,0.9614,1.019,1.0506,0.0,0.0,0.0,0.0,0.0,0.0,0.0,0.0,0.0,0.0,0.0,0.0,0.0,0.0,0.0,-0.9524,0.0,0.0,0.0,0.0,0.0,0.0,0.0,0.0,0.0,0.0,0.0,0.0,0.0,0.0,-0.8712,-0.8391,-0.7915,-0.7282,-0.7321,-0.6944,-0.6227,0.0,0.0,0.0,0.0,0.0,0.0,0.0,0.0,0.0,0.0,0.0,0.0,0.0,0.0,0.0,0.0,0.0,0.0,0.0,0.0,0.0,0.0,0.0,0.0,0.0,0.0,0.0,0.0,0.0,0.0,0.0,0.0,0.0,0.0,0.0,0.0,0.0,0.0,0.0,0.0,0.0,0.0,0.0,0.0,0.0,0.0,0.0,0.0,0.0,-0.2413,-0.1966,-0.1208,-0.0805,-0.0403,-0.0045,0.018,0.0584,0.103,0.1609,0.2233,0.2901,0.2987,0.33,0.3884,0.402,0.4148,0.4228,0.4276,0.4661,0.5303,0.5443,0.6039,0.6888,0.7272,0.8092,0.9059,0.8999,0.9612,1.0466,0.0,0.0,0.0,0.0,0.0,0.0,0.0,0.0,0.0,0.0,0.0,0.0,0.0,-0.9457,-0.9417,-0.9377,-0.9377,0.0,0.0,0.0,0.0,0.0,0.0,0.0,0.0,0.0,0.0,0.0,0.0,-0.8263,-0.8169,-0.7688,-0.7291,-0.6879,-0.6922,-0.6613,-0.6062,-0.6019,0.0,0.0,0.0,0.0,0.0,0.0,0.0,0.0,0.0,0.0,0.0,0.0,0.0,0.0,0.0,0.0,0.0,0.0,0.0,0.0,0.0,0.0,0.0,0.0,0.0,0.0,0.0,0.0,0.0,0.0,0.0,0.0,0.0,0.0,0.0,0.0,0.0,0.0,0.0,0.0,0.0,0.0,0.0,0.0,0.0,0.0,0.0,0.0,0.0,-0.1252,-0.0851,-0.0359,0.0045,0.027,0.0628,0.1119,0.1743,0.2322,0.2854,0.3252,0.3568,0.388,0.4144,0.428,0.4412,0.453,0.4879,0.5313,0.5776,0.6204,0.6761,0.7328,0.7845,0.8334,0.8851,0.926,0.9843,1.0426,0.0,0.0,0.0,0.0,0.0,0.0,0.0,0.0,0.0,0.0,0.0,0.0,0.0,0.0,-0.9279,-0.9288,-0.9248,-0.9168,-0.9136,-0.9056,0.0,0.0,0.0,0.0,0.0,0.0,0.0,0.0,0.0,0.0,0.0,-0.7048,-0.6687,-0.6349,-0.6349,-0.6227,0.0,0.0,0.0,-0.5895,0.0,0.0,-0.5038,0.0,0.0,0.0,0.0,0.0,0.0,0.0,0.0,0.0,0.0,0.0,0.0,0.0,0.0,0.0,0.0,0.0,0.0,0.0,0.0,0.0,0.0,0.0,0.0,0.0,0.0,0.0,0.0,0.0,0.0,0.0,0.0,0.0,0.0,0.0,0.0,0.0,0.0,0.0,0.0,0.0,0.0,0.0,0.0,0.0,-0.0403,0.0045,0.0404,0.0718,0.1208,0.1743,0.241,0.2943,0.3388,0.3653,0.3972,0.4192,0.4364,0.4583,0.4757,0.4923,0.5653,0.6039,0.6161,0.6713,0.7189,0.7635,0.8067,0.8465,0.8843,0.9268,0.9803,1.0417,0.0,0.0,0.0,0.0,0.0,0.0,0.0,0.0,0.0,0.0,0.0,0.0,0.0,0.0,0.0,-0.9212,-0.909,-0.9009,-0.9009,-0.8839,0.0,0.0,0.0,0.0,0.0,0.0,0.0,0.0,0.0,0.0,0.0,0.0,-0.6184,-0.568,-0.568,-0.5712,-0.5793,0.0,-0.568,-0.568,0.0,-0.5005,-0.4923,0.0,0.0,0.0,-0.3806,-0.358,0.0,0.0,0.0,0.0,0.0,0.0,0.0,0.0,0.0,0.0,0.0,0.0,0.0,0.0,0.0,0.0,-0.2508,0.0,0.0,0.0,0.0,0.0,0.0,0.0,0.0,0.0,0.0,0.0,0.0,0.0,0.0,0.0,0.0,0.0,0.0,0.0,0.0,0.0,-0.0671,-0.0403,0.018,0.036,0.0718,0.1389,0.1876,0.241,0.3034,0.3476,0.3836,0.4108,0.4108,0.424,0.4504,0.4932,0.5275,0.5534,0.6507,0.667,0.6374,0.681,0.728,0.7712,0.7953,0.8448,0.909,0.896,0.9581,1.0501,0.0,0.0,0.0,0.0,0.0,0.0,0.0,0.0,0.0,0.0,0.0,0.0,0.0,0.0,0.0,-0.9274,-0.9254,-0.9209,-0.9209,-0.9164,-0.9009,-0.8797,-0.8704,0.0,0.0,0.0,0.0,0.0,0.0,0.0,0.0,0.0,0.0,0.0,-0.568,-0.5723,-0.5717,-0.5723,0.0,0.0,-0.5183,-0.4792,0.0,0.0,0.0,0.0,0.0,-0.2697,-0.246,0.0,-0.2484,-0.2508,0.0,0.0,0.0,0.0,0.0,0.0,-0.2634,0.0,0.0,0.0,0.0,0.0,-0.2438,-0.2763,-0.3023,0.0,0.0,0.0,0.0,0.0,0.0,0.0,0.0,0.0,0.0,0.0,0.0,0.0,0.0,0.0,0.0,0.0,0.0,0.0,-0.0224,0.009,0.0405,0.0942,0.1523,0.2012,0.2591,0.317,0.3796,0.3928,0.406,0.4232,0.4324,0.4416,0.4499,0.5106,0.5448,0.5534,0.6556,0.6894,0.6846,0.7321,0.7621,0.79,0.826,0.8596,0.8894,0.9439,0.9915,1.0385,0.0,0.0,0.0,0.0,0.0,0.0,0.0,0.0,0.0,0.0,0.0,0.0,0.0,0.0,0.0,-0.9306,-0.9275,-0.9229,-0.9082,-0.8989,-0.876,-0.8339,-0.8242,-0.7968,0.0,0.0,0.0,0.0,0.0,0.0,0.0,0.0,0.0,0.0,0.0,0.0,0.0,0.0,0.0,0.0,-0.4923,0.0,0.0,-0.3432,-0.287,0.0,0.0,0.0,-0.2226,-0.2192,-0.2216,0.0,0.0,0.0,0.0,0.0,0.0,0.0,0.0,0.0,0.0,0.0,0.0,0.0,-0.2377,-0.2612,-0.286,0.0,0.0,0.0,0.0,0.0,0.0,0.0,0.0,0.0,0.0,0.0,0.0,0.0,0.0,0.0,0.0,-0.0805,-0.0492,-0.0224,0.009,0.0449,0.0853,0.1523,0.2148,0.2679,0.3037,0.3483,0.4108,0.4108,0.4196,0.4364,0.4456,0.4631,0.4932,0.5534,0.5922,0.6173,0.6943,0.7398,0.7588,0.7721,0.7918,0.816,0.8712,0.9019,0.9228,0.9723,1.0116,1.0425,0.0,0.0,0.0,0.0,0.0,0.0,0.0,0.0,0.0,0.0,0.0,0.0,0.0,0.0,0.0,0.0,-0.9299,-0.9103,-0.8765,-0.8521,0.0,0.0,-0.7573,-0.7417,-0.7338,-0.7102,-0.6823,0.0,-0.6244,0.0,0.0,0.0,0.0,0.0,0.0,0.0,0.0,0.0,0.0,-0.5458,-0.4443,-0.4016,0.0,0.0,-0.241,0.0,-0.2461,-0.2413,-0.231,-0.2275,-0.229,0.0,0.0,0.0,0.0,0.0,-0.2349,0.0,0.0,0.0,0.0,0.0,0.0,0.0,-0.2133,-0.2317,-0.249,-0.2441,0.0,0.0,0.0,0.0,0.0,0.0,0.0,0.0,0.0,0.0,0.0,0.0,0.0,0.0,-0.0627,-0.0492,-0.0224,0.018,0.0404,0.0808,0.1478,0.2101,0.2679,0.3214,0.3303,0.3571,0.4152,0.4152,0.4284,0.4587,0.4587,0.4932,0.5577,0.605,0.6562,0.7021,0.7496,0.798,0.8393,0.8137,0.8248,0.8542,0.9112,0.9494,0.9848,0.9921,1.0192,1.0573,0.0,0.0,0.0,0.0,0.0,0.0,0.0,0.0,0.0,0.0,0.0,0.0,0.0,0.0,0.0,0.0,-0.9234,-0.9036,-0.8933,-0.8617,0.0,-0.7872,-0.7816,-0.7561,-0.7014,-0.6961,-0.6637,-0.611,-0.6061,-0.5902,-0.568,0.0,0.0,0.0,0.0,0.0,0.0,0.0,0.0,-0.4355,-0.3788,0.0,-0.3543,-0.2805,-0.2499,-0.2534,-0.2387,-0.227,-0.2204,0.0,-0.2215,-0.2241,0.0,0.0,0.0,0.0,0.0,0.0,0.0,0.0,0.0,0.0,0.0,0.0,-0.1095,-0.1276,-0.1388,0.0,0.0,0.0,0.0,0.0,0.0,0.0,0.0,0.0,0.0,0.0,0.0,0.0,0.0,0.0,0.0,0.0135,0.0269,0.045,0.1032,0.1567,0.2101,0.2807,0.3249,0.3337,0.3829,0.4188,0.4416,0.4416,0.467,0.5135,0.5275,0.5577,0.6093,0.6598,0.6894,0.7021,0.7621,0.8065,0.843,0.8851,0.9073,0.9135,0.9252,0.9534,0.9913,1.0256,1.0559,1.0871,0.0,0.0,0.0,0.0,0.0,0.0,0.0,0.0,0.0,0.0,0.0,0.0,0.0,0.0,0.0,0.0,0.0,0.0,0.0,0.0,0.0,-0.7535,-0.7483,-0.7264,-0.6832,-0.6667,-0.6394,-0.5936,-0.5716,-0.5611,-0.5611,0.0,0.0,0.0,0.0,0.0,0.0,0.0,-0.3877,-0.3609,-0.3391,0.0,-0.3166,-0.257,-0.2361,-0.2344,-0.1981,-0.169,-0.1469,-0.1523,-0.1534,0.0,0.0,-0.1382,-0.1216,0.0,-0.1279,-0.1134,0.0,0.0,0.0,-0.1056,0.0,0.0,0.0,-0.0877,-0.0951,-0.0829,-0.0836,0.0,0.0,0.0,0.0,0.0,0.0,0.0,0.0,0.0,0.0,0.0,0.0,0.0,0.027,0.0405,0.0629,0.1032,0.188,0.2546,0.2851,0.3432,0.3785,0.3825,0.414,0.4364,0.4504,0.4857,0.5163,0.5399,0.587,0.6372,0.6856,0.7111,0.7503,0.7959,0.8276,0.8648,0.9097,0.9237,0.9526,0.9897,0.9897,1.0041,1.0216,1.0602,1.0769,1.0972,0.0,0.0,0.0,0.0,0.0,0.0,0.0,0.0,0.0,0.0,0.0,0.0,0.0,0.0,0.0,0.0,0.0,0.0,0.0,0.0,0.0,0.0,-0.6972,-0.681,-0.6593,-0.637,-0.6157,-0.5906,-0.5517,-0.5376,-0.5496,-0.513,0.0,0.0,0.0,0.0,0.0,0.0,0.0,-0.3075,0.0,-0.3004,-0.2845,-0.2384,-0.2211,-0.2131,-0.1618,-0.1119,-0.0712,-0.0817,0.0,-0.0845,-0.0816,-0.0739,0.0,0.0,0.0,0.0,0.0,0.0,0.0,0.0,0.0,-0.0546,0.0,0.0,0.0,-0.044,0.0,0.0,0.0,0.0,0.0,0.0,0.0,0.0,0.0,0.0,0.0,0.0,0.0,0.0,0.0584,0.0718,0.1121,0.1835,0.2724,0.3344,0.3517,0.3924,0.4192,0.432,0.4397,0.4462,0.4599,0.5377,0.5758,0.5803,0.6588,0.7237,0.7736,0.7781,0.8193,0.8919,0.8958,0.9289,0.9776,0.9542,0.9842,1.0514,1.0391,1.0407,1.0522,1.082,1.0972,1.1167,-1.113,-1.1001,0.0,0.0,0.0,0.0,0.0,0.0,0.0,0.0,0.0,0.0,0.0,0.0,0.0,0.0,0.0,0.0,-0.8046,0.0,0.0,0.0,0.0,0.0,-0.6263,-0.6239,-0.6086,-0.5906,-0.5859,-0.5705,-0.5501,-0.4982,0.0,0.0,-0.3988,0.0,0.0,0.0,-0.2877,0.0,-0.2649,-0.2631,0.0,-0.2275,-0.2246,-0.2209,-0.1634,-0.1119,-0.0715,0.0,-0.0713,-0.0715,0.0,-0.0446,-0.0179,0.0,0.0,0.0,0.0,0.0,0.0,0.0,0.0222,0.0,0.0,0.0,0.0504,0.0543,0.0,0.0,0.0,0.0,0.0,0.0,0.0,0.0,0.0,0.0,0.0,0.0,0.0,0.0,0.0,0.1744,0.2368,0.2993,0.3252,0.3565,0.4016,0.4188,0.432,0.4456,0.4657,0.4835,0.5033,0.5834,0.6453,0.6913,0.756,0.8098,0.858,0.8673,0.8788,0.8911,0.9144,0.9479,0.9792,0.9842,1.0105,1.0438,1.0113,1.0184,1.0522,1.082,1.1217,1.1801,-1.1527,-1.144,0.0,0.0,0.0,0.0,0.0,0.0,0.0,0.0,0.0,0.0,0.0,0.0,0.0,0.0,0.0,-0.7387,0.0,0.0,0.0,0.0,0.0,0.0,0.0,-0.5887,-0.5855,-0.5561,-0.5497,-0.5301,-0.5011,-0.4576,0.0,0.0,-0.3456,0.0,-0.2735,0.0,-0.2619,0.0,0.0,0.0,0.0,-0.2288,-0.1895,-0.1282,-0.0765,-0.0269,0.0134,0.0,0.0132,0.0,0.0,0.0,0.0,0.0,0.0,0.0,0.0,0.0,0.0,0.0,0.0,0.0,0.0703,0.0,0.0744,0.0,0.0,0.0,0.0,0.0,0.0,0.0,0.1063,0.0,0.0,0.0,0.0,0.0,0.0,0.0,0.0,0.0,0.0,0.3296,0.3693,0.4005,0.4188,0.4324,0.4502,0.4653,0.478,0.5157,0.5796,0.6548,0.7187,0.7624,0.8332,0.8817,0.9115,0.9156,0.9358,0.9738,0.9836,1.0014,1.0198,1.0248,1.0335,1.0454,1.0303,1.0335,1.0522,1.082,1.1167,1.161,0.0,0.0,0.0,0.0,0.0,0.0,0.0,0.0,0.0,0.0,0.0,0.0,-0.9904,-0.9459,0.0,0.0,-0.7689,-0.6975,0.0,0.0,-0.5672,0.0,0.0,0.0,0.0,0.0,-0.5521,-0.5297,-0.5111,-0.49,-0.4684,-0.4143,-0.3616,0.0,0.0,-0.2716,-0.2419,0.0,0.0,-0.2364,-0.2456,-0.2334,-0.2153,-0.2108,-0.153,-0.0626,-0.0179,0.0314,0.0716,0.0694,0.0701,0.0,0.0693,0.0,0.0,0.0,0.0,0.0,0.0764,0.0,0.0,0.0,0.0,0.0,0.0,0.0,0.0,0.0,0.0,0.0,0.0,0.0,0.0,0.0,0.0,0.1674,0.0,0.0,0.0,0.0,0.0,0.0,0.0,0.0,0.0,0.3646,0.4096,0.4364,0.4364,0.4502,0.4685,0.4866,0.5207,0.5717,0.6406,0.7351,0.7948,0.8247,0.8984,0.94,0.95,0.96,0.988,1.0316,1.0316,1.0419,1.0522,1.0522,1.0522,1.0522,1.0522,1.0522,1.0565,1.0972,1.1418,1.1909,-1.2187,-1.2197,0.0,0.0,0.0,0.0,0.0,0.0,0.0,0.0,0.0,0.0,0.0,0.0,0.0,0.0,0.0,-0.6743,-0.6597,0.0,-0.54,0.0,0.0,-0.4948,0.0,0.0,0.0,0.0,-0.4904,-0.4684,-0.4684,-0.3717,-0.3234,0.0,-0.2662,-0.2417,-0.2423,-0.2565,-0.2601,-0.2607,-0.2646,-0.2296,-0.1734,0.0,-0.1253,-0.0626,-0.0179,0.0,0.0,0.0718,0.0718,0.0,0.0,0.0,0.0,0.0,0.0,0.0,0.0,0.0,0.0,0.09,0.0,0.0,0.0,0.0,0.1886,0.0,0.0,0.0,0.0,0.0,0.0,0.0,0.0,0.0,0.0,0.0,0.0,0.0,0.0,0.0,0.0,0.3788,0.4148,0.4272,0.4412,0.4504,0.4504,0.4761,0.4958,0.5065,0.6027,0.6606,0.6804,0.8092,0.8758,0.8797,0.9458,0.9784,0.9784,1.0095,1.0257,1.0324,1.0419,1.0522,1.0522,1.0522,1.0522,1.0522,1.0522,1.0522,1.0624,1.1377,1.2304,1.317,0.0,0.0,0.0,0.0,0.0,0.0,0.0,-1.0079,0.0,0.0,0.0,0.0,0.0,-0.8687,-0.8259,0.0,0.0,-0.648,-0.5979,-0.5496,0.0,0.0,0.0,-0.4856,0.0,0.0,0.0,0.0,0.0,0.0,-0.3858,-0.3484,-0.3189,0.0,0.0,-0.2599,0.0,0.0,0.0,0.0,0.0,-0.1666,-0.1058,0.0,0.0,-0.0186,0.0317,0.0584,0.0,0.0719,0.0719,0.0719,0.081,0.0855,0.0904,0.1067,0.112,0.0,0.0,0.0,0.1581,0.1136,0.0,0.0,0.0,0.0,0.0,0.0,0.0,0.0,0.0,0.0,0.0,0.0,0.0,0.0,0.0,0.0,0.0,0.0,0.0,0.0,0.0,0.0,0.0,0.4491,0.4495,0.4499,0.4578,0.526,0.5722,0.5912,0.6806,0.752,0.8099,0.8567,0.904,0.9472,0.9688,0.9903,1.011,1.0265,1.0368,1.0419,1.047,1.0522,1.0538,1.0717,1.082,1.0836,1.1058,1.1681,1.2449,1.213,1.2341,1.2979,-1.2508,0.0,0.0,0.0,0.0,0.0,0.0,0.0,0.0,0.0,-0.9241,0.0,-0.9025,0.0,-0.8059,0.0,-0.712,-0.6383,-0.5644,-0.5397,0.0,-0.4782,-0.4836,0.0,0.0,0.0,0.0,0.0,0.0,-0.3827,-0.3413,-0.3246,-0.297,0.0,0.0,-0.2691,-0.2691,0.0,-0.2378,0.0,0.0,-0.0867,0.0,0.0,0.0149,0.0047,0.0,0.0729,0.0764,0.0764,0.0808,0.0856,0.096,0.101,0.1064,0.1202,0.1313,0.1313,0.1265,0.173,0.0,0.1657,0.2019,0.0,0.2078,0.0,0.0,0.0,0.0,0.0,0.0,0.0,0.0,0.0,0.0,0.0,0.0,0.4351,0.0,0.0,0.0,0.0,0.0,0.0,0.4539,0.4618,0.4626,0.4745,0.0,0.5784,0.6345,0.6728,0.7589,0.8281,0.8876,0.904,0.942,0.9844,0.9955,1.011,1.0316,1.0368,1.049,1.0653,1.0569,1.0657,1.0844,1.0947,1.1066,1.1193,1.1575,1.2325,1.3168,1.2797,1.3066,1.3854,0.0,0.0,0.0,0.0,-1.19,0.0,0.0,0.0,-0.9955,0.0,-0.9414,-0.9521,-0.898,-0.8314,-0.7939,-0.7937,-0.7172,-0.6396,-0.5685,-0.5578,0.0,0.0,-0.4282,-0.413,-0.3574,0.0,0.0,0.0,0.0,0.0,-0.3357,-0.2914,0.0,0.0,-0.2691,0.0,-0.2635,-0.2071,-0.1789,-0.1619,-0.0447,0.0056,0.0111,0.0702,0.0562,0.0144,0.0623,0.0842,0.0905,0.0905,0.0993,0.1134,0.1177,0.124,0.1299,0.1399,0.1516,0.162,0.1518,0.1923,0.2377,0.2367,0.2841,0.0,0.0,0.0,0.4303,0.0,0.0,0.0,0.0,0.0,0.0,0.0,0.0,0.0,0.0,0.0,0.0,0.0,0.0,0.0,0.0,0.4618,0.4618,0.4661,0.4797,0.5198,0.0,0.6387,0.693,0.7633,0.8417,0.8928,0.9033,0.9577,0.9895,0.9999,1.0229,1.0347,1.0347,1.0466,1.0701,1.1003,1.0669,1.0891,1.1463,1.1169,1.1233,1.1575,1.1929,1.2432,1.2921,1.3395,1.448,1.575,-1.2461,-1.2054,-1.1618,0.0,-1.1111,-1.0897,0.0,0.0,0.0,0.0,-0.9102,-0.8948,-0.7968,-0.7565,-0.7368,-0.7253,-0.6908,0.0,0.0,0.0,0.0,-0.4804,-0.4432,-0.3947,-0.3302,-0.3641,0.0,-0.2925,0.0,0.0,-0.2856,0.0,0.0,0.0,0.0,0.0,-0.2015,-0.1846,-0.1268,-0.0323,0.0108,0.054,0.0,0.0,0.1078,0.0981,0.0955,0.094,0.0981,0.1128,0.1226,0.127,0.1246,0.1312,0.1395,0.151,0.1902,0.231,0.231,0.3096,0.3812,0.3254,0.3607,0.4023,0.0,0.0,0.0,0.0,0.0,0.0,0.0,0.0,0.0,0.0,0.0,0.0,0.0,0.0,0.0,0.5143,0.0,0.0,0.0,0.5009,0.5053,0.5819,0.5529,0.5678,0.6543,0.0,0.7801,0.8243,0.9102,0.9584,0.9577,0.9844,1.0051,1.0213,1.0529,1.0707,1.0822,1.1114,1.1273,1.136,1.1265,1.1328,1.1503,1.1686,1.192,1.2315,1.2974,1.4054,1.5236,1.5094,1.581,1.6863,-1.2529,0.0,0.0,-1.0764,0.0,0.0,-0.9897,-1.0073,0.0,-0.9226,-0.9251,0.0,-0.7821,-0.7381,-0.7123,-0.6863,-0.6745,0.0,-0.6232,0.0,0.0,-0.4697,-0.4271,-0.3694,-0.2929,-0.3181,0.0,-0.2607,0.0,0.0,-0.2691,0.0,0.0,0.0,0.0,-0.2466,0.0,-0.1508,-0.0587,0.0533,0.0746,0.1021,0.0,0.1281,0.1275,0.1305,0.1279,0.1245,0.121,0.1312,0.1363,0.1412,0.1455,0.1677,0.1968,0.2052,0.2517,0.3042,0.3042,0.3741,0.4419,0.3983,0.4323,0.4713,0.4388,0.4388,0.4678,0.0,0.5171,0.5251,0.0,0.0,0.0,0.0,0.0,0.0,0.0,0.0,0.0,0.0,0.5599,0.0,0.6173,0.5587,0.5443,0.6039,0.6002,0.6381,0.7347,0.0,0.8442,0.9047,0.9592,0.9955,1.0007,1.0256,1.0438,1.0604,1.0942,1.1162,1.1217,1.14,1.1574,1.171,1.1559,1.167,1.1964,1.2003,1.2233,1.2633,1.3758,1.5021,1.6177,1.6276,1.6761,1.7278,0.0,0.0,0.0,0.0,0.0,0.0,0.0,-1.0154,0.0,-0.965,0.0,-0.9005,-0.8031,-0.7479,-0.7066,-0.6757,0.0,-0.6509,-0.6137,-0.5719,-0.5138,-0.4259,-0.386,-0.3348,-0.2632,-0.2638,0.0,0.0,0.0,0.0,0.0,0.0,0.0,0.0,0.0,0.0,0.0,-0.0914,0.0205,0.1164,0.127,0.1351,0.1338,0.1345,0.1347,0.1403,0.1572,0.1567,0.1433,0.1433,0.1537,0.1647,0.1798,0.219,0.2636,0.2754,0.3224,0.3738,0.3738,0.4128,0.4629,0.4629,0.4963,0.5352,0.5352,0.5517,0.5677,0.5795,0.5708,0.564,0.0,0.0,0.0,0.0,0.0,0.0,0.0,0.0,0.0,0.0,0.0,0.0,0.0,0.6296,0.595,0.6087,0.6465,0.7146,0.0,0.0,0.8951,0.9777,0.9993,1.0171,1.0335,1.0731,1.0958,1.1066,1.14,1.1559,1.1559,1.1606,1.1797,1.2075,1.1765,1.1988,1.2536,1.2218,1.2394,1.3033,1.4501,1.5633,1.6524,1.7099,1.7278,1.7278,0.0,0.0,0.0,0.0,0.0,-1.0309,-0.9916,-1.014,-0.9861,-0.8499,-0.8602,-0.8552,-0.7694,-0.7228,-0.6976,-0.6986,-0.6635,0.0,0.0,0.0,0.0,-0.3906,-0.3294,-0.2907,-0.267,-0.2663,-0.2624,0.0,0.0,0.0,0.0,0.0,0.0,0.0,0.0,0.0,-0.0863,0.0293,0.0,0.1376,0.1478,0.1564,0.162,0.1667,0.1685,0.1741,0.1741,0.1671,0.1599,0.1709,0.1764,0.1869,0.2305,0.2547,0.2756,0.323,0.3818,0.4349,0.4349,0.4739,0.5187,0.5187,0.5352,0.5567,0.5567,0.5732,0.595,0.595,0.6036,0.6067,0.595,0.0,0.0,0.0,0.0,0.0,0.0,0.0,0.0,0.0,0.0,0.7483,0.0,0.0,0.7144,0.7579,0.763,0.0,0.0,0.0,0.9547,0.0,1.0439,0.0,0.0,0.0,1.1408,1.1408,1.1757,1.1924,1.1932,1.2242,1.2409,1.2464,1.2401,1.2509,1.2621,1.2496,1.327,1.4619,1.5633,1.6513,1.7166,1.7278,1.7278,1.7278,0.0,0.0,0.0,0.0,0.0,0.0,0.0,-0.991,-0.9802,-0.8893,-0.8631,-0.8277,-0.7803,-0.7343,-0.6986,-0.6826,-0.6574,-0.6152,-0.5617,-0.5022,-0.4439,-0.3816,-0.3215,0.0,-0.2695,-0.2648,-0.2655,-0.2607,0.0,0.0,0.0,0.0,0.0,0.0,0.0,-0.1223,0.0,0.0,0.0,0.1453,0.161,0.1699,0.1756,0.1786,0.1797,0.1797,0.1797,0.1741,0.1741,0.1797,0.1797,0.1903,0.2471,0.2868,0.3282,0.383,0.446,0.4908,0.4908,0.5128,0.5297,0.5297,0.5462,0.5622,0.5622,0.5786,0.6,0.6,0.6119,0.6178,0.6119,0.6119,0.0,0.0,0.0,0.0,0.0,0.0,0.0,0.0,0.0,0.0,0.0,0.0,0.0,0.0,0.0,0.0,0.0,0.0,0.9712,0.0,0.0,0.0,1.0895,0.0,1.1765,1.1765,1.2131,1.2297,1.2305,1.248,1.2621,1.2621,1.292,1.3094,1.3094,1.3502,1.4323,1.5323,1.5968,1.656,1.7145,1.7267,1.7431,1.7617,0.0,-1.1187,0.0,0.0,-1.1187,0.0,-0.9663,-0.9596,-0.9531,-0.9132,-0.8527,-0.8088,-0.7879,-0.733,-0.6954,-0.6708,-0.6388,-0.6017,-0.5481,-0.489,-0.4261,-0.3665,-0.3149,-0.2829,-0.275,-0.2671,-0.2619,0.0,0.0,0.0,0.0,0.0,0.0,0.0,0.0,0.0,0.0,0.0,0.1054,0.1546,0.1653,0.1743,0.1797,0.1797,0.1797,0.1797,0.1797,0.1797,0.1797,0.1964,0.1964,0.2074,0.2683,0.3292,0.3904,0.4519,0.4963,0.5297,0.5297,0.5352,0.5352,0.5352,0.5513,0.5677,0.5677,0.5896,0.6059,0.6059,0.6119,0.6178,0.6178,0.6178,0.0,0.0,0.0,0.0,0.0,0.0,0.0,0.0,0.0,0.0,0.8904,0.0,0.0,0.0,0.0,0.0,0.9595,0.0,0.0,0.0,0.0,1.1217,1.1217,0.0,1.2139,1.2139,1.2425,1.2621,1.2621,1.2621,1.2621,1.2629,1.3239,1.3673,1.3979,1.4667,1.539,1.6066,1.6417,1.6901,1.737,1.7516,1.7824,1.8097,0.0,0.0,0.0,0.0,0.0,0.0,-0.9612,-0.9085,-0.8542,-0.7761,-0.7609,-0.7466,-0.729,-0.7122,-0.695,-0.6692,-0.6041,-0.5415,-0.4882,-0.4308,-0.3724,-0.3204,-0.2689,-0.2642,-0.299,-0.2554,-0.2479,0.0,0.0,-0.2445,0.0,0.0,0.0,0.0,0.0,0.0,0.0,0.1154,0.1439,0.1706,0.1706,0.1743,0.1797,0.1797,0.1797,0.1797,0.1797,0.1797,0.1908,0.2406,0.2625,0.2738,0.3347,0.3904,0.4519,0.5077,0.5242,0.5297,0.5297,0.5407,0.5567,0.5567,0.5786,0.5946,0.5946,0.6059,0.6178,0.6178,0.6178,0.6178,0.6178,0.6178,0.6391,0.0,0.0,0.0,0.0,0.0,0.0,0.0,0.0,0.0,0.0,1.0367,0.0,0.0,0.9502,0.0,0.0,0.0,0.0,1.0947,1.1582,1.1924,1.1924,1.2313,1.2512,1.2512,1.2605,1.2621,1.2621,1.2621,1.2621,1.2645,1.3326,1.4268,1.5314,1.5652,1.6394,1.7369,1.8023,1.8386,1.8556,1.8556,1.8589,1.8622,0.0,0.0,0.0,0.0,0.0,0.0,0.0,-0.8869,-0.8358,-0.7417,-0.733,-0.7301,-0.7236,-0.6968,-0.6769,-0.6692,-0.6045,-0.5348,-0.4815,-0.4243,-0.3665,-0.3155,-0.2741,-0.2575,-0.2651,-0.2252,-0.2084,0.0,0.0,0.0,0.0,0.0,0.0,0.0,0.0,0.0926,0.1347,0.1562,0.1684,0.176,0.176,0.1775,0.1797,0.1797,0.1797,0.1797,0.1797,0.2018,0.235,0.2625,0.2681,0.2847,0.3849,0.4294,0.4629,0.5132,0.5297,0.5297,0.5297,0.5462,0.5622,0.5622,0.5786,0.6,0.6,0.6119,0.6178,0.6178,0.6178,0.6337,0.6657,0.6766,0.7079,0.8084,0.0,0.0,0.0,0.0,0.0,0.0,0.0,0.0,0.0,0.0,0.0,0.0,0.0,0.0,0.0,0.0,0.0,1.0669,0.0,1.1805,1.2019,1.2385,1.2621,1.2621,1.2621,1.2621,1.2621,1.2621,1.321,1.4347,1.5052,1.6002,1.7089,1.701,1.7421,1.8139,1.8455,1.8637,1.8687,1.8687,1.8873,1.9124,-1.1881,0.0,-1.1608,0.0,-1.0598,-0.9974,-0.8841,-0.8424,-0.8059,-0.7384,-0.7208,-0.7127,-0.707,-0.6842,-0.6603,-0.6411,-0.5751,-0.515,-0.4619,-0.4014,-0.3519,-0.313,-0.2743,0.0,-0.247,-0.2025,-0.1808,-0.1813,-0.199,0.0,0.0,0.0,0.0,0.0,0.1147,0.1441,0.1847,0.183,0.1832,0.1847,0.183,0.1822,0.1822,0.1822,0.1924,0.2074,0.2074,0.2462,0.3014,0.3181,0.3236,0.3403,0.4239,0.4629,0.4798,0.5187,0.5297,0.5301,0.5352,0.5517,0.5677,0.5732,0.5896,0.6059,0.6059,0.616,0.6262,0.6262,0.6262,0.6464,0.6987,0.7085,0.7509,0.8771,0.0,0.0,0.0,0.0,0.0,0.0,1.047,1.0367,1.0113,1.0081,0.0,0.0,0.0,0.0,0.0,0.0,0.0,0.0,0.0,0.0,1.2178,1.2432,1.2621,1.2621,1.2621,1.2677,1.2718,1.2947,1.3996,1.5549,1.6097,1.708,1.827,1.8093,1.8385,1.8949,1.9062,1.9113,1.9113,1.9113,1.9342,1.9626,-1.2808,-1.2113,-1.1492,-1.1492,-0.9782,-0.8527,-0.867,-0.786,-0.7289,-0.7456,-0.7171,-0.6958,-0.6704,-0.6688,-0.6415,-0.5697,-0.515,-0.4553,-0.4028,-0.3493,-0.3224,0.0,0.0,-0.2353,-0.2683,-0.1947,-0.1723,-0.1996,0.0,0.0,-0.0587,0.0,0.1296,0.1298,0.1762,0.197,0.1966,0.1906,0.1914,0.1965,0.1905,0.188,0.188,0.188,0.2244,0.2681,0.2681,0.307,0.3683,0.4294,0.446,0.4463,0.4519,0.4853,0.5297,0.5297,0.5297,0.5352,0.5567,0.5681,0.5845,0.595,0.6119,0.6178,0.6178,0.6328,0.6473,0.6473,0.6473,0.6633,0.7019,0.7085,0.7509,0.8771,0.0,0.0,0.0,0.0,0.0,0.0,1.0368,1.0368,1.0462,1.0514,0.0,0.0,0.0,0.0,0.0,0.0,0.0,1.1463,1.217,0.0,1.2621,1.2621,1.2621,1.2621,1.2621,1.275,1.31,1.3835,1.4788,1.5788,1.591,1.6973,1.8526,1.8612,1.9233,2.0064,2.0064,2.0064,2.0064,2.0064,2.0074,2.0074,-1.1765,-1.1689,-1.1327,-1.0048,-0.9394,-0.8834,-0.8225,-0.7671,-0.7334,-0.7147,-0.7131,-0.6976,-0.6546,-0.6163,-0.5874,0.0,-0.4755,-0.4159,0.0,-0.3493,-0.3092,-0.2889,-0.2421,-0.2153,-0.195,-0.1479,-0.1138,-0.0862,0.0,0.0,0.0,0.1033,0.1551,0.194,0.2089,0.2137,0.2096,0.2076,0.1992,0.197,0.1951,0.1943,0.1939,0.1898,0.2276,0.2764,0.2703,0.3347,0.4239,0.4463,0.4739,0.5096,0.5208,0.5278,0.5297,0.5297,0.5407,0.5513,0.5567,0.5786,0.5986,0.6178,0.6323,0.6417,0.6562,0.6646,0.6693,0.6693,0.6693,0.6915,0.77,0.8123,0.8795,0.9919,1.0172,0.0,0.0,0.0,0.0,0.0,1.0775,1.0862,1.1146,1.1161,0.0,0.0,0.0,0.0,0.0,0.0,0.0,0.0,1.1948,0.0,1.2621,1.2621,1.2687,1.2925,1.2925,1.3356,1.4227,1.5309,1.6346,1.7334,1.7895,1.8664,1.9584,1.9228,1.9521,2.0085,2.0085,2.0085,2.0085,2.0085,2.0085,2.0085,-1.1356,-1.0985,-1.0439,-0.9262,-0.8746,-0.8382,-0.7651,-0.746,-0.7281,-0.7064,-0.7049,-0.6897,-0.6293,-0.5706,0.0,-0.5286,-0.4492,-0.3894,-0.3694,-0.336,-0.3025,-0.2686,-0.2354,-0.2018,-0.1614,-0.1277,0.0,-0.0269,-0.0134,0.0336,0.1008,0.1412,0.1817,0.2221,0.2221,0.22,0.2161,0.2137,0.2119,0.2102,0.2078,0.2069,0.2003,0.1963,0.2477,0.3216,0.3152,0.3938,0.5023,0.496,0.511,0.547,0.5637,0.56,0.5526,0.5588,0.5661,0.5831,0.5945,0.6115,0.626,0.645,0.6541,0.6651,0.6922,0.6969,0.703,0.7269,0.733,0.7615,0.87,0.9125,0.9701,1.0697,1.0958,1.1021,1.1185,0.0,0.0,0.0,0.0,0.0,0.0,1.1487,1.1582,0.0,0.0,0.0,0.0,0.0,0.0,1.167,1.2035,1.2329,1.2621,1.2695,1.2869,1.31,1.3664,1.4493,1.5647,1.6579,1.7426,1.8238,1.8864,1.9396,1.9802,1.966,1.9802,2.0085,2.0085,2.0085,2.0085,2.0085,2.0085,2.0085,-1.1367,-1.0089,-0.9085,-0.9006,-0.8012,-0.7261,-0.7261,-0.7253,-0.7179,-0.7068,-0.6985,-0.6702,-0.5964,-0.5325,-0.4924,-0.4721,0.0,0.0,-0.3228,-0.3159,-0.3023,-0.2686,-0.2354,-0.1951,-0.1547,-0.121,-0.0739,-0.0202,0.0874,0.1345,0.1345,0.1951,0.2221,0.2221,0.2221,0.2221,0.2217,0.2158,0.2168,0.2216,0.2158,0.2134,0.2133,0.2128,0.2847,0.3947,0.3939,0.4789,0.586,0.5689,0.5628,0.569,0.5884,0.5951,0.5981,0.6075,0.6121,0.6177,0.6542,0.6602,0.6667,0.681,0.6824,0.6885,0.7135,0.724,0.7428,0.8048,0.8172,0.8583,0.974,1.0047,1.0343,1.1195,1.1357,1.1414,1.1527,0.0,0.0,0.0,0.0,0.0,1.1559,1.1567,1.1567,0.0,0.0,0.0,0.0,0.0,1.1773,1.2083,1.244,1.2693,1.2693,1.2957,1.3139,1.3236,1.4547,1.5891,1.7261,1.7523,1.8046,1.8643,1.91,1.9375,1.9375,1.9868,2.0085,2.0085,2.0085,2.0085,2.0085,2.0118,2.0129,2.014,0.0,0.0,-0.8848,-0.8229,-0.7845,-0.7634,-0.7634,-0.7512,-0.7358,-0.7183,-0.6903,-0.6496,-0.5997,-0.5198,-0.4476,-0.4004,-0.3716,-0.3438,-0.323,-0.2956,-0.2688,-0.2354,-0.1951,-0.1412,-0.0605,-0.0538,0.0,0.0941,0.1614,0.2018,0.2018,0.2154,0.2221,0.2221,0.2221,0.2221,0.222,0.2206,0.2207,0.222,0.2206,0.2199,0.2193,0.2145,0.2947,0.4181,0.3966,0.4847,0.6053,0.6011,0.5994,0.6019,0.6411,0.6516,0.6498,0.6337,0.6426,0.6482,0.6602,0.6667,0.6829,0.7045,0.7201,0.7329,0.744,0.7455,0.745,0.7643,0.8148,0.8771,0.9375,1.0282,1.1156,1.158,1.1776,1.1834,1.1892,1.1662,1.159,0.0,1.1892,1.2003,1.2282,1.2366,1.2366,0.0,0.0,0.0,1.283,1.2996,1.3012,1.2846,1.3163,1.3346,1.3346,1.3425,1.3733,1.4344,1.4919,1.6035,1.7562,1.7658,1.8375,1.9594,1.9726,1.9802,1.9933,2.0074,2.0085,2.0085,2.0085,2.0085,2.0129,2.0555,2.0686,2.074,-0.887,-0.8481,-0.8169,-0.7708,-0.7703,-0.7703,-0.7541,-0.7569,-0.7411,-0.6706,-0.6506,-0.6132,-0.5318,-0.4609,-0.3964,-0.3356,-0.3199,-0.2993,-0.2744,-0.2573,-0.2285,-0.1951,-0.1748,-0.121,-0.0336,-0.0269,0.0202,0.1277,0.1884,0.2221,0.2221,0.2221,0.2221,0.2221,0.2221,0.2221,0.2221,0.2221,0.2221,0.2221,0.2221,0.2221,0.2217,0.2576,0.3407,0.4434,0.4686,0.5549,0.6425,0.6397,0.6371,0.645,0.6684,0.6782,0.6778,0.6885,0.688,0.6876,0.7001,0.7063,0.7154,0.7331,0.744,0.7521,0.7521,0.7521,0.7717,0.842,0.8871,0.9527,1.0506,1.1298,1.1851,1.2116,1.2205,1.2266,1.2266,1.2099,1.2115,1.2464,1.2369,1.2409,1.2766,1.2663,1.2693,1.279,1.2981,0.0,1.3306,1.364,1.3672,1.333,1.3489,1.3584,1.3584,1.4205,1.4934,1.5773,1.6399,1.7404,1.8721,1.8721,1.9198,2.0009,2.0009,2.0009,2.0085,2.0085,2.0085,2.0085,2.0085,2.0282,2.05,2.0762,2.107,2.1232,-0.8584,-0.794,-0.7484,-0.7484,-0.7614,-0.7614,-0.7309,-0.7447,-0.7243,-0.6218,-0.6053,-0.5631,-0.4415,-0.39,-0.3467,-0.2804,-0.2662,-0.2544,-0.2245,-0.2118,-0.1951,-0.1614,-0.1547,-0.1076,-0.0202,0.0,0.0538,0.1412,0.1951,0.2221,0.2221,0.2221,0.2221,0.2221,0.2221,0.2221,0.2221,0.2221,0.2221,0.2221,0.2221,0.2221,0.2354,0.3155,0.3949,0.4743,0.5606,0.6342,0.692,0.6817,0.6759,0.6822,0.6953,0.7021,0.7053,0.7409,0.7396,0.7265,0.7461,0.7521,0.7521,0.7521,0.7521,0.7521,0.7521,0.7587,0.8037,0.9384,0.9831,1.0465,1.1919,1.2243,1.2375,1.256,1.2621,1.2621,1.2621,0.0,1.275,1.306,1.2869,1.2838,1.3139,1.2893,1.2838,1.3139,1.3219,1.337,1.3648,1.3997,1.4053,1.3751,1.3743,1.3743,1.3743,1.4849,1.5833,1.6835,1.7735,1.8704,1.9605,1.9745,1.9877,2.0085,2.0162,2.014,2.0085,2.0162,2.0183,2.0183,2.0183,2.0544,2.0981,2.1125,2.1341,2.1712,-0.7791,-0.7561,-0.7484,-0.7484,-0.7504,-0.7504,-0.7452,-0.7107,-0.6729,-0.6499,-0.5585,-0.474,-0.418,-0.3577,-0.2882,-0.2094,-0.1973,-0.2059,-0.2181,-0.1913,-0.1681,-0.1614,-0.1344,-0.0672,0.0336,0.1344,0.1884,0.2085,0.2154,0.2221,0.2221,0.2221,0.2221,0.2221,0.2221,0.2221,0.2221,0.2221,0.2221,0.2221,0.2221,0.2354,0.2686,0.3286,0.4215,0.5209,0.5738,0.647,0.7134,0.7102,0.7089,0.7154,0.7349,0.7414,0.7418,0.7451,0.7461,0.7456,0.7521,0.7521,0.7521,0.7521,0.7521,0.7521,0.7521,0.8032,0.8608,0.8801,1.0072,1.1149,1.1399,1.2042,1.256,1.256,1.2621,1.2621,1.2621,0.0,1.3028,1.3084,1.329,1.3449,1.3505,1.3457,1.3449,1.3505,1.3783,1.3974,1.4029,1.4363,1.4538,1.4474,1.4403,1.4403,1.4403,1.4672,1.5005,1.5471,1.6303,1.7281,1.8317,1.8912,1.9562,2.0107,2.0577,2.0522,2.0107,2.0587,2.0751,2.0751,2.0751,2.1046,2.1527,2.1942,2.2138,2.2258,-0.7557,-0.7484,-0.7484,-0.7484,-0.7565,-0.752,-0.7115,-0.6865,-0.6335,-0.5398,-0.4771,-0.407,-0.329,-0.2743,-0.2275,-0.196,-0.1612,-0.15,-0.1685,-0.1478,-0.1306,-0.1306,-0.0881,-0.0134,0.0941,0.1749,0.2221,0.2221,0.2221,0.2221,0.2221,0.2221,0.2221,0.2221,0.2221,0.2221,0.2221,0.2221,0.2287,0.2487,0.2487,0.282,0.3485,0.4215,0.5011,0.5807,0.6531,0.6994,0.733,0.733,0.733,0.7396,0.7456,0.7521,0.7521,0.7521,0.7521,0.7521,0.7521,0.7521,0.7521,0.7521,0.7521,0.7521,0.7722,0.8042,0.8549,0.95,1.0325,1.1087,1.1849,1.2305,1.2621,1.2621,1.2621,1.2693,1.2822,1.2989,1.3227,1.36,1.3608,1.3656,1.3846,1.3696,1.3664,1.3854,1.4021,1.4196,1.4387,1.4554,1.4569,1.4569,1.4569,1.484,1.5321,1.5737,1.6465,1.7535,1.8296,1.9123,1.9938,2.0296,2.0642,2.0937,2.1155,2.1134,2.0948,2.1166,2.1254,2.1254,2.1254,2.1549,2.2007,2.2237,2.2477,2.2717,-0.7484,-0.7484,-0.7484,-0.7484,-0.7524,-0.7332,-0.6659,-0.6342,-0.5656,-0.4311,-0.3912,-0.3368,-0.2431,-0.2117,-0.1882,-0.1803,-0.1467,-0.1222,-0.1222,-0.1025,-0.0923,-0.0911,-0.0273,0.047,0.1277,0.1884,0.2221,0.2221,0.2221,0.2221,0.2221,0.2221,0.2221,0.2221,0.2221,0.2221,0.2287,0.2287,0.2488,0.282,0.2954,0.3485,0.4217,0.5143,0.5811,0.6342,0.7195,0.7521,0.7521,0.7521,0.7521,0.7521,0.7521,0.7521,0.7521,0.7521,0.7521,0.7521,0.7521,0.7521,0.7526,0.7591,0.7591,0.7722,0.8052,0.8348,0.8879,1.0212,1.0701,1.1241,1.2382,1.2621,1.2621,1.2621,0.0,1.2782,1.3052,1.3227,1.3521,1.4053,1.3942,1.3966,1.4323,1.4037,1.4005,1.4442,1.4323,1.4387,1.4752,1.4768,1.4768,1.4832,1.4888,1.5321,1.628,1.6987,1.7966,1.9153,2.0024,2.0754,2.129,2.148,2.155,2.1592,2.1712,2.1691,2.1592,2.1712,2.1756,2.1756,2.1756,2.2051,2.2477,2.2477,2.2695,2.3001,-0.7484,-0.7484,-0.7484,-0.7484,-0.7034,-0.6651,-0.6641,-0.5321,-0.4231,-0.4146,-0.3212,-0.2431,-0.196,-0.1882,-0.1726,-0.1414,-0.1333,-0.1332,-0.1332,-0.0688,-0.0369,-0.0351,0.0614,0.121,0.1277,0.1884,0.2221,0.2221,0.2221,0.2221,0.2221,0.2221,0.2221,0.2221,0.2221,0.2354,0.2686,0.2686,0.2889,0.3226,0.3685,0.4154,0.4691,0.5679,0.6276,0.6741,0.7326,0.7521,0.7521,0.7521,0.7521,0.7521,0.7521,0.7521,0.7521,0.7521,0.7521,0.7521,0.7521,0.7521,0.7591,0.7917,0.7987,0.8052,0.8382,0.9259,1.0136,1.0448,1.1326,1.2161,1.2561,1.2621,1.2621,1.2621,0.0,0.0,1.3084,1.364,1.4053,1.4109,1.4379,1.4704,1.507,1.4776,1.4839,1.5515,1.4967,1.476,1.5125,1.5141,1.529,1.5634,1.5783,1.628,1.7033,1.7684,1.8104,1.8213,1.9478,2.0116,2.0318,2.1073,2.1485,2.1614,2.2062,2.2007,2.1625,2.2084,2.2269,2.2269,2.2269,2.2542,2.2957,2.2957,2.2968,2.3001,-0.7228,-0.7167,-0.7057,-0.6558,-0.5981,-0.5556,-0.509,-0.4224,-0.3444,-0.282,-0.2352,-0.1961,-0.157,-0.1492,-0.1492,-0.1335,-0.1335,-0.11,-0.0707,-0.0467,0.0,0.0703,0.1092,0.148,0.1817,0.2087,0.2221,0.2221,0.2221,0.2221,0.2221,0.2221,0.2287,0.2487,0.2487,0.2688,0.3023,0.3023,0.3224,0.3625,0.4156,0.4755,0.5491,0.621,0.6802,0.7195,0.7456,0.7521,0.7521,0.7521,0.7521,0.7521,0.7521,0.7521,0.7521,0.7521,0.7521,0.7555,0.7621,0.7855,0.8122,0.8189,0.8498,0.901,0.9682,1.0227,1.0805,1.1751,1.2292,1.2681,1.3154,1.3195,1.3195,1.3195,0.0,1.3553,1.3989,1.4275,1.4601,1.503,1.5197,1.534,1.5475,1.5364,1.5396,1.5658,1.5435,1.534,1.5483,1.5786,1.6446,1.7697,1.7968,1.8048,1.8072,1.8831,1.9686,2.0719,2.1063,2.1513,2.1923,2.2262,2.241,2.2477,2.2663,2.263,2.2477,2.2663,2.2739,2.2739,2.2739,2.2848,2.3001,2.3001,2.3001,2.3001,-0.7026,-0.6743,-0.641,-0.574,-0.5151,-0.4637,-0.4008,-0.3362,-0.2717,-0.1984,-0.1824,-0.1583,-0.1336,-0.1335,-0.1335,-0.1335,-0.11,-0.0786,-0.0314,0.0078,0.0607,0.1369,0.1528,0.1773,0.2183,0.2231,0.2221,0.2221,0.2221,0.2221,0.2221,0.2287,0.2487,0.2686,0.282,0.3023,0.336,0.336,0.3692,0.4223,0.4824,0.5488,0.6218,0.6741,0.7195,0.7521,0.7521,0.7521,0.7521,0.7521,0.7521,0.7521,0.7521,0.7569,0.7626,0.7626,0.7736,0.7889,0.8044,0.8546,0.8923,0.8706,0.9087,0.9631,1.0384,1.0798,1.1246,1.2316,1.272,1.3029,1.3534,1.3584,1.3584,1.3584,1.3767,1.4085,1.4569,1.4832,1.5141,1.5618,1.5674,1.5721,1.5833,1.5745,1.5769,1.5991,1.5955,1.6029,1.6219,1.6496,1.7304,1.8639,1.938,1.9608,1.932,2.0175,2.1227,2.2313,2.2299,2.2527,2.3001,2.3001,2.3001,2.3001,2.3001,2.3001,2.3001,2.3001,2.3001,2.3001,2.3001,2.3001,2.3001,2.3001,2.3001,2.3001,-0.675,-0.627,-0.5779,-0.5269,-0.4608,-0.4026,-0.3519,-0.2602,-0.2001,-0.1874,-0.1545,-0.1291,-0.1261,-0.1335,-0.1335,-0.1257,-0.0707,-0.0314,-0.0314,0.0845,0.1516,0.1516,0.1948,0.2174,0.2174,0.2185,0.2221,0.2221,0.2221,0.2221,0.2221,0.2554,0.2686,0.2753,0.3025,0.3426,0.3825,0.3825,0.4289,0.5156,0.569,0.6218,0.6741,0.726,0.7521,0.7521,0.7521,0.7521,0.7521,0.7521,0.7521,0.7521,0.7526,0.7674,0.7782,0.7782,0.8206,0.873,0.873,0.9466,1.0018,0.9411,0.9502,0.9933,1.0269,1.0962,1.172,1.1984,1.2651,1.3323,1.3589,1.3592,1.36,1.36,1.4188,1.4577,1.4585,1.5245,1.5682,1.569,1.569,1.5825,1.6174,1.5896,1.5975,1.6683,1.6464,1.6681,1.7458,1.748,1.7681,1.808,1.9761,2.0595,2.0595,2.1722,2.2324,2.2335,2.2783,2.3001,2.3001,2.3001,2.3001,2.3001,2.3001,2.3001,2.3001,2.3001,2.3001,2.3001,2.3001,2.3001,2.3001,2.3001,2.3001,2.3001,-0.493,-0.4864,-0.4692,-0.3619,-0.3023,-0.2688,-0.2435,-0.1934,-0.1503,-0.1468,-0.1384,-0.1291,-0.1261,-0.1335,-0.11,-0.0628,-0.0393,0.0078,0.0941,0.1793,0.2174,0.2174,0.2184,0.2174,0.2174,0.2185,0.2221,0.2221,0.2221,0.2287,0.2554,0.2619,0.2954,0.3489,0.3558,0.3828,0.4164,0.4164,0.4298,0.4564,0.509,0.5686,0.6218,0.6741,0.7195,0.7521,0.7521,0.7521,0.7521,0.7521,0.7521,0.755,0.7636,0.7928,0.8278,0.8369,0.8744,0.9179,0.9267,0.973,1.0136,0.9984,1.0454,1.1247,1.2264,1.2634,1.3054,1.4068,1.4429,1.4613,1.4728,1.4895,1.5054,1.5054,1.5229,1.5451,1.5705,1.5912,1.6142,1.6389,1.642,1.646,1.6563,1.6726,1.6992,1.7212,1.7346,1.7749,1.8276,1.832,1.8695,1.9587,2.0515,2.1202,2.1665,2.2424,2.2794,2.2794,2.2936,2.3001,2.3001,2.3001,2.3001,2.3001,2.3001,2.3001,2.3001,2.3001,2.3001,2.3001,2.3001,2.3001,2.3001,2.3001,2.3001,2.3001,-0.398,-0.3854,-0.3626,-0.2646,-0.2318,-0.2072,-0.1812,-0.1543,-0.1358,-0.1339,-0.1317,-0.1296,-0.1277,-0.1027,-0.0707,-0.0314,0.0157,0.0863,0.1882,0.2275,0.2511,0.2511,0.2384,0.2313,0.2313,0.2232,0.227,0.2502,0.2475,0.2681,0.3051,0.3192,0.3447,0.3823,0.4072,0.4272,0.4371,0.442,0.4549,0.4775,0.5309,0.5807,0.6284,0.6806,0.7195,0.7521,0.7521,0.7521,0.7521,0.7521,0.7644,0.7888,0.8108,0.8508,0.8878,0.9024,0.9416,0.9807,0.9952,1.0217,1.0613,1.1015,1.1427,1.1923,1.2775,1.3341,1.3877,1.4726,1.5134,1.538,1.538,1.5539,1.5674,1.5674,1.5793,1.596,1.6174,1.6325,1.6492,1.6706,1.673,1.673,1.673,1.6984,1.731,1.7635,1.7878,1.8282,1.8922,1.8922,1.9231,1.9854,2.0702,2.1395,2.1711,2.2553,2.3001,2.3001,2.3001,2.3001,2.3001,2.3001,2.3001,2.3001,2.3001,2.3001,2.3001,2.3001,2.3001,2.3001,2.3001,2.3001,2.3001,2.3001,2.3001,2.3001,-0.3431,-0.3023,-0.2596,-0.2079,-0.2118,-0.197,-0.1435,-0.1412,-0.1393,-0.1391,-0.1343,-0.1309,-0.1225,-0.0639,-0.0236,-0.0158,0.1021,0.1882,0.2431,0.2511,0.2511,0.2511,0.2458,0.2428,0.2428,0.2312,0.2493,0.2987,0.2986,0.3199,0.3636,0.393,0.4025,0.4004,0.4459,0.4662,0.4563,0.4676,0.5015,0.5392,0.5942,0.6399,0.6788,0.7297,0.7489,0.755,0.7531,0.7521,0.7526,0.7545,0.7959,0.8518,0.8684,0.9174,0.9634,0.965,1.0114,1.0594,1.0547,1.0923,1.1446,1.2356,1.2447,1.2302,1.2593,1.3577,1.4419,1.4494,1.5118,1.5721,1.5721,1.5753,1.5769,1.5769,1.6039,1.6254,1.6254,1.6532,1.673,1.673,1.673,1.673,1.673,1.6812,1.7221,1.8031,1.8121,1.8434,1.9222,1.9301,1.9301,1.9301,2.0469,2.1165,2.1165,2.2306,2.2927,2.3001,2.3001,2.3001,2.3001,2.3001,2.3001,2.3001,2.3001,2.3001,2.3001,2.3001,2.3001,2.3001,2.3001,2.3001,2.3001,2.3001,2.3001,2.3001,-0.1962,-0.2077,-0.2117,-0.1527,-0.1554,-0.1495,-0.1431,-0.1429,-0.1416,-0.1393,-0.1379,-0.1192,-0.0585,-0.0409,0.0081,0.1209,0.1902,0.2353,0.251,0.2511,0.2511,0.2511,0.2497,0.2647,0.296,0.2893,0.2899,0.2987,0.3329,0.3617,0.4003,0.4077,0.428,0.4544,0.464,0.4712,0.4684,0.5212,0.5421,0.5606,0.6179,0.6726,0.7163,0.7091,0.7373,0.7688,0.7583,0.7521,0.755,0.8046,0.8596,0.9174,0.9333,0.9741,1.0115,1.0228,1.0622,1.101,1.123,1.1738,1.2389,1.2974,1.3673,1.4311,1.464,1.4865,1.5181,1.5662,1.596,1.6087,1.6087,1.6317,1.6508,1.6508,1.6571,1.6619,1.6619,1.6683,1.673,1.673,1.673,1.682,1.7229,1.7878,1.8442,1.8984,1.8984,1.9063,1.9301,1.9301,1.9301,1.9301,2.0001,2.0702,2.1165,2.1939,2.2553,2.3001,2.3001,2.3001,2.3001,2.3001,2.3001,2.3001,2.3001,2.3001,2.3001,2.3001,2.3001,2.3001,2.3001,2.3001,2.3001,2.3001,2.3001,2.3001,-0.1367,-0.1549,-0.1662,-0.1345,-0.1371,-0.14,-0.1431,-0.1423,-0.1413,-0.1412,-0.1126,-0.0769,-0.0341,0.0251,0.0991,0.2065,0.2451,0.2585,0.2556,0.258,0.2653,0.275,0.2855,0.3015,0.3452,0.3595,0.3695,0.3695,0.3871,0.4173,0.4528,0.4528,0.4572,0.4743,0.5095,0.5235,0.5252,0.5909,0.6187,0.6193,0.671,0.7097,0.7291,0.7473,0.7716,0.791,0.7796,0.7894,0.82,0.8762,0.9346,0.9785,0.9946,1.0319,1.0642,1.0777,1.1057,1.1341,1.1492,1.2079,1.2903,1.3575,1.4387,1.5117,1.5203,1.5481,1.58,1.6126,1.6341,1.646,1.646,1.6611,1.673,1.673,1.673,1.673,1.673,1.673,1.6812,1.6984,1.7066,1.7229,1.7635,1.8129,1.8531,1.9002,1.9002,1.9073,1.9301,1.9301,1.946,1.9696,2.0313,2.1011,2.1634,2.2252,2.2703,2.3001,2.3001,2.3001,2.3001,2.3001,2.3001,2.3001,2.3001,2.3001,2.3001,2.3001,2.3001,2.3001,2.3001,2.3001,2.3001,2.3001,2.3001,2.3001,-0.1262,-0.1286,-0.1318,-0.126,-0.1376,-0.1406,-0.1431,-0.1414,-0.1319,-0.1253,-0.0695,-0.0257,0.0,0.1113,0.211,0.2692,0.2692,0.267,0.2702,0.283,0.2977,0.3263,0.3313,0.3553,0.3944,0.4256,0.4401,0.4384,0.4449,0.4607,0.5018,0.5018,0.4961,0.5019,0.5659,0.595,0.6071,0.6729,0.7011,0.6954,0.748,0.7612,0.761,0.8075,0.8274,0.8269,0.8306,0.8604,0.9024,0.9569,1.0025,1.0402,1.0582,1.0883,1.119,1.1238,1.149,1.1762,1.1805,1.2523,1.348,1.4339,1.5072,1.5491,1.5484,1.5885,1.6301,1.6301,1.6532,1.673,1.673,1.673,1.673,1.673,1.6738,1.682,1.682,1.6894,1.7066,1.7473,1.7554,1.7716,1.8121,1.8201,1.8362,1.8772,1.8772,1.8922,1.9301,1.9445,1.9771,2.0167,2.0926,2.1553,2.2101,2.2628,2.2927,2.3001,2.3001,2.3001,2.3001,2.3001,2.3001,2.3001,2.3001,2.3001,2.3001,2.3001,2.3001,2.3001,2.3001,2.3001,2.3001,2.3001,2.3001,2.3075,-0.1336,-0.1303,-0.1259,-0.1263,-0.1393,-0.143,-0.1435,-0.1431,-0.1163,-0.0628,-0.0446,0.0089,0.1339,0.2192,0.2664,0.2698,0.2692,0.2856,0.3263,0.3271,0.3517,0.391,0.4001,0.4131,0.4444,0.4522,0.4557,0.4384,0.4763,0.4921,0.5018,0.5018,0.524,0.5758,0.5854,0.6237,0.6754,0.7387,0.7693,0.7668,0.8282,0.8491,0.8524,0.8788,0.886,0.8907,0.9069,0.9488,1.0035,1.0069,1.051,1.1037,1.1312,1.1396,1.1516,1.1745,1.2226,1.2778,1.3024,1.4012,1.5102,1.542,1.5996,1.6495,1.6495,1.6577,1.6667,1.6667,1.6698,1.673,1.673,1.673,1.673,1.673,1.7066,1.731,1.731,1.7635,1.7878,1.7878,1.829,1.854,1.8612,1.8913,1.9143,1.9222,1.9222,1.9222,1.9301,2.0263,2.0611,2.0177,2.1223,2.1869,2.2111,2.2176,2.2478,2.3001,2.3001,2.3001,2.3001,2.3001,2.3001,2.3001,2.3001,2.3001,2.3001,2.3001,2.3001,2.3001,2.3001,2.3001,2.3001,2.3001,2.3001,2.3001,-0.1308,-0.1329,-0.1353,-0.1369,-0.1393,-0.1416,-0.1433,-0.1076,-0.0718,-0.0448,0.0359,0.1076,0.1705,0.2404,0.2823,0.2797,0.3054,0.3298,0.3427,0.3721,0.4048,0.4453,0.4502,0.4655,0.5046,0.5043,0.5017,0.4965,0.5001,0.5018,0.5018,0.5323,0.5631,0.5938,0.663,0.7092,0.7476,0.8012,0.8318,0.8318,0.8623,0.8856,0.9079,0.913,0.9319,0.9527,0.9862,1.0109,1.0433,1.0648,1.0974,1.1365,1.1492,1.163,1.1775,1.189,1.2184,1.2644,1.3166,1.4145,1.5061,1.5613,1.6237,1.673,1.673,1.673,1.673,1.673,1.673,1.673,1.673,1.6902,1.7066,1.7066,1.7473,1.7716,1.7716,1.7878,1.8121,1.8371,1.8967,1.9345,1.9345,1.9689,1.998,1.998,1.998,2.0042,2.0123,2.0604,2.0986,2.1262,2.1753,2.2224,2.2628,2.2628,2.2703,2.3001,2.3001,2.3001,2.3001,2.3001,2.3001,2.3001,2.3001,2.3001,2.3001,2.3001,2.3001,2.3001,2.3001,2.3001,2.3001,2.3001,2.3001,2.3001]},{"header":{"parameterUnit":"m.s-1","parameterCategory":1,"la1":30.6,"la2":28.766,"lo1":-90.7593,"lo2":-88.6598,"dy":0.0162,"dx":0.0183,"nx":116,"ny":114,"refTime":"2023-11-03T18:00:00:Z","depth":0,"parameterNumber":3,"parameterNumberName":"V-component_of_WINDS"},"data":[0.0,0.0,0.0,0.0,0.0,0.0,0.0,0.0,0.0,0.0,0.0,0.0,0.0,0.0,0.0,0.0,0.0,0.0,0.0,0.0,0.0,0.0,0.0,0.0,0.0,0.0,0.0,0.0,0.0,0.0,0.0,0.0,0.0,0.0,0.0,0.0,0.0,0.0,0.0,0.0,0.0,0.0,0.0,0.0,0.0,0.0,0.0,0.0,0.0,0.0,0.0,0.0,0.0,0.0,0.0,0.0,0.0,0.0,0.0,0.0,0.0,0.0,0.0,0.0,0.0,0.0,0.0,0.0,0.0,0.0,0.0,0.0,0.0,0.0,0.0,0.0,0.0,0.0,0.0,0.0,0.0,0.0,0.0,0.0,0.0,0.0,0.0,0.0,0.0,0.0,0.0,0.0,0.0,0.0,0.0,0.0,0.0,0.0,0.0,0.0,0.0,0.0,0.0,0.0,0.0,0.0,0.0,0.0,0.0,0.0,0.0,0.0,0.0,0.0,0.0,0.0,0.0,0.0,0.0,0.0,0.0,0.0,0.0,0.0,0.0,0.0,0.0,0.0,0.0,0.0,0.0,0.0,0.0,0.0,0.0,0.0,0.0,0.0,0.0,0.0,0.0,0.0,0.0,0.0,0.0,0.0,0.0,0.0,0.0,0.0,0.0,0.0,0.0,0.0,0.0,0.0,0.0,0.0,0.0,0.0,0.0,0.0,0.0,0.0,0.0,0.0,0.0,0.0,0.0,0.0,0.0,0.0,0.0,0.0,0.0,0.0,0.0,0.0,0.0,0.0,0.0,0.0,0.0,0.0,0.0,0.0,0.0,0.0,0.0,0.0,0.0,0.0,0.0,0.0,0.0,0.0,0.0,0.0,0.0,0.0,0.0,0.0,0.0,0.0,0.0,0.0,0.0,0.0,0.0,0.0,0.0,0.0,0.0,0.0,0.0,0.0,0.0,0.0,0.0,0.0,0.0,0.0,0.0,0.0,0.0,0.0,0.0,0.0,0.0,0.0,0.0,0.0,0.0,0.0,0.0,0.0,0.0,0.0,0.0,0.0,0.0,0.0,0.0,0.0,0.0,0.0,0.0,0.0,0.0,0.0,0.0,0.0,0.0,0.0,0.0,0.0,0.0,0.0,0.0,0.0,0.0,0.0,0.0,0.0,0.0,0.0,0.0,0.0,0.0,0.0,0.0,0.0,0.0,0.0,0.0,0.0,0.0,0.0,0.0,0.0,0.0,0.0,0.0,0.0,0.0,0.0,0.0,0.0,0.0,0.0,0.0,0.0,0.0,0.0,0.0,0.0,0.0,0.0,0.0,0.0,0.0,0.0,0.0,0.0,0.0,0.0,0.0,0.0,0.0,0.0,0.0,0.0,0.0,0.0,0.0,0.0,0.0,0.0,0.0,0.0,0.0,0.0,0.0,0.0,0.0,0.0,0.0,0.0,0.0,0.0,0.0,0.0,0.0,0.0,0.0,0.0,0.0,0.0,0.0,0.0,0.0,0.0,0.0,0.0,0.0,0.0,0.0,0.0,0.0,0.0,0.0,0.0,0.0,0.0,0.0,0.0,0.0,0.0,0.0,0.0,0.0,0.0,0.0,0.0,0.0,0.0,0.0,0.0,0.0,0.0,0.0,0.0,0.0,0.0,0.0,0.0,0.0,0.0,0.0,0.0,0.0,0.0,0.0,0.0,0.0,0.0,0.0,0.0,0.0,0.0,0.0,0.0,0.0,0.0,0.0,0.0,0.0,0.0,0.0,0.0,0.0,0.0,0.0,0.0,0.0,0.0,0.0,0.0,0.0,0.0,0.0,0.0,0.0,0.0,0.0,0.0,0.0,0.0,0.0,0.0,0.0,0.0,0.0,0.0,0.0,0.0,0.0,0.0,0.0,0.0,0.0,0.0,0.0,0.0,0.0,0.0,0.0,0.0,0.0,0.0,0.0,0.0,0.0,0.0,0.0,0.0,0.0,0.0,0.0,0.0,0.0,0.0,0.0,0.0,0.0,0.0,0.0,0.0,0.0,0.0,0.0,0.0,0.0,0.0,0.0,0.0,0.0,0.0,0.0,0.0,0.0,0.0,0.0,0.0,0.0,0.0,0.0,0.0,0.0,0.0,0.0,0.0,0.0,0.0,0.0,0.0,0.0,0.0,0.0,0.0,0.0,0.0,0.0,0.0,0.0,0.0,0.0,0.0,0.0,0.0,0.0,0.0,0.0,0.0,0.0,0.0,0.0,0.0,0.0,0.0,0.0,0.0,0.0,0.0,0.0,0.0,0.0,0.0,0.0,0.0,0.0,0.0,0.0,0.0,0.0,0.0,0.0,0.0,0.0,0.0,0.0,0.0,0.0,0.0,0.0,0.0,0.0,0.0,0.0,0.0,0.0,0.0,0.0,0.0,0.0,0.0,0.0,0.0,0.0,0.0,0.0,0.0,0.0,0.0,0.0,0.0,0.0,0.0,0.0,0.0,0.0,0.0,0.0,0.0,0.0,0.0,0.0,0.0,0.0,0.0,0.0,0.0,0.0,0.0,0.0,0.0,0.0,0.0,0.0,0.0,0.0,0.0,0.0,0.0,0.0,0.0,0.0,0.0,0.0,0.0,0.0,0.0,0.0,0.0,0.0,0.0,0.0,0.0,0.0,0.0,0.0,0.0,0.0,0.0,0.0,0.0,0.0,0.0,0.0,0.0,0.0,0.0,0.0,0.0,0.0,0.0,0.0,0.0,0.0,0.0,0.0,0.0,0.0,0.0,0.0,0.0,0.0,0.0,0.0,0.0,0.0,0.0,0.0,0.0,0.0,0.0,0.0,0.0,0.0,0.0,0.0,0.0,0.0,0.0,0.0,0.0,0.0,0.0,0.0,0.0,0.0,0.0,0.0,0.0,0.0,0.0,0.0,0.0,0.0,0.0,0.0,0.0,0.0,0.0,0.0,0.0,0.0,0.0,0.0,0.0,0.0,0.0,0.0,0.0,0.0,0.0,0.0,0.0,0.0,0.0,0.0,0.0,0.0,0.0,0.0,0.0,0.0,0.0,0.0,0.0,0.0,0.0,0.0,0.0,0.0,0.0,0.0,0.0,0.0,0.0,0.0,0.0,0.0,0.0,0.0,0.0,0.0,0.0,0.0,0.0,0.0,0.0,0.0,0.0,0.0,0.0,0.0,0.0,0.0,0.0,0.0,0.0,0.0,0.0,0.0,0.0,0.0,0.0,0.0,0.0,0.0,0.0,0.0,0.0,0.0,0.0,0.0,0.0,0.0,0.0,0.0,0.0,0.0,0.0,0.0,0.0,0.0,0.0,0.0,0.0,0.0,0.0,0.0,0.0,0.0,0.0,0.0,0.0,0.0,0.0,0.0,0.0,0.0,0.0,0.0,0.0,0.0,0.0,0.0,0.0,0.0,0.0,0.0,0.0,0.0,0.0,0.0,0.0,0.0,0.0,0.0,0.0,0.0,0.0,0.0,0.0,0.0,0.0,0.0,0.0,0.0,0.0,0.0,0.0,0.0,0.0,0.0,0.0,0.0,0.0,0.0,0.0,0.0,0.0,0.0,0.0,0.0,0.0,0.0,0.0,0.0,0.0,0.0,0.0,0.0,0.0,0.0,0.0,0.0,0.0,0.0,0.0,0.0,0.0,0.0,0.0,0.0,0.0,0.0,0.0,0.0,0.0,0.0,0.0,0.0,0.0,0.0,0.0,0.0,0.0,0.0,0.0,0.0,0.0,0.0,0.0,0.0,0.0,0.0,0.0,0.0,0.0,0.0,0.0,0.0,0.0,0.0,0.0,0.0,0.0,0.0,0.0,0.0,0.0,0.0,0.0,0.0,0.0,0.0,0.0,0.0,0.0,0.0,0.0,0.0,0.0,0.0,0.0,0.0,0.0,0.0,0.0,0.0,0.0,0.0,0.0,0.0,0.0,0.0,0.0,0.0,0.0,0.0,0.0,0.0,0.0,0.0,0.0,0.0,0.0,0.0,0.0,0.0,0.0,0.0,0.0,0.0,0.0,0.0,0.0,0.0,0.0,0.0,0.0,0.0,0.0,0.0,0.0,0.0,0.0,0.0,0.0,0.0,0.0,0.0,0.0,0.0,0.0,0.0,0.0,0.0,0.0,0.0,0.0,0.0,0.0,0.0,0.0,0.0,0.0,0.0,0.0,0.0,0.0,0.0,0.0,0.0,0.0,0.0,0.0,0.0,0.0,0.0,0.0,0.0,0.0,0.0,0.0,0.0,0.0,0.0,0.0,0.0,0.0,0.0,0.0,0.0,0.0,0.0,0.0,0.0,0.0,0.0,0.0,0.0,0.0,0.0,0.0,0.0,0.0,0.0,0.0,0.0,0.0,0.0,0.0,0.0,0.0,0.0,0.0,0.0,0.0,0.0,0.0,0.0,0.0,0.0,0.0,0.0,0.0,0.0,0.0,0.0,0.0,0.0,0.0,0.0,0.0,0.0,0.0,0.0,0.0,0.0,0.0,0.0,0.0,0.0,0.0,0.0,0.0,0.0,0.0,0.0,0.0,0.0,0.0,0.0,0.0,0.0,0.0,0.0,0.0,0.0,0.0,0.0,0.0,0.0,0.0,0.0,0.0,0.0,0.0,0.0,0.0,0.0,0.0,0.0,0.0,0.0,0.0,0.0,0.0,0.0,0.0,0.0,0.0,0.0,0.0,0.0,0.0,0.0,0.0,0.0,0.0,0.0,0.0,0.0,0.0,0.0,0.0,0.0,0.0,0.0,0.0,0.0,0.0,0.0,0.0,0.0,0.0,0.0,0.0,0.0,0.0,0.0,0.0,0.0,0.0,0.0,0.0,0.0,0.0,0.0,0.0,0.0,0.0,0.0,0.0,0.0,0.0,0.0,0.0,0.0,0.0,0.0,0.0,0.0,0.0,0.0,0.0,0.0,0.0,0.0,0.0,0.0,0.0,0.0,0.0,0.0,0.0,0.0,0.0,0.0,0.0,0.0,0.0,0.0,0.0,0.0,0.0,0.0,0.0,0.0,0.0,0.0,0.0,0.0,0.0,0.0,0.0,0.0,0.0,0.0,0.0,0.0,0.0,0.0,0.0,0.0,0.0,0.0,0.0,0.0,0.0,0.0,0.0,0.0,0.0,0.0,0.0,0.0,0.0,0.0,0.0,0.0,0.0,0.0,0.0,0.0,0.0,0.0,0.0,0.0,0.0,0.0,0.0,0.0,0.0,0.0,0.0,0.0,0.0,0.0,0.0,0.0,0.0,0.0,0.0,0.0,0.0,0.0,0.0,0.0,0.0,0.0,0.0,0.0,0.0,0.0,0.0,0.0,0.0,0.0,0.0,0.0,0.0,0.0,0.0,0.0,0.0,0.0,0.0,0.0,0.0,0.0,0.0,0.0,0.0,0.0,0.0,0.0,0.0,0.0,0.0,0.0,0.0,0.0,0.0,0.0,0.0,0.0,0.0,0.0,0.0,0.0,0.0,0.0,0.0,0.0,0.0,0.0,0.0,0.0,0.0,0.0,0.0,0.0,0.0,0.0,0.0,0.0,0.0,0.0,0.0,0.0,0.0,0.0,0.0,0.0,0.0,0.0,0.0,0.0,0.0,0.0,0.0,0.0,0.0,0.0,0.0,0.0,0.0,0.0,0.0,0.0,0.0,0.0,0.0,0.0,0.0,0.0,0.0,0.0,0.0,0.0,0.0,0.0,0.0,0.0,0.0,0.0,0.0,0.0,0.0,0.0,0.0,0.0,0.0,0.0,0.0,0.0,0.0,0.0,0.0,0.0,0.0,0.0,0.0,0.0,0.0,0.0,0.0,0.0,0.0,0.0,0.0,0.0,0.0,0.0,0.0,0.0,0.0,0.0,0.0,0.0,0.0,0.0,0.0,0.0,0.0,0.0,0.0,0.0,0.0,0.0,0.0,0.0,0.0,0.0,0.0,0.0,0.0,0.0,0.0,0.0,0.0,0.0,0.0,0.0,0.0,0.0,0.0,0.0,0.0,0.0,0.0,0.0,0.0,0.0,0.0,0.0,0.0,0.0,0.0,0.0,0.0,0.0,0.0,0.0,0.0,0.0,0.0,0.0,0.0,0.0,0.0,0.0,0.0,0.0,0.0,-1.2649,0.0,0.0,0.0,0.0,0.0,0.0,0.0,0.0,0.0,0.0,0.0,0.0,0.0,0.0,0.0,0.0,0.0,0.0,0.0,0.0,0.0,0.0,0.0,0.0,0.0,0.0,0.0,0.0,0.0,0.0,0.0,0.0,0.0,0.0,0.0,0.0,0.0,0.0,0.0,0.3134,0.2975,0.2974,0.3111,0.3358,0.3649,0.0,0.0,0.0,0.0,0.0,0.0,0.0,0.0,0.0,0.0,0.0,0.0,0.0,0.0,0.0,0.0,0.0,0.0,0.0,0.0,0.0,0.0,0.0,0.0,0.0,0.0,0.0,0.0,0.0,0.0,0.0,0.0,0.0,0.0,0.0,0.0,0.0,0.0,0.0,0.0,0.0,0.0,0.0,0.0,0.0,0.0,0.0,0.0,0.0,0.0,0.0,0.0,0.0,0.0,0.0,0.0,0.0,0.0,0.0,0.0,0.0,0.0,0.0,0.0,0.0,0.0,0.0,0.0,0.0,0.0,0.0,-1.3034,0.0,0.0,0.0,0.0,0.0,0.0,0.0,0.0,0.0,0.0,0.0,0.0,0.0,0.0,0.0,0.0,0.0,0.0,0.0,0.0,0.0,0.0,0.0,0.0,0.5701,0.5328,0.5637,0.0,0.0,0.0,0.0,0.0,0.0,0.0,0.0,0.0,0.0,0.0,0.3012,0.2991,0.2828,0.3118,0.3429,0.368,0.3293,0.0,0.0,0.0,0.0,0.0,0.0,0.0,0.0,0.0,0.0,0.0,0.0,0.0,0.0,0.0,0.0,0.0,0.0,0.0,0.0,0.0,0.0,0.0,0.0,0.0,0.0,0.0,0.0,0.0,0.0,0.0,0.0,0.0,0.0,0.0,0.0,0.0,0.0,0.0,0.0,0.0,0.0,0.0,0.0,0.0,0.0,0.0,0.0,0.0,0.0,0.0,0.0,0.0,0.0,0.0,0.0,0.0,0.0,0.0,0.0,0.0,0.0,0.0,-1.1897,-1.2473,-1.2829,-1.3043,-1.3182,-1.3196,-1.19,-1.1932,-1.2955,-1.3945,0.0,0.0,0.0,0.0,0.0,0.0,0.0,0.0,0.0,0.0,0.0,0.0,0.0,0.0,0.0,0.0,0.0,0.0,0.0,0.0,0.0,0.5366,0.5154,0.5285,0.5355,0.5311,0.0,0.0,0.0,0.0,0.0,0.0,0.0,0.2778,0.2774,0.291,0.3425,0.3648,0.3642,0.3802,0.3942,0.408,0.3386,0.3293,0.3561,0.0,0.0,0.0,0.0,0.0,0.0,0.0,0.0,0.0,0.0,0.0,0.0,0.0,0.0,0.0,0.0,0.0,0.0,0.0,0.0,0.0,0.0,0.0,0.0,0.0,0.0,0.0,0.0,0.0,0.0,0.0,0.0,0.0,0.0,0.0,0.0,0.0,0.0,0.0,0.0,0.0,0.0674,0.0357,0.0,0.0,0.0,0.0,0.0,0.0,0.0,0.0,0.0,0.0,0.0,0.0,0.0,-0.8239,-0.8791,-0.96,-1.0103,-1.0266,-1.1376,-1.1532,-1.0891,-1.1496,-1.1701,-1.1627,-1.157,0.0,-1.3148,-1.3319,0.0,0.0,0.0,0.0,0.0,0.0,0.0,0.0,0.0,0.0,0.0,0.0,0.0,0.0,0.0,0.0,0.0,0.0,0.0,0.0,0.0,0.5473,0.5326,0.5295,0.5757,0.5834,0.5335,0.0,0.0,0.0,0.0,0.0,0.309,0.2902,0.3005,0.3405,0.3836,0.3935,0.3807,0.4131,0.4197,0.3968,0.3703,0.3609,0.3554,0.3168,0.0,0.0,0.0,0.0,0.0,0.0,0.0,0.0,0.0,0.0,0.0,0.0,0.0,0.0,0.0,0.0,0.0,0.0,0.0,0.0,0.0,0.0,0.0,0.0,0.0,0.0,0.0,0.0,0.0,0.0,0.0,0.0,0.0,0.0,0.0,0.0,0.0,0.0,0.0,0.0804,0.0252,-0.0286,-0.0424,-0.0957,0.0,0.0,0.0,0.0,0.0,0.0,0.0,0.0,0.0,-0.7057,-0.7809,-0.8372,-0.8602,-0.917,-0.9954,-1.0902,-1.1411,-1.1808,-1.2181,-1.2438,-1.265,-1.2829,-1.2883,-1.2996,-1.3131,-1.2943,-1.329,-1.3995,0.0,0.0,0.0,0.0,-1.5791,-1.5826,0.0,0.0,0.0,0.0,0.0,0.0,0.0,0.0,0.0,0.0,0.0,0.0,0.5864,0.5682,0.5582,0.5538,0.6014,0.615,0.5697,0.538,0.0,0.0,0.0,0.3372,0.3208,0.3126,0.3314,0.3792,0.4212,0.4252,0.4068,0.4502,0.4461,0.4158,0.4121,0.3968,0.3659,0.325,0.3038,0.3017,0.0,0.0,0.0,0.0,0.0,0.0,0.0,0.0,0.0,0.0,0.0,0.0,0.0,0.0,0.0,0.0,0.0,0.0,0.0,0.0,0.0,0.0,0.0,0.0,0.0,0.0,0.0,0.0,0.0,0.0,0.0,0.0,0.0,0.0,0.0,0.0,0.0,0.0563,0.0174,-0.0663,-0.078,-0.1284,0.0,0.0,0.0,0.0,0.0,0.0,-0.4574,-0.6096,-0.6944,-0.6877,-0.7802,-0.8417,-0.8652,-0.9287,-1.0196,-1.1313,-1.1809,-1.2456,-1.3128,-1.3352,-1.3508,-1.3636,-1.3694,-1.3421,-1.2919,-1.2765,-1.2773,-1.2967,-1.369,-1.4307,-1.4797,-1.5037,-1.5157,-1.514,0.0,0.0,0.0,0.0,0.0,0.0,0.0,0.0,0.0,0.0,0.0,0.6261,0.6277,0.5868,0.5746,0.6133,0.5785,0.5657,0.5885,0.5225,0.4741,0.4592,0.43,0.3853,0.3208,0.345,0.3629,0.3792,0.4524,0.4827,0.4837,0.4971,0.5034,0.5014,0.4636,0.4273,0.3958,0.3693,0.3379,0.3159,0.3884,0.0,0.0,0.0,0.0,0.0,0.0,0.0,0.0,0.0,0.0,0.0,0.0,0.0,0.0,0.0,0.0,0.0,0.0,0.0,0.0,0.0,0.0,0.0,0.0,0.0,0.0,0.0,0.0,0.0,0.0,0.0,0.0,0.0,0.0,0.0,0.0,0.0,0.0,-0.0317,-0.0426,0.0,0.0,0.0,0.0,-0.3341,-0.4341,-0.4816,-0.462,-0.5632,-0.6553,-0.7138,-0.7802,-0.8508,-0.9324,-1.0682,-1.1161,-1.074,-1.2621,-1.3023,-1.2221,-1.309,-1.3165,-1.2686,-1.3073,-1.2968,-1.2557,-1.2866,-1.3077,-1.3274,-1.4124,-1.4979,-1.5697,-1.5397,-1.5492,-1.5663,0.0,0.0,0.0,0.0,0.0,0.0,0.0,0.0,0.0,0.715,0.6721,0.6458,0.6619,0.6369,0.6261,0.6356,0.6213,0.6008,0.5682,0.5387,0.5186,0.4981,0.4662,0.4318,0.4061,0.3932,0.4077,0.4518,0.4877,0.5108,0.5206,0.5254,0.5281,0.5332,0.5504,0.5486,0.521,0.4072,0.3486,0.3323,0.3805,0.3922,0.0,0.0,0.0,0.0,0.0,0.0,0.0,0.0,0.0,0.0,0.0,0.0,0.0,0.0,0.0,0.0,0.0,0.0,0.0,0.0,0.0,0.0,0.0,0.0,0.0,0.0,0.0,0.0,0.0,0.0,0.0,0.0,0.0,0.0,0.0,0.0,0.0,-0.0509,-0.0951,0.0,-0.2403,-0.2843,-0.3237,-0.3617,-0.4046,-0.441,-0.4506,-0.5655,-0.6433,-0.6676,-0.7547,-0.8449,-0.9308,-0.9824,-1.0499,-1.1426,-1.1795,-1.219,-1.2502,-1.228,-1.2192,-1.2158,-1.2351,-1.2299,-1.2127,-1.2361,-1.2472,-1.2576,-1.2788,-1.3206,-1.3713,-1.3974,-1.4339,-1.4662,0.0,0.0,0.0,0.0,0.0,0.0,0.0,0.0,0.719,0.719,0.7095,0.7043,0.7143,0.7202,0.7141,0.6842,0.6653,0.6258,0.5766,0.5474,0.5321,0.5346,0.5026,0.4804,0.4667,0.4538,0.4601,0.4989,0.5189,0.5362,0.5508,0.546,0.5666,0.5973,0.6209,0.6455,0.6582,0.5354,0.4525,0.4154,0.4486,0.4539,0.4436,0.0,0.0,0.0,0.0,0.0,0.0,0.0,0.0,0.0,0.0,0.0,0.0,0.0,0.0,0.0,0.0,0.0,0.0,0.0,0.0,0.0,0.0,0.0,0.0,0.0,0.0,0.0,0.0,0.0,0.0,0.0,0.0,0.0,0.0,0.0,0.0243,-0.046,-0.0891,-0.1433,-0.2174,-0.2731,-0.318,-0.3333,-0.3866,-0.4251,-0.4507,-0.5464,-0.6041,-0.6285,-0.7113,-0.7962,-0.8748,-0.9058,-0.9712,-1.0831,-1.0696,-1.1053,-1.1693,-1.1277,-1.1142,-1.1342,-1.1407,-1.1496,-1.1603,-1.1556,-1.1804,-1.2151,-1.2146,-1.2271,-1.2524,-1.3451,-1.4001,-1.4424,0.0,0.0,0.0,0.0,0.0,0.0,0.0,0.7182,0.7175,0.7175,0.7662,0.7946,0.7917,0.8382,0.8371,0.7587,0.6875,0.641,0.6167,0.5392,0.5103,0.5608,0.5488,0.5307,0.5069,0.5241,0.527,0.5138,0.544,0.5661,0.5864,0.5724,0.615,0.7057,0.6777,0.7185,0.801,0.7494,0.6653,0.5621,0.5918,0.578,0.5402,0.0,0.0,0.0,0.0,0.0,0.0,0.0,0.0,0.0,0.0,0.0,0.0,0.0,0.0,0.0,0.0,0.0,0.0,0.0,0.0,0.0,0.0,0.0,0.0,0.0,0.0,0.0,0.0,0.0,0.0,0.0,0.0,0.0,0.0857,0.0867,0.0586,-0.016,-0.0227,-0.0516,-0.1183,-0.1981,-0.2467,-0.2467,-0.3746,-0.4491,-0.4559,-0.4947,-0.5418,-0.6079,-0.6461,-0.6985,-0.7642,-0.8447,-0.8823,-0.8909,-0.9484,-0.9775,-0.9821,-1.0073,-1.0205,-1.0164,-1.034,-1.0579,-1.0932,-1.0616,-1.1095,-1.2075,-1.2292,-1.2359,-1.2519,-1.3954,-1.4683,-1.5132,0.0,0.0,0.0,0.0,0.0,0.0,0.0,0.6986,0.684,0.684,0.7351,0.7735,0.7739,0.8248,0.8301,0.7587,0.661,0.5981,0.5726,0.5073,0.5046,0.5869,0.6078,0.6331,0.664,0.6173,0.5992,0.6067,0.5759,0.5883,0.6545,0.6498,0.6978,0.7915,0.8369,0.8705,0.8949,0.9119,0.873,0.8033,0.6821,0.6163,0.5908,0.0,0.0,0.0,0.0,0.0,0.0,0.0,0.0,0.0,0.0,0.0,0.0,0.0,0.0,0.0,0.0,0.0,0.0,0.0,0.0,0.0,0.0,0.0,0.0,0.0,0.0,0.0,0.0,0.0,0.0,0.0,0.0,0.1923,0.0946,0.0725,0.0603,0.0471,-0.012,-0.0548,-0.0612,-0.1542,-0.2168,-0.2168,-0.3272,-0.4074,-0.4167,-0.4869,-0.5425,-0.5557,-0.5686,-0.6141,-0.6981,-0.7049,-0.7603,-0.8696,-0.8857,-0.9266,-0.9789,-0.974,-0.9653,-0.9542,-0.9766,-0.9904,-0.9977,-0.9974,-1.0331,-1.0938,-1.1783,-1.2499,-1.3226,-1.4321,-1.5125,-1.5725,0.0,0.0,0.0,0.0,0.0,0.0,0.0,0.6826,0.6702,0.6702,0.7636,0.818,0.8033,0.8601,0.8581,0.7451,0.6584,0.5814,0.5277,0.5191,0.5386,0.5843,0.6778,0.7213,0.7039,0.6807,0.6789,0.6976,0.6351,0.6476,0.7456,0.7381,0.7915,0.8907,0.9328,0.9696,1.0056,1.0053,0.9922,0.9472,0.8142,0.7338,0.7005,0.666,0.6568,0.6555,0.578,0.577,0.6096,0.5719,0.0,0.0,0.0,0.0,0.0,0.0,0.0,0.0,0.0,0.0,0.0,0.0,0.0,0.0,0.0,0.0,0.0,0.0,0.0,0.0,0.0,0.0,0.0,0.0,0.2796,0.2288,0.1539,0.1065,0.0758,0.075,0.0318,0.0,0.0,-0.0917,-0.1506,-0.1506,-0.2591,-0.3353,-0.3751,-0.4287,-0.4758,-0.5027,-0.5093,-0.5391,-0.5834,-0.5986,-0.6533,-0.7405,-0.7533,-0.8081,-0.891,-0.8685,-0.8776,-0.917,-0.9242,-0.94,-0.9596,-0.9518,-0.9794,0.0,0.0,0.0,0.0,0.0,-1.4731,-1.5192,0.0,0.0,0.0,0.0,0.0,0.0,0.0,0.6739,0.6702,0.6702,0.807,0.8834,0.8371,0.9053,0.8837,0.7133,0.6556,0.5882,0.5104,0.5693,0.6041,0.5888,0.7452,0.7913,0.6949,0.7305,0.7598,0.7822,0.7078,0.7329,0.8408,0.8303,0.8882,0.9986,0.9917,1.0307,1.0932,1.0616,1.0469,1.0315,0.9719,0.9058,0.8361,0.767,0.7561,0.7641,0.6481,0.6112,0.6129,0.5782,0.0,0.0,0.0,0.0,0.0,0.0,0.0,0.0,0.0,0.0,0.0,0.0,0.0,0.0,0.0,0.0,0.0,0.0,0.0,0.0,0.0,0.0,0.0,0.0,0.3358,0.2781,0.2451,0.1676,0.1071,0.0841,0.0797,0.0743,0.0542,-0.0203,-0.0609,-0.061,-0.1621,-0.256,-0.3165,0.0,0.0,0.0,0.0,-0.4748,-0.4626,-0.5149,-0.5525,-0.5715,-0.5976,-0.6583,-0.7551,-0.7385,-0.7875,-0.8837,-0.8788,-0.904,-0.9448,-0.9115,-0.9418,-1.0197,-1.0777,-1.1211,-1.1659,-1.3391,-1.4024,-1.4182,0.0,0.0,0.0,0.0,0.0,0.0,0.0,0.6956,0.6702,0.6702,0.7437,0.7905,0.7685,0.8127,0.7847,0.6392,0.6069,0.5897,0.587,0.6365,0.6748,0.7056,0.7948,0.8488,0.854,0.8353,0.8442,0.87,0.7889,0.8024,0.9135,0.9087,0.9531,1.0363,1.0685,1.0542,1.0212,1.1224,1.1348,1.0914,1.1577,1.0792,0.9246,0.8851,0.8918,0.8961,0.7635,0.7292,0.7318,0.6469,0.6165,0.6206,0.6389,0.0,0.0,0.0,0.0,0.0,0.0,0.0,0.0,0.0,0.0,0.0,0.0,0.0,0.0,0.0,0.0,0.0,0.0,0.0,0.0,0.4237,0.4077,0.383,0.3242,0.2406,0.1656,0.1133,0.0873,0.0815,0.0763,0.0486,0.0351,0.0358,-0.0632,-0.1317,-0.1454,-0.2918,-0.3823,-0.3959,-0.4395,-0.465,-0.4623,-0.4505,-0.4718,-0.5262,0.0,0.0,-0.6529,-0.7298,-0.7729,-0.7978,-0.8433,-0.8714,-0.8862,-0.8781,-0.94,-1.0517,-1.1421,-1.228,-1.3096,-1.3915,-1.4408,-1.4732,0.0,0.0,0.0,0.0,0.0,0.0,0.0,0.7318,0.6956,0.6739,0.7131,0.743,0.7351,0.7502,0.7167,0.6056,0.5549,0.5646,0.6381,0.6808,0.7072,0.7284,0.837,0.8764,0.8236,0.857,0.8769,0.8931,0.8513,0.869,0.9497,0.9619,1.0014,1.0519,1.0738,1.0887,1.0956,1.1487,1.1637,1.1637,1.197,1.1567,1.0725,1.0292,1.0112,0.9876,0.8508,0.8042,0.7872,0.6871,0.6424,0.6327,0.6465,0.655,0.6634,0.0,0.0,0.0,0.0,0.0,0.0,0.0,0.0,0.0,0.0,0.0,0.0,0.0,0.0,0.485,0.0,0.0,0.5082,0.5052,0.4748,0.4446,0.4118,0.3279,0.2443,0.1676,0.1211,0.0947,0.096,0.0834,0.077,0.0701,0.014,-0.0347,-0.0754,-0.1622,-0.2347,-0.2817,-0.3392,-0.3702,-0.377,-0.3906,-0.4131,-0.4459,-0.449,-0.4948,-0.5773,-0.6258,-0.6684,-0.71,-0.7491,-0.7645,-0.7596,-0.7968,-0.8609,-0.9464,-1.054,-1.1866,-1.3247,-1.3888,-1.4319,-1.4606,0.0,0.0,0.0,0.0,0.0,0.0,0.0,0.0,0.7213,0.6751,0.6952,0.7076,0.7038,0.6976,0.666,0.5896,0.5278,0.5553,0.6991,0.7285,0.7505,0.7711,0.8935,0.9107,0.7903,0.8748,0.9091,0.9107,0.9181,0.9314,0.9645,0.9979,1.0279,1.0588,1.0663,1.1105,1.1909,1.1755,1.1951,1.2352,1.2241,1.2267,1.2282,1.1629,1.1164,1.0709,0.9207,0.8584,0.8237,0.7155,0.6655,0.6422,0.655,0.6592,0.6592,0.6592,0.6592,0.0,0.0,0.0,0.0,0.0,0.0,0.0,0.0,0.0,0.6194,0.5564,0.5457,0.5418,0.5176,0.5311,0.5563,0.5888,0.545,0.5006,0.4963,0.41,0.3159,0.2483,0.172,0.127,0.1209,0.1034,0.0905,0.0823,0.0694,0.0416,-0.0204,-0.0402,-0.0866,-0.1597,-0.2254,-0.2625,-0.2683,-0.325,-0.3556,-0.3574,-0.3574,-0.4012,-0.478,-0.4886,-0.5276,-0.5981,-0.6465,-0.6523,-0.6359,-0.6973,-0.7592,-0.83,-0.9187,-1.0774,-1.2625,-1.3429,-1.3901,-1.4189,0.0,0.0,0.0,0.0,0.0,0.0,0.0,0.0,0.0,0.6747,0.6752,0.6673,0.6407,0.6409,0.6277,0.5998,0.5627,0.6173,0.8011,0.8165,0.8557,0.9491,0.9873,0.9801,0.9366,0.9757,0.9757,0.9448,0.9898,0.9926,0.9529,0.9919,1.0352,1.0812,1.1111,1.1323,1.1533,1.2778,1.3055,1.286,1.3334,1.3491,1.3317,1.2484,1.2026,1.1585,0.9789,0.898,0.8581,0.755,0.7043,0.6914,0.737,0.7538,0.7538,0.7538,0.0,0.7545,0.7587,0.7628,0.7628,0.7628,0.753,0.7384,0.0,0.0,0.6687,0.5846,0.5758,0.5704,0.5337,0.56,0.5892,0.615,0.5944,0.5748,0.5619,0.469,0.3843,0.3475,0.2442,0.1766,0.1677,0.131,0.106,0.0866,0.0851,0.084,0.0767,-0.0133,-0.0647,-0.0711,-0.147,-0.1837,-0.1832,-0.2347,-0.2641,-0.2633,-0.2738,-0.2903,-0.3012,-0.3382,-0.3857,-0.451,-0.5678,-0.6147,-0.605,-0.6149,-0.6987,-0.8211,-0.8294,-0.9499,-1.1339,-1.2295,-1.3067,-1.3648,0.0,0.0,0.0,0.0,0.0,0.0,0.0,0.0,0.0,0.0,0.6674,0.6434,0.6307,0.6028,0.5859,0.5923,0.5957,0.6613,0.8219,0.8825,0.9577,1.0508,1.0691,1.049,0.9984,1.0137,1.0072,0.9658,1.0255,1.0474,1.0364,1.073,1.1144,1.1687,1.1835,1.2211,1.2659,1.3266,1.3557,1.3578,1.3753,1.3504,1.3042,1.1882,1.1186,1.0567,0.9427,0.8736,0.0,0.0,0.7015,0.7104,0.7353,0.7558,0.7712,0.7712,0.7712,0.0,0.7712,0.7712,0.7807,0.0,0.823,0.8263,0.847,0.8384,0.8117,0.7506,0.7379,0.7136,0.6519,0.6536,0.659,0.0,0.6237,0.6094,0.5859,0.529,0.4699,0.4181,0.3291,0.261,0.235,0.2262,0.2058,0.1597,0.1605,0.1588,0.1472,0.0718,0.0448,0.069,-0.03,-0.0881,-0.0939,-0.1535,-0.1828,-0.1845,-0.2008,-0.2093,-0.2211,-0.2412,-0.2755,-0.3163,-0.3761,-0.413,-0.4366,-0.4496,-0.5182,-0.6168,-0.6726,-0.7899,-0.9557,-1.148,-1.2777,-1.3082,0.0,0.0,0.0,0.0,0.0,0.0,0.0,0.0,0.0,0.0,0.6825,0.6521,0.646,0.5958,0.5724,0.5936,0.6011,0.6608,0.7975,0.8826,0.9783,1.1104,1.1263,1.1158,1.0679,1.0756,1.0615,1.026,1.0737,1.1039,1.1118,1.139,1.1774,1.2352,1.2352,1.2879,1.3637,1.3637,1.3795,1.4016,1.3791,1.327,1.2445,1.1327,1.0242,0.9276,0.8708,0.8222,0.774,0.7048,0.7011,0.7227,0.7316,0.7488,0.7712,0.7712,0.7712,0.7734,0.7821,0.0,0.0,0.8663,0.8816,0.8907,0.935,0.9368,0.9056,0.8555,0.8435,0.8154,0.739,0.713,0.6934,0.6634,0.6363,0.6097,0.5907,0.5533,0.5098,0.459,0.3901,0.342,0.3282,0.2999,0.2725,0.2293,0.2206,0.2127,0.2168,0.158,0.1371,0.1643,0.0766,0.0174,-0.0116,-0.0679,-0.0995,-0.1078,-0.1186,-0.1277,-0.14,-0.1618,-0.1754,-0.1852,-0.2192,-0.2564,-0.2846,-0.2838,-0.3362,-0.4279,-0.4905,-0.6157,-0.7924,-1.0164,-1.1818,-1.2243,0.0,0.0,0.0,0.0,0.0,0.0,0.0,0.0,0.0,0.0,0.0,0.0,0.0,0.6335,0.6004,0.6079,0.5626,0.5942,0.7445,0.7843,0.901,1.12,1.1586,1.1817,1.1964,1.1977,1.1749,1.1354,1.1607,1.1533,1.1366,1.162,1.2003,1.2599,1.2599,1.3185,1.4057,1.4057,1.4009,1.3777,1.3631,1.2989,1.1958,1.1192,0.9756,0.8077,0.7621,0.7432,0.7384,0.7224,0.7188,0.7251,0.7593,0.7696,0.0,0.7712,0.7712,0.7785,0.0,0.0,0.8341,0.8999,0.9096,0.9069,0.9341,0.9368,0.9061,0.8302,0.8251,0.8161,0.7435,0.6988,0.6782,0.6934,0.6191,0.565,0.5707,0.5243,0.486,0.4688,0.4284,0.4122,0.0,0.3286,0.2565,0.277,0.2224,0.2162,0.2772,0.2156,0.1768,0.1765,0.1652,0.1289,0.0674,0.0056,-0.0224,-0.0224,-0.0224,-0.0336,-0.0446,-0.0782,-0.0706,-0.0401,-0.153,-0.2012,-0.2008,-0.1425,-0.1993,-0.3212,-0.2863,-0.4299,-0.6717,-0.8037,-0.979,-1.0893,0.0,0.0,0.0,0.0,0.0,0.0,0.0,0.0,0.0,0.0,0.0,0.0,0.0,0.0,0.0,0.0,0.624,0.6498,0.6983,0.8006,0.9114,1.0316,1.1033,1.141,1.1496,1.1491,1.1478,1.1334,1.1603,1.192,1.213,1.227,1.2632,1.3132,1.3255,1.3393,1.3523,1.3434,1.3336,1.3108,1.2463,1.1688,1.0812,0.9813,0.8731,0.7706,0.0,0.6893,0.6666,0.6633,0.6875,0.7193,0.7084,0.7334,0.7712,0.7712,0.7865,0.8063,0.8173,0.0,0.8948,0.9365,0.9621,0.9809,1.013,1.0099,0.982,0.9275,0.9207,0.8883,0.7827,0.7307,0.7043,0.711,0.6378,0.6015,0.6697,0.5936,0.5313,0.5246,0.4638,0.0,0.0,0.0,0.0,0.3502,0.3462,0.3469,0.3461,0.2893,0.2673,0.301,0.2193,0.1623,0.1455,0.1231,0.1107,0.1081,0.1373,0.141,0.12,0.0661,0.0397,0.0339,-0.0378,-0.0689,-0.067,-0.0357,-0.0668,-0.1417,-0.1993,-0.1771,-0.1326,-0.239,-0.2076,-0.0986,0.0,0.0,0.0,0.0,0.0,0.0,0.0,0.0,0.0,0.0,0.0,0.0,0.0,0.0,0.0,0.0,0.0,0.6536,0.6536,0.7455,0.843,0.9359,0.9969,1.0409,1.0544,1.0379,1.0345,1.0521,1.0592,1.093,1.1494,1.1849,1.2219,1.2554,1.2899,1.3081,1.301,1.2716,1.2588,1.2394,1.1662,1.085,0.9932,0.9201,0.8388,0.0,0.7187,0.6876,0.6665,0.6634,0.7065,0.7596,0.739,0.7618,0.7942,0.7893,0.8121,0.8421,0.8648,0.9102,0.9577,0.9885,1.0119,1.0265,1.0243,1.0125,0.9893,0.9372,0.9228,0.8951,0.8152,0.7544,0.7205,0.7301,0.6572,0.6281,0.7072,0.6444,0.5935,0.6044,0.5318,0.4849,0.0,0.0,0.0,0.4116,0.4137,0.4173,0.4206,0.3571,0.3367,0.3685,0.2847,0.2347,0.2124,0.2124,0.2101,0.2054,0.238,0.2391,0.2155,0.1669,0.133,0.1235,0.0844,0.0734,0.0714,0.0938,0.0936,0.0794,0.0723,0.1559,0.2814,0.2472,0.4387,0.7097,0.0,0.0,0.0,0.0,0.0,0.0,0.0,0.0,0.0,0.0,0.0,0.0,0.0,0.0,0.0,0.0,0.0,0.0,0.6075,0.6275,0.6959,0.8319,0.8543,0.8831,0.9292,0.8791,0.8682,0.9067,0.876,0.8953,0.956,1.0399,1.0828,1.0974,1.1731,1.2172,1.2336,1.1903,1.1627,1.1465,1.1176,1.0326,0.9268,0.9353,0.8649,0.7607,0.746,0.739,0.7381,0.7283,0.7753,0.0,0.8386,0.8387,0.8338,0.823,0.8489,0.8886,0.9497,0.9916,1.0247,1.0549,1.0607,1.0375,0.9738,0.9577,0.9344,0.8623,0.8493,0.8447,0.0,0.0,0.7272,0.7472,0.6822,0.6402,0.6967,0.6724,0.6667,0.0,0.0,0.0,0.0,0.0,0.0,0.4755,0.0,0.4333,0.4897,0.4236,0.3852,0.3852,0.3683,0.3347,0.2792,0.2792,0.2792,0.2792,0.2792,0.2745,0.255,0.2252,0.2168,0.2274,0.2137,0.2053,0.2097,0.2413,0.2758,0.3197,0.4833,0.5505,0.5683,0.6397,0.9364,1.2954,0.0,0.0,0.0,0.0,0.0,0.0,0.0,0.0,0.0,0.0,0.0,0.0,0.0,0.0,0.0,0.0,0.0,0.0,0.5696,0.5891,0.618,0.6553,0.7299,0.7782,0.7898,0.8309,0.8551,0.864,0.8839,0.8926,0.9027,0.9329,0.9606,0.9827,1.0203,1.0585,1.0906,1.0475,1.0365,1.0373,0.9649,0.9024,0.8584,0.8894,0.8638,0.8179,0.8639,0.0,0.0,0.0,0.0,0.0,0.0,0.8008,0.7584,0.8077,0.8913,0.9842,1.0226,1.0792,1.1161,1.0989,1.0424,0.976,0.9372,0.9102,0.8754,0.8249,0.8222,0.8157,0.0,0.0,0.0,0.7847,0.7318,0.0,0.8458,0.8103,0.0,0.8034,0.0,0.7036,0.6791,0.6769,0.0,0.0,0.5684,0.5247,0.5062,0.4849,0.4736,0.4622,0.4177,0.3843,0.3674,0.3674,0.3846,0.4187,0.4187,0.4059,0.3767,0.3666,0.3574,0.3348,0.2943,0.2843,0.3061,0.3278,0.3453,0.3621,0.4424,0.6855,0.9912,0.9973,1.322,1.7601,0.0,0.0,0.0,0.0,0.0,0.0,0.0,0.0,0.0,0.0,0.0,0.0,0.0,0.0,0.0,0.0,0.0,0.0,0.0,0.5951,0.5907,0.5726,0.636,0.6593,0.6385,0.711,0.7377,0.7187,0.7477,0.7714,0.7878,0.8229,0.8585,0.8999,0.9409,0.9778,0.9996,0.9592,0.9438,0.0,0.0,0.8525,0.859,0.8808,0.8868,0.0,0.0,0.0,0.0,0.0,0.0,0.8657,0.8823,0.8617,0.8465,0.909,0.0,1.1096,1.156,1.2149,1.2547,1.1867,1.0939,1.0089,0.9478,0.8894,0.8377,0.7954,0.7939,0.0,0.0,0.0,0.0,0.0,0.0,0.0,0.8692,0.8627,0.8528,0.0,0.8477,0.0,0.81,0.7816,0.7606,0.0,0.6776,0.6144,0.5609,0.5773,0.5719,0.5395,0.5003,0.478,0.478,0.4835,0.5113,0.5559,0.5609,0.5515,0.5168,0.5023,0.4878,0.4697,0.0,0.4243,0.437,0.4496,0.4842,0.5375,0.6479,0.9211,1.266,1.348,1.6113,1.9298,0.0,0.0,0.0,0.0,0.0,0.0,0.0,0.0,0.0,0.0,0.0,0.0,0.0,0.0,0.0,0.0,0.0,0.0,0.0,0.0,0.0,0.0,0.5834,0.5748,0.5333,0.5957,0.6089,0.5678,0.5907,0.6275,0.6787,0.7326,0.7842,0.8368,0.8992,0.9305,0.9303,0.8953,0.8818,0.8787,0.8444,0.8518,0.8922,0.0,0.0,0.0,0.0,0.0,0.0,0.0,0.9999,0.9623,0.9682,0.9794,1.0027,1.0545,1.1513,1.2547,1.3055,1.3666,1.3926,1.2885,1.1856,1.0797,0.9817,0.8888,0.8142,0.7854,0.0,0.7712,0.7712,0.0,0.7588,0.7776,0.0,0.7881,0.8443,0.8736,0.9012,0.9267,0.9277,0.9361,0.9599,0.894,0.8465,0.8503,0.7792,0.7079,0.6372,0.6745,0.675,0.6218,0.605,0.5991,0.5991,0.6105,0.6376,0.674,0.6876,0.6802,0.6544,0.6335,0.6202,0.6174,0.5962,0.5893,0.5893,0.5973,0.6596,0.7725,0.9505,1.1777,1.4295,1.6266,1.7947,1.9355,0.0,0.0,0.0,0.0,0.0,0.0,0.0,0.0,0.0,0.0,0.0,0.0,0.0,0.0,0.0,0.0,0.0,0.0,0.0,0.0,0.0,0.0,0.6598,0.6575,0.6503,0.6633,0.665,0.6569,0.6627,0.6841,0.7188,0.7298,0.7589,0.7978,0.8128,0.8287,0.8415,0.8342,0.8311,0.8332,0.8642,0.8839,0.8994,0.0,0.0,0.0,0.0,0.0,0.0,0.0,1.0299,1.0238,1.0531,1.0702,1.0802,1.1139,1.2476,1.3862,1.42,1.4451,1.4364,1.3835,1.229,1.0714,1.0111,0.9131,0.0,0.0,0.0,0.7712,0.7712,0.7572,0.0,0.793,0.0,0.0,0.0,0.0,0.9501,0.0,0.0,0.0,0.0,0.0,0.0,0.0,0.0,0.8302,0.7176,0.7283,0.7283,0.7074,0.6972,0.6864,0.6864,0.6918,0.7122,0.7511,0.7206,0.7234,0.746,0.741,0.7468,0.7534,0.7454,0.0,0.7459,0.797,0.8383,0.8875,1.0592,1.2769,1.5067,1.5943,1.7731,1.9719,0.0,0.0,0.0,0.0,0.0,0.0,0.0,0.0,0.0,0.0,1.1259,1.0634,0.0,0.0,0.0,0.0,0.0,0.0,0.0,0.0,0.0,0.0,0.0,0.0,0.0,0.7717,0.7748,0.7386,0.0,0.7739,0.7966,0.7728,0.7845,0.8268,0.8268,0.8246,0.8215,0.8358,0.8466,0.86,0.8818,0.916,0.0,0.0,0.0,0.0,0.0,0.0,0.0,0.0,1.0773,1.0689,1.0505,1.072,1.1144,1.1897,1.3259,1.4703,1.5267,1.5708,1.5794,1.4706,1.3125,1.163,1.0722,0.0,0.0,0.0,0.8373,0.8085,0.8085,0.0,0.0,0.0,0.0,0.0,0.0,0.0,0.0,0.0,0.0,0.0,0.0,0.0,0.0,0.0,0.0,0.919,0.7937,0.7818,0.7913,0.8171,0.7765,0.7664,0.7984,0.7984,0.8389,0.9186,0.8783,0.8736,0.9002,0.861,0.845,0.8514,0.8618,0.0,0.8865,0.9627,1.021,1.0666,1.1838,1.3649,1.5694,1.6321,1.7897,1.9725,0.0,0.0,0.0,0.0,0.0,0.0,0.0,1.1922,1.2071,1.2802,1.2525,1.1963,1.1259,1.0449,0.0,0.0,0.0,0.0,0.0,0.0,0.0,0.0,0.0,0.0,0.0,0.0,0.0,0.8127,0.8396,0.0,0.0,0.0,0.0,0.0,0.8784,0.8589,0.8301,0.8572,0.8767,0.0,0.0,0.9578,0.0,0.0,0.0,0.0,0.0,0.0,0.0,0.0,1.1055,1.0893,1.0394,1.0813,1.1637,1.2383,1.3895,1.5435,1.5933,1.6709,1.6982,1.5332,1.3984,1.2704,1.1369,1.0107,0.0,0.0,0.8854,0.8578,0.8537,0.0,0.0,0.0,0.0,0.0,0.0,0.0,0.0,0.0,0.0,0.0,0.0,0.0,0.0,0.0,0.0,0.0,0.904,0.881,0.8954,0.9415,0.8849,0.8758,0.9235,0.9235,0.9747,1.0821,1.0409,1.0339,1.0514,0.9846,0.958,0.9602,0.9799,0.0,0.0,1.1183,1.1919,1.2535,1.3298,1.4703,1.6426,1.7147,1.8362,1.9707,0.0,0.0,0.0,0.0,0.0,0.0,0.0,1.2429,1.2841,1.4065,1.3118,1.2408,1.2758,1.1804,0.0,0.0,0.0,0.0,0.0,0.0,0.0,0.0,0.0,0.0,0.0,0.0,0.0,0.8908,0.8935,0.0,0.0,0.0,0.0,0.0,0.0,0.9101,0.8589,0.8839,0.0,0.0,0.0,0.0,0.0,0.0,0.0,0.0,0.0,0.0,0.0,0.0,0.0,1.0643,1.0565,1.1538,1.2657,1.2357,0.0,0.0,1.6064,1.6709,1.7061,1.5693,1.4369,1.3114,1.1875,0.0,0.0,0.9746,0.9399,0.9105,0.8984,0.8895,0.8871,0.0,0.0,0.9031,0.0,0.0,0.0,0.0,0.0,0.0,0.0,0.0,0.0,0.0,0.0,0.0,1.0947,1.0821,1.0754,1.0805,1.0602,1.0559,1.061,1.061,1.0922,1.1493,1.1099,1.1177,1.165,1.1187,1.1114,1.126,1.1303,0.0,0.0,1.2692,1.3347,1.4101,1.5154,1.6342,1.7555,1.8416,1.9213,1.9923,0.0,0.0,0.0,0.0,0.0,0.0,0.0,1.2574,1.2775,1.368,1.3243,1.2805,1.2697,1.1964,1.1093,0.0,0.0,0.0,0.0,0.0,0.0,0.0,0.0,0.0,0.0,0.0,0.0,0.9528,0.9699,0.0,0.0,0.0,0.0,0.0,0.0,0.9262,0.8866,0.0,0.0,0.0,0.0,0.0,0.0,0.0,0.0,0.0,0.0,0.0,0.0,0.0,0.0,0.0,1.0382,1.1045,0.0,0.0,1.3608,1.5133,1.5723,1.6315,1.6523,1.5533,1.4284,1.3045,1.2073,0.0,1.0302,1.0302,0.9961,0.9664,0.9616,0.9377,0.9168,0.9136,0.0,0.0,0.0,0.0,0.0,0.0,0.0,0.0,0.0,0.0,0.0,0.0,0.0,0.0,1.2215,1.1434,1.1166,1.1466,1.1065,1.0973,1.1292,1.1657,1.219,1.2803,1.2771,1.2836,1.2946,1.2512,1.2226,1.202,1.2437,0.0,0.0,1.4241,1.4977,1.5687,1.6632,1.782,1.9022,1.9191,1.9973,2.0871,0.0,0.0,0.0,0.0,0.0,0.0,1.2962,1.2847,1.2939,1.367,1.3395,1.304,1.2745,1.1741,1.0733,0.9877,0.0,0.0,0.0,0.0,0.0,0.0,0.0,0.0,0.0,0.0,0.0,1.0122,1.0506,1.043,0.0,0.0,1.0005,0.9751,0.0,0.0,0.0,0.0,0.0,0.0,0.0,0.0,0.0,0.0,0.0,0.0,0.0,0.0,0.0,0.0,0.0,0.0,0.0,0.0,0.0,0.0,1.2984,1.4304,1.4984,1.5661,1.5939,1.4989,1.3992,1.2939,0.0,0.0,1.0659,1.0659,1.0438,1.0215,1.0166,0.9922,0.9677,0.9607,0.0,0.9567,0.0,0.0,0.0,0.0,0.0,0.0,0.0,0.0,0.0,0.0,0.0,0.0,1.3296,1.2502,1.2141,1.2395,1.2092,1.2092,1.2511,1.2976,1.3538,1.41,1.3961,1.3975,1.4065,1.3474,1.3071,1.2879,1.3544,0.0,0.0,1.5487,1.6302,1.6955,1.7735,1.8894,2.0104,2.0038,2.0849,2.1879,0.0,0.0,0.0,0.0,0.0,0.0,0.0,1.3396,1.3691,1.4481,1.3705,1.3114,1.3202,1.123,0.9878,0.9809,0.0,0.0,0.0,0.0,0.0,0.0,0.0,0.0,0.0,0.0,0.0,1.0681,1.1353,1.1339,1.0694,1.1353,1.1184,1.0285,0.0,0.0,0.0,0.0,0.0,0.0,0.0,0.0,0.0,0.0,0.0,0.0,0.0,0.0,0.0,0.0,0.0,0.0,0.0,0.0,1.1895,0.0,1.2182,1.3892,1.3902,1.4844,1.5459,1.414,1.3481,1.2859,0.0,0.0,1.0784,1.0784,1.0784,1.0746,1.0621,1.0582,1.0582,1.0582,1.0582,0.0,0.0,0.0,0.0,0.0,0.0,0.0,0.0,0.0,0.0,0.0,0.0,0.0,1.4305,1.4422,1.4272,1.3768,1.4226,1.4549,1.4652,1.4652,1.4903,1.525,1.4347,1.4269,1.4942,1.3939,1.3695,1.4117,0.0,0.0,0.0,1.637,1.7065,1.7838,1.8393,1.9408,2.0644,2.1033,2.1943,2.2825,0.0,0.0,0.0,0.0,0.0,0.0,0.0,1.317,1.3235,1.3538,1.3107,1.2787,1.2907,1.1731,1.0725,1.0242,0.0,0.0,0.0,0.0,0.0,0.0,0.0,0.0,0.0,0.0,0.0,1.1787,1.201,1.2071,1.1993,1.1799,1.1465,1.103,1.0556,0.0,0.0,0.0,0.0,0.0,0.0,0.0,0.0,0.0,0.0,0.0,0.0,0.0,0.0,0.0,0.0,0.0,0.0,0.0,0.0,1.1737,1.2484,1.3486,1.382,1.4183,1.4419,1.4106,1.3434,1.2757,1.2377,0.0,1.17,1.17,1.1479,1.1255,1.1217,1.1217,1.118,1.1094,1.1319,0.0,0.0,0.0,0.0,0.0,0.0,0.0,0.0,0.0,0.0,0.0,0.0,0.0,1.456,1.4926,1.4869,1.4318,1.479,1.505,1.5106,1.5835,1.6268,1.6371,1.6156,1.6175,1.6425,1.5742,1.5372,0.0,0.0,0.0,0.0,1.735,1.7959,1.8535,1.8966,1.9836,2.0919,2.1221,2.2046,2.2927,0.0,0.0,0.0,0.0,0.0,0.0,0.0,1.3066,1.3067,1.3156,1.2924,1.2815,1.2979,1.2146,1.1426,1.1042,0.0,0.0,0.0,0.0,0.0,0.0,0.0,0.0,0.0,0.0,0.0,1.2159,1.2643,1.2791,1.2601,1.2724,1.2341,1.1521,1.1462,0.0,0.0,0.0,0.0,0.0,0.0,0.0,1.2638,0.0,0.0,0.0,0.0,0.0,0.0,0.0,0.0,0.0,0.0,0.0,0.0,0.0,1.2849,1.3228,0.0,1.3597,1.3699,1.3602,1.3122,0.0,0.0,0.0,1.2113,1.2138,1.1957,1.1763,1.1763,1.1763,1.1726,1.1616,1.1799,0.0,0.0,0.0,0.0,0.0,0.0,0.0,0.0,0.0,0.0,0.0,0.0,0.0,1.5499,1.6015,1.6089,1.5672,1.5847,1.5923,1.5885,1.6563,1.6877,1.6757,1.6572,1.6662,1.6963,1.6394,1.6127,0.0,0.0,0.0,0.0,1.8139,1.8717,1.912,1.946,2.0266,2.1287,2.1752,2.2573,2.3369,0.0,0.0,0.0,0.0,0.0,0.0,0.0,0.0,0.0,0.0,1.3139,1.3086,1.3278,1.2523,1.1992,0.0,0.0,0.0,0.0,0.0,0.0,0.0,0.0,0.0,0.0,0.984,1.081,1.2009,1.3318,1.353,1.278,1.4042,1.3658,1.1931,1.2805,0.0,0.0,0.0,0.0,0.0,0.0,0.0,0.0,0.0,0.0,0.0,0.0,0.0,0.0,0.0,0.0,0.0,0.0,0.0,0.0,0.0,0.0,0.0,0.0,1.3037,0.0,0.0,0.0,0.0,0.0,0.0,0.0,1.2282,1.227,1.2246,1.2246,1.2246,1.2246,1.2174,0.0,0.0,0.0,0.0,0.0,0.0,0.0,0.0,0.0,0.0,0.0,0.0,0.0,0.0,1.6764,1.7343,1.7651,1.7571,1.7221,1.705,1.7052,1.6995,1.6918,1.6782,1.6066,1.6143,1.6849,1.6253,1.6223,0.0,0.0,0.0,0.0,1.8753,1.9276,1.9638,1.9846,2.0571,2.1608,2.2496,2.3342,2.3939,0.0,0.0,0.0,0.0,0.0,0.0,0.0,0.0,0.0,0.0,0.0,1.3261,1.3278,1.3024,0.0,0.0,0.0,0.0,0.0,0.0,0.0,0.0,0.0,0.0,0.0,1.0463,1.1417,1.3114,1.3998,1.4417,1.4382,1.4777,1.4507,1.3668,1.3404,0.0,0.0,0.0,0.0,0.0,0.0,0.0,0.0,0.0,0.0,0.0,1.3446,1.3344,0.0,0.0,0.0,0.0,0.0,0.0,0.0,0.0,1.3425,1.3348,1.303,0.0,1.3215,1.3129,1.3092,0.0,0.0,0.0,0.0,0.0,0.0,0.0,0.0,0.0,0.0,0.0,0.0,0.0,0.0,0.0,0.0,0.0,0.0,0.0,0.0,0.0,0.0,0.0,0.0,1.6676,1.6195,1.6587,1.6972,1.727,1.7401,1.7811,1.859,1.7963,1.8041,1.872,1.7548,1.7246,1.7713,1.7087,1.7134,0.0,0.0,1.8404,1.8784,1.9265,1.962,1.9852,2.0104,2.0366,2.0789,2.232,2.2943,2.3163,0.0,0.0,0.0,0.0,0.0,0.0,0.0,0.0,0.0,0.0,0.0,0.0,0.0,0.0,0.0,0.0,0.0,0.0,0.0,0.0,0.0,0.0,0.0,0.0,0.0,0.0,1.2065,1.3642,1.4212,1.4694,1.5045,0.0,0.0,0.0,0.0,0.0,0.0,0.0,0.0,0.0,1.3947,0.0,0.0,0.0,0.0,0.0,1.4,1.4,0.0,1.3967,1.3967,1.3967,0.0,0.0,0.0,0.0,1.3967,1.392,1.374,1.3631,1.3517,1.3389,1.3356,1.3454,0.0,0.0,0.0,0.0,0.0,0.0,0.0,0.0,0.0,0.0,0.0,0.0,0.0,0.0,0.0,0.0,0.0,0.0,0.0,0.0,0.0,0.0,0.0,1.6894,1.6578,1.7084,1.748,1.7687,1.7654,1.7974,1.8759,1.802,1.799,1.8706,1.7796,1.7529,1.7864,1.7719,1.7859,0.0,0.0,1.8856,1.913,1.9582,1.9877,2.0016,2.0254,2.0358,2.0507,2.1788,2.2198,2.2249,0.0,0.0,0.0,0.0,0.0,0.0,0.0,0.0,0.0,0.0,0.0,0.0,0.0,0.0,0.0,0.0,0.0,0.0,0.0,0.0,0.0,0.0,0.0,0.0,0.0,0.0,0.0,0.0,0.0,0.0,0.0,0.0,1.5427,0.0,0.0,0.0,0.0,0.0,0.0,0.0,1.4479,0.0,0.0,0.0,0.0,0.0,0.0,0.0,0.0,1.4547,1.4547,1.4547,1.4547,0.0,0.0,0.0,0.0,0.0,1.4485,1.4337,1.411,1.3635,1.3583,1.3792,0.0,0.0,0.0,0.0,0.0,0.0,0.0,0.0,0.0,0.0,0.0,0.0,0.0,0.0,0.0,0.0,0.0,0.0,0.0,0.0,0.0,0.0,0.0,1.7122,1.7034,1.7746,1.8139,1.8095,1.778,1.7864,1.8471,1.7691,1.757,1.8046,1.764,1.7569,1.7817,1.8168,1.8401,1.8532,0.0,0.0,1.9355,1.9829,2.0073,2.0167,2.0338,2.039,2.0475,2.1216,2.1521,2.1626,0.0,0.0,0.0,0.0,0.0,0.0,0.0,0.0,0.0,0.0,0.0,0.0,0.0,0.0,0.0,0.0,0.0,0.0,0.0,0.0,0.0,0.0,0.0,0.0,0.0,0.0,0.0,0.0,0.0,0.0,1.5807,1.6249,1.613,1.5563,0.0,0.0,0.0,0.0,0.0,0.0,0.0,0.0,0.0,0.0,0.0,0.0,0.0,0.0,0.0,1.4763,1.4763,1.4763,1.4763,0.0,0.0,0.0,0.0,0.0,1.4399,1.4761,1.4916,1.3785,1.3929,1.4253,0.0,0.0,0.0,0.0,0.0,0.0,0.0,0.0,0.0,0.0,0.0,0.0,0.0,0.0,0.0,0.0,0.0,0.0,0.0,0.0,0.0,0.0,0.0,1.6744,1.6302,1.6826,1.7145,1.7213,1.7387,1.7955,1.8801,1.7855,1.7861,1.8833,1.8366,1.8191,1.829,1.846,1.8717,1.901,0.0,1.9557,1.9895,2.0084,2.0237,2.0366,2.0441,2.042,2.0402,2.1217,2.1771,2.2325,0.0,0.0,0.0,0.0,0.0,0.0,0.0,0.0,0.0,0.0,0.0,0.0,0.0,0.0,0.0,0.0,0.0,0.0,0.0,0.0,0.0,0.0,0.0,0.0,0.0,0.0,0.0,0.0,0.0,1.5981,1.654,1.6517,1.6274,1.5898,0.0,0.0,0.0,0.0,0.0,0.0,0.0,0.0,0.0,0.0,0.0,0.0,0.0,0.0,0.0,0.0,1.5448,1.5448,1.5448,0.0,0.0,0.0,0.0,0.0,1.472,1.4924,1.4956,1.4003,1.4281,1.4819,0.0,0.0,0.0,0.0,0.0,0.0,0.0,0.0,0.0,0.0,0.0,0.0,0.0,0.0,0.0,0.0,0.0,0.0,0.0,0.0,0.0,0.0,0.0,0.0,1.6596,1.7126,1.7439,1.7502,1.7794,1.8146,1.862,1.8291,1.8548,1.9416,1.8887,1.8735,1.8947,1.9104,1.9287,1.9434,0.0,1.9855,2.0071,2.0249,2.0367,2.0462,2.0487,2.045,2.0439,2.1039,2.189,2.2784,0.0,0.0,0.0,0.0,0.0,0.0,0.0,0.0,0.0,0.0,0.0,0.0,0.0,0.0,0.0,0.0,0.0,0.0,0.0,0.0,0.0,0.0,0.0,0.0,0.0,0.0,1.5339,1.6681,1.6308,1.6432,1.7027,1.6659,1.6328,1.5996,0.0,0.0,0.0,1.5996,0.0,0.0,0.0,0.0,0.0,0.0,0.0,0.0,0.0,0.0,0.0,0.0,0.0,0.0,0.0,0.0,0.0,1.5996,1.5634,1.5182,1.5046,1.5027,1.489,1.4384,0.0,0.0,0.0,0.0,0.0,0.0,0.0,0.0,0.0,0.0,0.0,0.0,0.0,0.0,0.0,0.0,0.0,0.0,0.0,0.0,0.0,0.0,0.0,0.0,0.0,0.0,1.7109,1.767,1.7992,1.7992,1.8191,1.8353,1.8467,1.8663,1.9058,1.9611,1.9197,1.9167,1.9444,1.9669,1.975,1.9771,1.9982,2.0112,2.0173,2.0348,2.0566,2.078,2.0568,2.0526,2.0672,2.1343,2.2212,2.3033,0.0,0.0,0.0,0.0,0.0,0.0,0.0,0.0,0.0,0.0,0.0,0.0,0.0,0.0,0.0,0.0,0.0,0.0,0.0,0.0,0.0,0.0,0.0,0.0,0.0,1.5852,1.6163,1.7505,1.6803,1.6588,1.6815,1.6789,1.6501,1.5996,0.0,0.0,0.0,1.6039,1.6039,0.0,0.0,0.0,0.0,0.0,0.0,0.0,0.0,0.0,0.0,0.0,0.0,0.0,0.0,0.0,1.5996,1.5996,1.5966,1.5798,1.5167,1.5038,1.5087,1.5025,1.5476,0.0,0.0,0.0,0.0,0.0,0.0,0.0,0.0,0.0,0.0,0.0,0.0,0.0,0.0,0.0,0.0,0.0,0.0,0.0,0.0,0.0,0.0,0.0,0.0,0.0,1.7449,1.7967,1.827,1.827,1.8278,1.8419,1.8681,1.8875,1.9012,1.9066,1.9271,1.9444,1.9594,1.979,1.9931,1.9984,2.0195,2.0313,2.0381,2.0462,2.0975,2.162,2.0759,2.0701,2.1293,2.258,2.2987,2.2997,0.0,0.0,0.0,0.0,0.0,0.0,0.0,0.0,0.0,0.0,0.0,0.0,0.0,0.0,0.0,0.0,0.0,0.0,0.0,0.0,0.0,0.0,0.0,1.6237,1.7107,1.6573,1.672,1.7612,1.7373,1.7127,1.6917,1.7126,0.0,0.0,0.0,0.0,0.0,1.6448,1.6474,1.6528,1.6501,0.0,0.0,0.0,0.0,0.0,0.0,0.0,0.0,0.0,1.6123,1.6123,1.6123,1.6123,1.6123,1.6123,1.5526,1.4847,1.472,1.4732,1.4695,1.4372,1.5478,0.0,0.0,0.0,0.0,0.0,0.0,0.0,0.0,0.0,0.0,0.0,0.0,0.0,0.0,0.0,0.0,0.0,0.0,0.0,0.0,0.0,0.0,0.0,0.0,0.0,1.7988,1.8353,1.8548,1.855,1.8789,1.8993,1.9125,1.9324,1.9481,1.9569,1.9657,1.975,1.9843,2.001,2.0115,2.02,2.0276,2.0352,2.0492,2.1034,2.1126,2.0943,2.0997,2.1703,2.276,2.3205,2.35,2.3637,0.0,0.0,0.0,0.0,0.0,0.0,0.0,0.0,0.0,0.0,0.0,0.0,0.0,0.0,0.0,0.0,0.0,0.0,0.0,0.0,0.0,0.0,0.0,1.7045,1.768,1.7328,1.7339,1.7755,1.7755,1.7549,1.715,0.0,0.0,0.0,0.0,0.0,0.0,1.685,1.6876,1.6917,1.6917,1.6789,0.0,0.0,0.0,0.0,0.0,0.0,0.0,0.0,1.6517,1.6517,1.6517,1.649,1.6443,1.6213,1.5477,1.4695,1.4361,1.4317,1.4319,0.0,0.0,0.0,0.0,0.0,0.0,0.0,0.0,0.0,0.0,0.0,0.0,0.0,0.0,0.0,0.0,0.0,0.0,0.0,0.0,0.0,0.0,0.0,0.0,0.0,0.0,0.0,0.0,1.8716,1.8878,1.8928,1.9206,1.9423,1.9495,1.9682,1.9816,1.9928,1.9962,2.0041,2.0107,2.0197,2.026,2.033,2.0347,2.0412,2.0539,2.1112,2.1121,2.09,2.2117,2.2996,2.3591,2.3671,2.3875,2.4019,0.0,0.0,0.0,0.0,0.0,0.0,0.0,0.0,0.0,0.0,0.0,0.0,0.0,0.0,0.0,0.0,0.0,0.0,0.0,0.0,0.0,0.0,0.0,1.7752,1.8275,1.817,1.809,1.809,1.7954,1.7755,1.7486,1.7572,0.0,0.0,0.0,0.0,0.0,1.7216,1.7216,1.7216,1.7216,1.7216,1.7191,0.0,0.0,0.0,0.0,0.0,0.0,0.0,1.7191,1.7191,1.7191,1.715,1.6955,1.6207,1.5996,1.5671,1.4205,1.3796,1.4015,0.0,0.0,0.0,0.0,0.0,0.0,0.0,0.0,0.0,0.0,0.0,0.0,0.0,0.0,0.0,0.0,0.0,0.0,0.0,0.0,0.0,0.0,0.0,0.0,0.0,0.0,0.0,0.0,1.9084,1.9246,1.9394,1.9471,1.9569,1.9695,1.9839,1.9947,2.0009,2.0148,2.0248,2.0308,2.0296,2.0336,2.0395,2.0462,2.0498,2.0503,2.0585,2.1,2.1861,2.4255,2.4505,2.3562,2.4038,2.4118,2.3935,0.0,0.0,0.0,0.0,0.0,0.0,0.0,0.0,0.0,0.0,0.0,0.0,0.0,0.0,0.0,0.0,0.0,0.0,0.0,0.0,0.0,0.0,0.0,0.0,0.0,0.0,1.8166,1.7954,1.7966,1.7833,0.0,0.0,0.0,1.7216,0.0,0.0,1.7549,1.7549,1.7572,1.7612,1.7612,1.7479,1.7272,0.0,0.0,0.0,0.0,0.0,0.0,0.0,0.0,0.0,1.7191,1.6824,1.6359,1.6124,1.5342,1.4467,1.4166,1.4493,0.0,0.0,0.0,0.0,0.0,0.0,0.0,0.0,0.0,0.0,0.0,0.0,0.0,0.0,0.0,0.0,0.0,0.0,0.0,0.0,0.0,0.0,0.0,0.0,0.0,0.0,0.0,0.0,0.0,1.9305,1.9423,1.9604,1.972,1.9835,1.9904,2.0039,2.0134,2.0204,2.0255,2.0289,2.0302,2.0355,2.0418,2.0475,2.0495,2.0526,2.0603,2.1107,2.2068,2.3275,2.3957,2.4206,2.422,2.4348,2.4155,2.3753,0.0,0.0,0.0,0.0,0.0,0.0,0.0,0.0,0.0,0.0,1.4596,0.0,0.0,0.0,0.0,0.0,0.0,0.0,0.0,0.0,0.0,0.0,0.0,0.0,0.0,1.8044,1.8142,0.0,0.0,0.0,0.0,0.0,1.7961,1.7612,0.0,1.79,0.0,1.7922,1.7966,1.7971,1.7663,1.7589,1.7653,0.0,0.0,0.0,0.0,0.0,0.0,0.0,0.0,0.0,1.7238,1.6792,1.6303,1.5716,1.4901,1.4174,1.4,0.0,0.0,0.0,0.0,0.0,0.0,0.0,0.0,0.0,0.0,0.0,0.0,0.0,0.0,0.0,0.0,0.0,0.0,0.0,0.0,0.0,0.0,0.0,0.0,0.0,0.0,0.0,0.0,0.0,0.0,1.9523,1.9643,1.9823,1.9915,1.999,2.0079,2.0188,2.0258,2.0296,2.036,2.0376,2.039,2.0414,2.0472,2.0541,2.0508,2.0518,2.0564,2.128,2.231,2.3424,2.3347,2.3817,2.4454,2.4053,2.3823,2.3649,0.0,0.0,0.0,0.0,0.0,0.0,0.0,0.0,0.0,0.0,1.423,1.4723,0.0,0.0,0.0,0.0,0.0,0.0,0.0,0.0,0.0,1.7646,0.0,0.0,0.0,0.0,0.0,0.0,0.0,0.0,0.0,0.0,1.8211,1.8211,0.0,1.8211,1.8215,1.8277,1.8298,1.8246,1.7517,1.7656,1.8208,1.742,0.0,0.0,0.0,0.0,0.0,0.0,0.0,0.0,1.7225,1.6878,1.6443,1.5105,1.4676,1.4486,1.3799,0.0,0.0,0.0,0.0,0.0,0.0,0.0,0.0,0.0,0.0,0.0,0.0,0.0,0.0,0.0,0.0,0.0,0.0,0.0,0.0,0.0,0.0,0.0,0.0,0.0,0.0,0.0,0.0,0.0,0.0,1.972,1.9881,2.0019,2.0021,2.0088,2.0214,2.0275,2.0308,2.0326,2.0441,2.0504,2.0518,2.0513,2.0541,2.0585,2.0519,2.0445,2.0438,2.1181,2.1921,2.2556,2.2566,2.3304,2.4221,2.3305,2.3268,2.3606,0.0,0.0,0.0,0.0,0.0,0.0,0.0,0.0,0.0,0.0,0.0,0.0,0.0,0.0,0.0,0.0,0.0,0.0,0.0,0.0,0.0,1.7236,1.783,1.8201,1.8215,0.0,0.0,0.0,0.0,0.0,0.0,0.0,0.0,1.8295,0.0,1.8287,1.8287,1.8287,1.8307,1.829,1.8116,1.8151,1.829,1.8096,1.8228,0.0,0.0,0.0,0.0,0.0,0.0,0.0,1.7149,1.6268,1.5263,1.4882,1.4445,1.4031,0.0,1.4289,0.0,0.0,0.0,0.0,0.0,0.0,0.0,0.0,0.0,0.0,0.0,0.0,0.0,0.0,0.0,0.0,0.0,0.0,0.0,0.0,0.0,0.0,0.0,0.0,0.0,0.0,0.0,0.0,1.9892,1.9928,2.0021,2.0142,2.0215,2.0255,2.0276,2.0341,2.0394,2.0455,2.0482,2.0539,2.0585,2.0585,2.0565,2.0516,2.0445,2.0355,2.0313,2.1163,2.1484,2.1506,2.2124,2.269,2.3125,2.2867,2.3025,2.3365,0.0,0.0,0.0,0.0,0.0,0.0,0.0,0.0,0.0,0.0,0.0,0.0,0.0,0.0,0.0,0.0,0.0,0.0,0.0,0.0,0.0,0.0,1.799,1.8215,1.8253,1.8239,1.8263,0.0,0.0,0.0,0.0,0.0,0.0,1.8315,0.0,1.8351,1.845,1.8469,1.8547,1.8589,1.8234,1.8287,1.8553,1.7736,1.7719,1.8128,1.8128,0.0,0.0,0.0,0.0,0.0,0.0,0.0,1.5033,1.4632,1.4267,1.3987,0.0,0.0,0.0,0.0,0.0,0.0,0.0,0.0,0.0,0.0,0.0,0.0,0.0,0.0,0.0,0.0,0.0,0.0,0.0,0.0,0.0,0.0,0.0,0.0,0.0,0.0,0.0,0.0,0.0,1.9936,2.0,2.006,2.0131,2.0234,2.0283,2.0313,2.0342,2.0414,2.0467,2.0504,2.0521,2.0547,2.0557,2.0557,2.0521,2.0449,2.038,2.0288,2.0222,2.0668,2.0976,2.1218,2.1519,2.2151,2.2887,2.2699,2.2959,2.3378,0.0,0.0,0.0,0.0,0.0,0.0,0.0,0.0,0.0,0.0,0.0,0.0,0.0,0.0,0.0,0.0,0.0,0.0,0.0,0.0,0.0,0.0,1.8236,1.8298,1.8298,1.8287,1.831,0.0,0.0,0.0,0.0,0.0,0.0,1.838,0.0,1.8489,1.8679,1.8734,1.8843,1.8945,1.8274,1.8419,1.8819,1.7309,0.0,1.7669,1.7527,1.7579,1.7778,1.8353,0.0,0.0,0.0,0.0,1.4998,1.4383,1.418,1.4162,0.0,0.0,0.0,0.0,0.0,0.0,0.0,0.0,0.0,0.0,0.0,0.0,0.0,0.0,0.0,0.0,0.0,0.0,0.0,0.0,0.0,0.0,0.0,0.0,0.0,0.0,0.0,0.0,0.0,2.005,2.005,2.0175,2.0268,2.0326,2.0336,2.0357,2.0425,2.0482,2.0515,2.0515,2.0566,2.0552,2.0477,2.0467,2.0445,2.0376,2.0302,2.0246,2.0183,2.0108,2.0458,2.0971,2.0746,2.1495,2.2685,2.2441,2.283,2.3448,0.0,0.0,0.0,0.0,0.0,0.0,0.0,0.0,0.0,0.0,1.6709,0.0,0.0,0.0,0.0,0.0,0.0,0.0,0.0,0.0,0.0,0.0,1.8295,1.8301,1.8307,1.829,1.8328,0.0,0.0,0.0,0.0,0.0,0.0,1.8641,0.0,0.0,1.8947,1.8964,1.8981,1.898,1.8871,1.8889,1.8907,0.0,0.0,0.0,0.0,1.7453,1.7947,1.7361,1.7002,0.0,0.0,0.0,1.4394,1.4247,1.427,1.435,0.0,0.0,0.0,0.0,0.0,0.0,0.0,0.0,0.0,0.0,0.0,0.0,0.0,0.0,0.0,0.0,0.0,0.0,0.0,0.0,0.0,0.0,0.0,0.0,0.0,0.0,0.0,0.0,2.0153,2.0254,2.0248,2.0328,2.038,2.0394,2.0438,2.0482,2.049,2.0545,2.0586,2.0586,2.0531,2.0477,2.0409,2.0349,2.0328,2.0314,2.0235,2.018,2.0117,2.0098,1.9982,1.98,1.9662,2.0393,2.1526,2.137,2.2171,2.3313,0.0,0.0,0.0,0.0,0.0,0.0,0.0,0.0,0.0,0.0,0.0,1.7701,0.0,0.0,0.0,0.0,0.0,0.0,0.0,0.0,0.0,0.0,0.0,1.8363,1.8348,1.8388,0.0,0.0,0.0,0.0,0.0,1.9202,1.9296,0.0,0.0,0.0,0.0,0.0,1.9227,1.9341,1.9341,1.9338,0.0,0.0,0.0,0.0,0.0,0.0,0.0,1.7028,1.7027,1.6901,1.6481,0.0,0.0,0.0,1.5551,0.0,0.0,0.0,0.0,0.0,0.0,0.0,0.0,0.0,0.0,0.0,0.0,0.0,0.0,0.0,0.0,0.0,0.0,0.0,0.0,0.0,0.0,0.0,0.0,0.0,0.0,0.0,0.0,0.0,2.0258,2.0302,2.0289,2.0351,2.0422,2.0447,2.0482,2.0516,2.0566,2.0586,2.0582,2.0547,2.043,2.0371,2.0346,2.0268,2.0265,2.0294,2.0233,2.0117,1.9981,1.9958,1.9797,1.966,2.0372,2.095,2.1512,2.2231,2.2888,2.3383,0.0,0.0,0.0,0.0,0.0,0.0,0.0,0.0,0.0,0.0,0.0,0.0,0.0,0.0,0.0,0.0,0.0,0.0,0.0,0.0,0.0,0.0,0.0,0.0,1.8443,0.0,0.0,0.0,0.0,0.0,1.8902,1.9428,1.981,0.0,1.9489,0.0,0.0,0.0,0.0,0.0,0.0,0.0,0.0,0.0,0.0,0.0,0.0,0.0,0.0,0.0,0.0,0.0,0.0,1.6098,0.0,0.0,0.0,0.0,0.0,0.0,0.0,0.0,0.0,0.0,0.0,0.0,0.0,0.0,0.0,0.0,0.0,0.0,0.0,0.0,0.0,0.0,0.0,0.0,0.0,0.0,0.0,0.0,0.0,0.0,0.0,0.0,2.0328,2.0336,2.0357,2.0391,2.0453,2.0516,2.0537,2.0545,2.0562,2.0558,2.0521,2.0445,2.0344,2.0295,2.0265,2.0214,2.0214,2.0242,2.0199,2.0069,1.9866,1.9821,1.9682,1.9629,2.0613,2.117,2.155,2.2378,2.3021,2.3458,0.0,0.0,0.0,0.0,0.0,0.0,0.0,0.0,0.0,0.0,0.0,0.0,0.0,0.0,0.0,1.8295,0.0,0.0,0.0,0.0,0.0,0.0,0.0,0.0,0.0,0.0,0.0,0.0,0.0,0.0,1.9916,1.9183,1.9468,2.0565,2.0531,2.0166,1.9601,0.0,0.0,0.0,0.0,0.0,0.0,0.0,0.0,0.0,0.0,0.0,0.0,0.0,0.0,0.0,0.0,0.0,0.0,0.0,0.0,0.0,0.0,0.0,0.0,0.0,0.0,0.0,0.0,0.0,0.0,0.0,0.0,0.0,0.0,0.0,0.0,0.0,0.0,0.0,0.0,0.0,0.0,0.0,0.0,0.0,0.0,0.0,0.0,0.0,2.0385,2.0413,2.0492,2.0492,2.0523,2.0586,2.0585,2.0578,2.0501,2.0445,2.0386,2.0321,2.0289,2.026,2.0216,2.0209,2.0164,2.0107,2.0117,1.9991,1.979,1.9793,1.9599,1.9316,1.9321,2.0155,2.1213,2.0451,2.159,2.3369,0.0,0.0,0.0,0.0,0.0,0.0,0.0,0.0,0.0,0.0,0.0,0.0,0.0,1.8263,1.8284,1.8304,1.8304,0.0,0.0,0.0,0.0,0.0,0.0,0.0,0.0,0.0,0.0,0.0,0.0,1.9004,1.9363,1.9769,1.9898,1.9837,1.9822,1.9763,1.9673,1.9686,0.0,0.0,0.0,0.0,0.0,0.0,0.0,0.0,0.0,0.0,0.0,0.0,0.0,0.0,0.0,0.0,0.0,0.0,0.0,0.0,0.0,0.0,0.0,0.0,0.0,0.0,0.0,0.0,0.0,0.0,0.0,0.0,0.0,0.0,0.0,0.0,0.0,0.0,0.0,0.0,0.0,0.0,0.0,0.0,0.0,0.0,0.0,0.0,0.0,2.047,2.051,2.0544,2.0586,2.0604,2.0557,2.0497,2.0434,2.0376,2.0308,2.0248,2.0235,2.0197,2.0144,2.0136,2.0108,2.0021,1.9939,1.9828,1.9657,1.9526,1.9361,1.9216,1.9665,2.012,2.0601,2.1297,2.1979,2.2615,0.0,0.0,0.0,0.0,0.0,0.0,0.0,0.0,0.0,0.0,0.0,0.0,0.0,0.0,1.831,1.8328,1.8348,1.8388,1.8426,1.8465,0.0,0.0,0.0,0.0,0.0,0.0,0.0,0.0,0.0,0.0,0.0,1.9902,1.9985,1.9541,1.9541,1.9601,0.0,0.0,0.0,1.9744,0.0,0.0,1.9839,0.0,0.0,0.0,0.0,0.0,0.0,0.0,0.0,0.0,0.0,0.0,0.0,0.0,0.0,0.0,0.0,0.0,0.0,0.0,0.0,0.0,0.0,0.0,0.0,0.0,0.0,0.0,0.0,0.0,0.0,0.0,0.0,0.0,0.0,0.0,0.0,0.0,0.0,0.0,0.0,0.0,0.0,0.0,0.0,0.0,2.0523,2.0586,2.0582,2.0573,2.0492,2.0434,2.0366,2.0296,2.0246,2.02,2.0199,2.0155,2.0098,2.0049,2.0009,1.9928,1.9713,1.9599,1.954,1.9357,1.9227,1.9139,1.9596,2.0065,2.0583,2.1314,2.2018,2.2597,0.0,0.0,0.0,0.0,0.0,0.0,0.0,0.0,0.0,0.0,0.0,0.0,0.0,0.0,0.0,1.8475,1.8535,1.8575,1.8575,1.8635,0.0,0.0,0.0,0.0,0.0,0.0,0.0,0.0,0.0,0.0,0.0,0.0,1.9614,1.9807,1.9807,1.9757,1.9713,0.0,1.9807,1.9807,0.0,1.9888,1.9928,0.0,0.0,0.0,1.8499,1.721,0.0,0.0,0.0,0.0,0.0,0.0,0.0,0.0,0.0,0.0,0.0,0.0,0.0,0.0,0.0,0.0,1.5403,0.0,0.0,0.0,0.0,0.0,0.0,0.0,0.0,0.0,0.0,0.0,0.0,0.0,0.0,0.0,0.0,0.0,0.0,0.0,0.0,0.0,2.0497,2.0523,2.0605,2.0602,2.0573,2.05,2.0422,2.0366,2.0302,2.0231,2.0205,2.0192,2.0192,2.0164,2.0107,1.9966,1.9858,1.9788,1.9448,1.9372,1.9472,1.9365,1.9214,1.9087,1.8966,1.9902,2.1157,2.0362,2.1518,2.331,0.0,0.0,0.0,0.0,0.0,0.0,0.0,0.0,0.0,0.0,0.0,0.0,0.0,0.0,0.0,2.035,2.0423,2.0443,2.0443,2.0463,2.0234,1.9643,1.9664,0.0,0.0,0.0,0.0,0.0,0.0,0.0,0.0,0.0,0.0,0.0,1.9807,1.9795,1.9776,1.9795,0.0,0.0,1.9862,1.996,0.0,0.0,0.0,0.0,0.0,1.7271,1.6221,0.0,1.6375,1.6292,0.0,0.0,0.0,0.0,0.0,0.0,1.6866,0.0,0.0,0.0,0.0,0.0,1.5394,1.7201,1.8821,0.0,0.0,0.0,0.0,0.0,0.0,0.0,0.0,0.0,0.0,0.0,0.0,0.0,0.0,0.0,0.0,0.0,0.0,0.0,2.0546,2.0586,2.0601,2.0545,2.049,2.0428,2.0363,2.0301,2.0233,2.0208,2.0182,2.0126,2.0127,2.0127,2.0088,1.9922,1.9811,1.9788,1.9452,1.9335,1.9331,1.9198,1.9102,1.9073,1.9579,2.0009,2.0455,2.1325,2.201,2.2526,0.0,0.0,0.0,0.0,0.0,0.0,0.0,0.0,0.0,0.0,0.0,0.0,0.0,0.0,0.0,2.1149,2.1205,2.1225,2.1267,2.1306,2.1148,2.0771,2.0789,2.0623,0.0,0.0,0.0,0.0,0.0,0.0,0.0,0.0,0.0,0.0,0.0,0.0,0.0,0.0,0.0,0.0,1.9928,0.0,0.0,2.0238,1.9793,0.0,0.0,0.0,1.72,1.7539,1.7418,0.0,0.0,0.0,0.0,0.0,0.0,0.0,0.0,0.0,0.0,0.0,0.0,0.0,1.5443,1.6968,1.8313,0.0,0.0,0.0,0.0,0.0,0.0,0.0,0.0,0.0,0.0,0.0,0.0,0.0,0.0,0.0,0.0,2.0492,2.0502,2.0546,2.0586,2.0581,2.0568,2.049,2.0434,2.0352,2.0321,2.0269,2.0192,2.0192,2.0174,2.0098,2.0098,2.0058,1.9966,1.9788,1.9675,1.9577,1.9338,1.9399,1.964,1.9231,1.9235,1.9579,2.0278,2.0741,2.1097,2.1968,2.2456,2.2744,0.0,0.0,0.0,0.0,0.0,0.0,0.0,0.0,0.0,0.0,0.0,0.0,0.0,0.0,0.0,0.0,2.1514,2.1576,2.1695,2.1771,0.0,0.0,2.1994,2.2006,2.193,2.1226,2.0845,0.0,2.0108,0.0,0.0,0.0,0.0,0.0,0.0,0.0,0.0,0.0,0.0,1.9849,2.0041,2.019,0.0,0.0,1.9992,0.0,2.0045,1.9303,1.8154,1.8867,1.8649,0.0,0.0,0.0,0.0,0.0,1.8464,0.0,0.0,0.0,0.0,0.0,0.0,0.0,1.5676,1.6755,1.7716,1.6836,0.0,0.0,0.0,0.0,0.0,0.0,0.0,0.0,0.0,0.0,0.0,0.0,0.0,0.0,2.0518,2.0502,2.0546,2.0605,2.0582,2.057,2.0494,2.0419,2.0352,2.0294,2.028,2.0254,2.0183,2.0183,2.0155,2.0068,2.0068,1.9966,1.9775,1.9636,1.9471,1.9289,1.9152,1.9505,2.0137,1.9524,1.9669,2.0371,2.0956,2.1706,2.2382,2.2414,2.2892,2.3471,0.0,0.0,0.0,0.0,0.0,0.0,0.0,0.0,0.0,0.0,0.0,0.0,0.0,0.0,0.0,0.0,2.3442,2.354,2.3579,2.3676,0.0,2.2862,2.2861,2.2597,2.2077,2.1909,2.154,2.0964,2.0795,2.0414,1.9807,0.0,0.0,0.0,0.0,0.0,0.0,0.0,0.0,2.006,2.0195,0.0,2.117,2.0611,2.0729,2.102,1.9798,1.9182,1.8974,0.0,1.9071,1.893,0.0,0.0,0.0,0.0,0.0,0.0,0.0,0.0,0.0,0.0,0.0,0.0,1.6702,1.7688,1.8679,0.0,0.0,0.0,0.0,0.0,0.0,0.0,0.0,0.0,0.0,0.0,0.0,0.0,0.0,0.0,2.0586,2.0585,2.0584,2.0601,2.054,2.0487,2.0419,2.0295,2.0229,2.0215,2.0167,2.0135,2.0127,2.0127,2.0029,1.9855,1.9858,1.9775,1.9623,1.9438,1.9335,1.9289,1.9102,1.947,2.0228,2.0601,2.0867,2.101,2.1151,2.1667,2.2396,2.3035,2.3305,2.3313,0.0,0.0,0.0,0.0,0.0,0.0,0.0,0.0,0.0,0.0,0.0,0.0,0.0,0.0,0.0,0.0,0.0,0.0,0.0,0.0,0.0,2.3899,2.3915,2.3758,2.3439,2.3059,2.267,2.235,2.1519,2.1123,2.1123,0.0,0.0,0.0,0.0,0.0,0.0,0.0,2.0178,2.0208,2.0265,0.0,2.0874,2.0563,2.0725,2.0983,2.0117,1.9811,1.977,1.9354,1.949,0.0,0.0,1.9169,1.92,0.0,1.8882,1.854,0.0,0.0,0.0,1.7899,0.0,0.0,0.0,1.826,1.8941,1.8086,1.8243,0.0,0.0,0.0,0.0,0.0,0.0,0.0,0.0,0.0,0.0,0.0,0.0,0.0,2.0604,2.0601,2.0596,2.054,2.0461,2.0369,2.0289,2.0238,2.0175,2.0148,2.0125,2.0098,2.0107,2.0427,2.0331,1.9804,2.0138,2.0211,2.0052,1.9942,2.0069,2.0334,2.0228,2.0623,2.1303,2.1243,2.1649,2.2361,2.2361,2.2553,2.2946,2.3264,2.336,2.3265,0.0,0.0,0.0,0.0,0.0,0.0,0.0,0.0,0.0,0.0,0.0,0.0,0.0,0.0,0.0,0.0,0.0,0.0,0.0,0.0,0.0,0.0,2.4719,2.4764,2.4823,2.4195,2.3807,2.3689,2.2336,2.1969,2.2462,2.0963,0.0,0.0,0.0,0.0,0.0,0.0,0.0,2.0572,0.0,2.0721,2.0566,2.0526,2.0604,2.0711,2.0561,2.0497,2.0398,1.969,0.0,2.0373,1.9671,1.9928,0.0,0.0,0.0,0.0,0.0,0.0,0.0,0.0,0.0,1.925,0.0,0.0,0.0,1.8315,0.0,0.0,0.0,0.0,0.0,0.0,0.0,0.0,0.0,0.0,0.0,0.0,0.0,0.0,2.0578,2.0573,2.0536,2.0465,2.0346,2.0253,2.0204,2.0188,2.0155,2.0108,2.0251,2.0337,2.0326,2.0982,2.0941,2.0239,2.0736,2.0871,2.0691,2.0674,2.0934,2.1399,2.1362,2.1752,2.235,2.1685,2.2236,2.3476,2.3338,2.3374,2.3494,2.3336,2.3265,2.3151,1.7387,1.7952,0.0,0.0,0.0,0.0,0.0,0.0,0.0,0.0,0.0,0.0,0.0,0.0,0.0,0.0,0.0,0.0,2.5519,0.0,0.0,0.0,0.0,0.0,2.4888,2.4793,2.4409,2.3689,2.3499,2.3095,2.2481,2.1581,0.0,0.0,2.0514,0.0,0.0,0.0,2.1488,0.0,2.2383,2.2228,0.0,2.0774,2.0934,2.1469,2.0756,2.0497,2.0476,0.0,2.0417,2.0476,0.0,2.0425,2.0507,0.0,0.0,0.0,0.0,0.0,0.0,0.0,2.0311,0.0,0.0,0.0,1.9251,1.9152,0.0,0.0,0.0,0.0,0.0,0.0,0.0,0.0,0.0,0.0,0.0,0.0,0.0,0.0,0.0,2.0453,2.039,2.0328,2.0248,2.0215,2.019,2.0135,2.0108,2.0098,2.0793,2.1154,2.1168,2.1771,2.1962,2.176,2.1648,2.1515,2.1369,2.1332,2.1348,2.1381,2.1283,2.167,2.2386,2.2236,2.2696,2.3445,2.2714,2.2874,2.3494,2.3336,2.3126,2.279,1.7921,1.876,0.0,0.0,0.0,0.0,0.0,0.0,0.0,0.0,0.0,0.0,0.0,0.0,0.0,0.0,0.0,2.4741,0.0,0.0,0.0,0.0,0.0,0.0,0.0,2.4759,2.4867,2.4574,2.4048,2.3912,2.4094,2.2747,0.0,0.0,2.2134,0.0,2.188,0.0,2.2131,0.0,0.0,0.0,0.0,2.1323,2.1126,2.0957,2.0611,2.0526,2.0488,0.0,2.0136,0.0,0.0,0.0,0.0,0.0,0.0,0.0,0.0,0.0,0.0,0.0,0.0,0.0,2.0144,0.0,2.0045,0.0,0.0,0.0,0.0,0.0,0.0,0.0,2.0285,0.0,0.0,0.0,0.0,0.0,0.0,0.0,0.0,0.0,0.0,2.0241,2.0172,2.0133,2.0135,2.0127,2.0308,2.0774,2.1126,2.1479,2.1821,2.2464,2.2452,2.1832,2.2136,2.2242,2.2142,2.2104,2.2316,2.2665,2.2622,2.2758,2.3039,2.3017,2.3213,2.3481,2.3142,2.3213,2.3494,2.3336,2.3151,2.291,0.0,0.0,0.0,0.0,0.0,0.0,0.0,0.0,0.0,0.0,0.0,0.0,2.4983,2.5468,0.0,0.0,2.5752,2.5367,0.0,0.0,2.2962,0.0,0.0,0.0,0.0,0.0,2.4903,2.5191,2.4572,2.4635,2.5273,2.3802,2.3493,0.0,0.0,2.2945,2.3018,0.0,0.0,2.2493,2.3367,2.3183,2.2357,2.1891,2.1214,2.0498,2.0507,2.0544,2.0495,1.9871,2.0085,0.0,1.9851,0.0,0.0,0.0,0.0,0.0,2.0591,0.0,0.0,0.0,0.0,0.0,0.0,0.0,0.0,0.0,0.0,0.0,0.0,0.0,0.0,0.0,0.0,2.0145,0.0,0.0,0.0,0.0,0.0,0.0,0.0,0.0,0.0,2.0161,2.0134,2.0098,2.0098,2.0308,2.0707,2.1287,2.1688,2.2105,2.2525,2.3138,2.3084,2.2355,2.2806,2.2976,2.2935,2.2893,2.3135,2.3585,2.3585,2.3539,2.3494,2.3494,2.3494,2.3494,2.3494,2.3494,2.3453,2.3265,2.3028,2.2756,2.1109,2.1126,0.0,0.0,0.0,0.0,0.0,0.0,0.0,0.0,0.0,0.0,0.0,0.0,0.0,0.0,0.0,2.7043,2.6214,0.0,2.3389,0.0,0.0,2.3029,0.0,0.0,0.0,0.0,2.5231,2.5273,2.5273,2.4505,2.4159,0.0,2.3364,2.2998,2.3057,2.3906,2.4236,2.4294,2.5174,2.4992,2.4039,0.0,2.1252,2.0498,2.0507,0.0,0.0,2.0573,2.0573,0.0,0.0,0.0,0.0,0.0,0.0,0.0,0.0,0.0,0.0,2.0605,0.0,0.0,0.0,0.0,2.2695,0.0,0.0,0.0,0.0,0.0,0.0,0.0,0.0,0.0,0.0,0.0,0.0,0.0,0.0,0.0,0.0,2.0195,2.0164,2.0098,2.0108,2.0107,2.0107,2.083,2.1265,2.1301,2.269,2.3422,2.3345,2.384,2.4061,2.4005,2.3858,2.3768,2.3768,2.3638,2.3589,2.3603,2.3539,2.3494,2.3494,2.3494,2.3494,2.3494,2.3494,2.3494,2.3448,2.307,2.2544,2.2027,0.0,0.0,0.0,0.0,0.0,0.0,0.0,2.3602,0.0,0.0,0.0,0.0,0.0,2.9326,2.9531,0.0,0.0,2.779,2.6422,2.4789,0.0,0.0,0.0,2.3348,0.0,0.0,0.0,0.0,0.0,0.0,2.5432,2.519,2.5071,0.0,0.0,2.4727,0.0,0.0,0.0,0.0,0.0,2.4592,2.4235,0.0,0.0,2.1288,2.0759,2.0578,0.0,2.0593,2.0593,2.0593,2.0609,2.0607,2.0703,2.1243,2.1377,0.0,0.0,0.0,2.1916,2.0809,0.0,0.0,0.0,0.0,0.0,0.0,0.0,0.0,0.0,0.0,0.0,0.0,0.0,0.0,0.0,0.0,0.0,0.0,0.0,0.0,0.0,0.0,0.0,2.005,2.0069,2.0088,2.003,2.071,2.1356,2.1871,2.2795,2.3494,2.3858,2.4026,2.4019,2.3894,2.3828,2.3761,2.3674,2.3607,2.3562,2.3539,2.3517,2.3494,2.3529,2.407,2.4302,2.4337,2.4837,2.4766,2.4301,2.3807,2.3456,2.3176,2.1556,0.0,0.0,0.0,0.0,0.0,0.0,0.0,0.0,0.0,2.7224,0.0,3.0469,0.0,3.1162,0.0,2.9946,2.8793,2.6555,2.539,0.0,2.3503,2.3771,0.0,0.0,0.0,0.0,0.0,0.0,2.4863,2.5495,2.5517,2.557,0.0,0.0,2.5601,2.5601,0.0,2.5279,0.0,0.0,2.4829,0.0,0.0,2.2831,2.1738,0.0,2.0866,2.0591,2.0591,2.057,2.0627,2.0935,2.103,2.1184,2.2018,2.2266,2.2266,2.2269,2.261,0.0,2.1655,2.1978,0.0,2.262,0.0,0.0,0.0,0.0,0.0,0.0,0.0,0.0,0.0,0.0,0.0,0.0,2.0041,0.0,0.0,0.0,0.0,0.0,0.0,2.0059,2.0001,2.0039,2.0152,0.0,2.1036,2.177,2.2533,2.3184,2.3713,2.4059,2.4019,2.3915,2.3765,2.3739,2.3674,2.3585,2.3562,2.37,2.3927,2.3601,2.3797,2.4355,2.4587,2.4855,2.514,2.5547,2.5411,2.4896,2.4452,2.4064,2.3755,0.0,0.0,0.0,0.0,2.2738,0.0,0.0,0.0,2.645,0.0,2.8341,2.9744,3.0808,3.1863,3.2139,3.1254,3.1378,3.0089,2.6746,2.6529,0.0,0.0,2.3678,2.3725,2.2887,0.0,0.0,0.0,0.0,0.0,2.5503,2.5577,0.0,0.0,2.5601,0.0,2.5607,2.56,2.5582,2.5554,2.5602,2.5644,2.5547,2.4756,2.3411,2.1933,2.1944,2.1429,2.0722,2.0722,2.0679,2.077,2.155,2.184,2.2032,2.2867,2.3134,2.3166,2.3153,2.3143,2.3101,2.3003,2.356,0.0,0.0,0.0,2.5043,0.0,0.0,0.0,0.0,0.0,0.0,0.0,0.0,0.0,0.0,0.0,0.0,0.0,0.0,0.0,0.0,2.0001,2.0001,1.9991,1.9979,2.0282,0.0,2.1737,2.2492,2.3149,2.3769,2.404,2.4001,2.3852,2.3743,2.37,2.3665,2.3656,2.3656,2.3647,2.4034,2.4712,2.3963,2.4462,2.5747,2.5087,2.5229,2.5847,2.5728,2.5489,2.5223,2.493,2.4339,2.3795,2.1583,2.1634,2.1849,0.0,2.2656,2.3236,0.0,0.0,0.0,0.0,3.0242,3.1995,3.384,3.3772,3.3236,3.2381,3.1817,0.0,0.0,0.0,0.0,2.5608,2.5794,2.528,2.3874,2.4003,0.0,2.4258,0.0,0.0,2.5564,0.0,0.0,0.0,0.0,0.0,2.5604,2.5598,2.5242,2.4705,2.4726,2.474,0.0,0.0,2.4683,2.3651,2.3027,2.2656,2.2459,2.2452,2.2447,2.2366,2.1937,2.2246,2.2809,2.3036,2.3517,2.3991,2.3991,2.4335,2.4411,2.3151,2.3435,2.4041,0.0,0.0,0.0,0.0,0.0,0.0,0.0,0.0,0.0,0.0,0.0,0.0,0.0,0.0,0.0,2.082,0.0,0.0,0.0,1.9907,1.9896,1.9645,1.9769,2.0133,2.0751,0.0,2.2184,2.2959,2.3557,2.3871,2.3852,2.3765,2.3678,2.3629,2.4216,2.4479,2.445,2.4962,2.5319,2.5515,2.5301,2.5444,2.5836,2.6247,2.6462,2.6561,2.6898,2.6571,2.5866,2.5246,2.5058,2.5118,2.1701,0.0,0.0,2.362,0.0,0.0,2.4965,2.6071,0.0,2.9714,3.1481,0.0,3.3875,3.3993,3.3509,3.2286,3.1732,0.0,2.9006,0.0,0.0,2.664,2.6968,2.6285,2.4297,2.458,0.0,2.4294,0.0,0.0,2.5601,0.0,0.0,0.0,0.0,2.5035,0.0,2.4661,2.4466,2.4408,2.4403,2.4627,0.0,2.5515,2.5398,2.4907,2.44,2.3756,2.3093,2.3107,2.3104,2.3082,2.2962,2.326,2.3688,2.4053,2.4461,2.4775,2.4775,2.5034,2.5063,2.4126,2.4207,2.4532,2.4572,2.4572,2.4638,0.0,2.4859,2.4442,0.0,0.0,0.0,0.0,0.0,0.0,0.0,0.0,0.0,0.0,2.1267,0.0,2.0191,1.9976,1.9793,1.9599,1.963,2.0085,2.1039,0.0,2.2136,2.3264,2.3593,2.3739,2.3718,2.4015,2.4149,2.4098,2.4867,2.5218,2.5194,2.5604,2.5997,2.63,2.5961,2.6211,2.6871,2.696,2.7157,2.7404,2.7295,2.6822,2.6142,2.5549,2.5444,2.5616,0.0,0.0,0.0,0.0,0.0,0.0,0.0,2.771,0.0,3.0605,0.0,3.3316,3.2821,3.3391,3.3242,3.179,0.0,3.0624,2.9186,2.9768,2.914,2.6891,2.7464,2.6784,2.4527,2.5096,0.0,0.0,0.0,0.0,0.0,0.0,0.0,0.0,0.0,0.0,0.0,2.3263,2.3437,2.423,2.4225,2.4748,2.5531,2.5668,2.5707,2.5704,2.5694,2.4736,2.3433,2.3433,2.3446,2.3556,2.4191,2.4414,2.4566,2.5143,2.5343,2.539,2.539,2.535,2.5283,2.5283,2.5239,2.518,2.518,2.5144,2.5088,2.5101,2.448,2.3954,0.0,0.0,0.0,0.0,0.0,0.0,0.0,0.0,0.0,0.0,0.0,0.0,0.0,2.0275,1.9769,1.9604,1.9606,2.0178,0.0,0.0,2.2294,2.375,2.3829,2.3817,2.3768,2.4533,2.4903,2.4855,2.5604,2.5961,2.5961,2.6068,2.6496,2.7121,2.6425,2.6925,2.8156,2.7442,2.7513,2.795,2.7129,2.6539,2.6063,2.5712,2.5616,2.5616,0.0,0.0,0.0,0.0,0.0,2.8132,2.9635,3.0528,3.1275,3.1996,3.3564,3.4623,3.4704,3.3646,3.2821,3.252,3.1217,0.0,0.0,0.0,0.0,2.7793,2.7322,2.654,2.5407,2.4818,2.4449,0.0,0.0,0.0,0.0,0.0,0.0,0.0,0.0,0.0,2.3246,2.2381,0.0,2.3338,2.3332,2.3855,2.4713,2.5434,2.5707,2.5703,2.5703,2.5492,2.5242,2.5235,2.5231,2.5145,2.4501,2.4752,2.5162,2.4534,2.4806,2.5313,2.5313,2.5262,2.5214,2.5214,2.518,2.5113,2.5113,2.5076,2.5025,2.5025,2.4904,2.4796,2.4784,0.0,0.0,0.0,0.0,0.0,0.0,0.0,0.0,0.0,0.0,2.2046,0.0,0.0,2.0034,1.9119,1.9749,0.0,0.0,0.0,2.2767,0.0,2.4298,0.0,0.0,0.0,2.5622,2.5622,2.6407,2.6782,2.68,2.7496,2.787,2.7995,2.7852,2.7932,2.8182,2.8066,2.7666,2.7066,2.6539,2.6046,2.5691,2.5616,2.5616,2.5616,0.0,0.0,0.0,0.0,0.0,0.0,0.0,3.267,3.309,3.2901,3.3677,3.4148,3.3798,3.3122,3.252,3.2114,3.093,3.024,3.0304,2.9616,2.884,2.8042,2.7685,0.0,2.564,2.5193,2.4741,2.4294,0.0,0.0,0.0,0.0,0.0,0.0,0.0,2.2408,0.0,0.0,0.0,2.3764,2.3774,2.4296,2.5114,2.5543,2.5699,2.5699,2.5699,2.5703,2.5703,2.5699,2.5699,2.5613,2.5093,2.5169,2.5355,2.4883,2.4976,2.525,2.525,2.5206,2.5191,2.5191,2.5156,2.5101,2.5101,2.5063,2.4993,2.4993,2.5004,2.501,2.5004,2.5004,0.0,0.0,0.0,0.0,0.0,0.0,0.0,0.0,0.0,0.0,0.0,0.0,0.0,0.0,0.0,0.0,0.0,0.0,2.2335,0.0,0.0,0.0,2.476,0.0,2.6425,2.6425,2.7246,2.762,2.7638,2.8031,2.8182,2.8182,2.8025,2.7922,2.7922,2.7683,2.7224,2.6674,2.6315,2.5994,2.5659,2.56,2.5843,2.6118,0.0,2.7689,0.0,0.0,3.1158,0.0,3.3152,3.4024,3.4367,3.3787,3.3885,3.3691,3.2817,3.2724,3.2367,3.156,3.071,3.0247,3.0309,2.9619,2.8946,2.8318,2.8184,2.7491,2.6164,2.5957,2.5451,0.0,0.0,0.0,0.0,0.0,0.0,0.0,0.0,0.0,0.0,0.0,2.2984,2.4404,2.4397,2.492,2.5699,2.5699,2.5699,2.5699,2.5699,2.5699,2.5699,2.5667,2.5667,2.5639,2.5523,2.5432,2.5365,2.5303,2.5239,2.5191,2.5191,2.518,2.518,2.518,2.5125,2.5088,2.5088,2.5038,2.4999,2.4999,2.5004,2.501,2.501,2.501,0.0,0.0,0.0,0.0,0.0,0.0,0.0,0.0,0.0,0.0,2.2039,0.0,0.0,0.0,0.0,0.0,2.2067,0.0,0.0,0.0,0.0,2.5194,2.5194,0.0,2.7264,2.7264,2.7906,2.8182,2.8182,2.8182,2.8182,2.82,2.807,2.8035,2.8037,2.7439,2.7063,2.6872,2.6659,2.6401,2.6119,2.6091,2.6426,2.683,0.0,0.0,0.0,0.0,0.0,0.0,3.3248,3.4205,3.4908,3.5009,3.5043,3.4754,3.3933,3.315,3.2348,3.1484,3.072,3.0321,3.0392,2.9709,2.9276,2.9259,2.8585,2.8079,2.7867,2.7146,2.6348,0.0,0.0,2.3761,0.0,0.0,0.0,0.0,0.0,0.0,0.0,2.2979,2.353,2.4394,2.4394,2.492,2.5699,2.5699,2.5699,2.5699,2.5699,2.5699,2.5671,2.5571,2.551,2.5517,2.5425,2.5365,2.5303,2.5236,2.5203,2.5191,2.5191,2.5168,2.5113,2.5113,2.5063,2.5006,2.5006,2.4999,2.501,2.501,2.501,2.501,2.501,2.501,2.4936,0.0,0.0,0.0,0.0,0.0,0.0,0.0,0.0,0.0,0.0,2.3285,0.0,0.0,2.1468,0.0,0.0,0.0,0.0,2.4587,2.6015,2.6782,2.6782,2.7656,2.8102,2.8102,2.8146,2.8182,2.8182,2.8182,2.8182,2.8235,2.8741,2.9092,2.9262,2.8237,2.7971,2.8206,2.7886,2.7648,2.751,2.751,2.7559,2.7608,0.0,0.0,0.0,0.0,0.0,0.0,0.0,3.4604,3.4812,3.4525,3.4483,3.435,3.4044,3.2783,3.1847,3.1484,3.0739,3.0333,3.0402,2.9718,2.9323,2.9401,2.9129,2.8713,2.8176,2.7839,2.7245,0.0,0.0,0.0,0.0,0.0,0.0,0.0,0.0,2.4944,2.467,2.4658,2.4865,2.5173,2.5173,2.5387,2.5699,2.5699,2.5699,2.5699,2.5699,2.5643,2.5576,2.551,2.5504,2.5486,2.5374,2.5322,2.5283,2.5225,2.5191,2.5191,2.5191,2.5156,2.5101,2.5101,2.5063,2.4993,2.4993,2.5004,2.501,2.501,2.501,2.495,2.4846,2.4817,2.4689,2.4337,0.0,0.0,0.0,0.0,0.0,0.0,0.0,0.0,0.0,0.0,0.0,0.0,0.0,0.0,0.0,0.0,0.0,2.3963,0.0,2.6514,2.6996,2.7817,2.8182,2.8182,2.8182,2.8182,2.8182,2.8182,2.8169,2.8157,2.876,2.8869,2.8582,2.831,2.8151,2.8066,2.7883,2.7762,2.7705,2.7705,2.798,2.8352,3.2423,0.0,3.3474,0.0,3.3869,3.422,3.4813,3.4755,3.4561,3.4372,3.391,3.3528,3.3261,3.2191,3.1403,3.1164,3.0657,3.0367,3.0452,2.9986,2.9734,2.9777,2.9855,0.0,2.8957,2.8953,2.8536,2.7655,2.6782,0.0,0.0,0.0,0.0,0.0,2.6264,2.6386,2.642,2.6167,2.6205,2.642,2.6167,2.605,2.605,2.605,2.5886,2.5639,2.5639,2.5565,2.5467,2.5446,2.5439,2.5418,2.5331,2.5283,2.5271,2.5214,2.5191,2.521,2.518,2.5144,2.5088,2.5076,2.5038,2.4999,2.4999,2.5175,2.5351,2.5351,2.5351,2.522,2.4776,2.4707,2.4561,2.4098,0.0,0.0,0.0,0.0,0.0,0.0,2.3517,2.3285,2.2714,2.2642,0.0,0.0,0.0,0.0,0.0,0.0,0.0,0.0,0.0,0.0,2.7353,2.7924,2.8182,2.8182,2.8182,2.8307,2.8566,2.8742,2.8855,2.8939,2.904,2.8996,2.8817,2.8675,2.8582,2.8493,2.8394,2.8336,2.8336,2.8336,2.8676,2.9097,3.4954,3.518,3.5367,3.5367,3.4398,3.3885,3.4775,3.4387,3.4292,3.5076,3.3738,3.2386,3.1541,3.1465,3.1183,3.0369,3.0367,3.0462,3.0595,3.0661,3.0671,0.0,0.0,3.075,3.0664,3.0739,3.0342,2.9464,0.0,0.0,2.6888,0.0,2.6981,2.702,2.7815,2.8173,2.8115,2.7258,2.7374,2.8095,2.7238,2.6887,2.6887,2.6887,2.6311,2.5504,2.5504,2.546,2.5398,2.5322,2.5293,2.5313,2.5303,2.5261,2.5191,2.5191,2.5191,2.518,2.5113,2.5107,2.507,2.5025,2.5004,2.501,2.501,2.5617,2.6205,2.6205,2.6205,2.5882,2.4888,2.4707,2.4561,2.4098,0.0,0.0,0.0,0.0,0.0,0.0,2.3562,2.3562,2.3499,2.3476,0.0,0.0,0.0,0.0,0.0,0.0,0.0,2.5747,2.7335,0.0,2.8182,2.8182,2.8182,2.8182,2.8182,2.8637,2.9423,3.0011,3.0489,3.082,2.9765,2.9847,3.068,2.9641,2.9475,2.9886,2.9886,2.9886,2.9886,2.9886,2.9902,2.9902,3.4412,3.5447,3.6199,3.5926,3.6001,3.6103,3.5986,3.5329,3.4503,3.3624,3.3547,3.2821,3.0796,3.0636,3.0574,0.0,3.0451,3.0558,0.0,3.0661,3.0704,3.0704,3.0764,3.0784,3.0778,3.0785,3.0662,3.0398,0.0,0.0,0.0,2.9572,2.9588,2.9604,2.9868,2.963,2.9065,2.8792,2.8485,2.8173,2.7901,2.7784,2.7725,2.7141,2.668,2.63,2.5718,2.5425,2.5331,2.5313,2.5262,2.5332,2.5888,2.5654,2.5191,2.5191,2.5168,2.5125,2.5113,2.5063,2.5177,2.5734,2.5839,2.5977,2.6565,2.6906,2.7096,2.7096,2.7096,2.6737,2.5585,2.5761,2.5725,2.4704,2.4559,0.0,0.0,0.0,0.0,0.0,2.4343,2.454,2.5033,2.5069,0.0,0.0,0.0,0.0,0.0,0.0,0.0,0.0,2.6835,0.0,2.8182,2.8182,2.8495,2.903,2.903,2.9307,2.9828,3.0209,3.0262,3.0023,3.0079,3.0161,3.0156,3.0037,2.9917,2.9918,2.9918,2.9918,2.9918,2.9918,2.9918,2.9918,3.4693,3.5651,3.6404,3.6137,3.6084,3.595,3.5613,3.5095,3.4254,3.2882,3.3165,3.2798,3.0929,3.0784,0.0,3.0364,3.0511,3.0613,3.0637,3.0676,3.0711,3.0703,3.0769,3.0793,3.0798,3.0794,0.0,3.08,3.08,3.0799,3.0804,3.0807,3.0806,3.0799,3.0799,3.0507,2.9961,2.963,2.9377,2.9143,2.8812,2.8695,2.8641,2.8076,2.7623,2.7174,2.663,2.6348,2.6143,2.5817,2.5688,2.5734,2.6237,2.6065,2.5722,2.6008,2.6072,2.6035,2.6009,2.5969,2.6075,2.6612,2.6731,2.6925,2.7763,2.7953,2.7938,2.7856,2.784,2.746,2.619,2.6314,2.6295,2.5355,2.5201,2.5195,2.5122,0.0,0.0,0.0,0.0,0.0,0.0,2.58,2.6015,0.0,0.0,0.0,0.0,0.0,0.0,2.6211,2.7032,2.7692,2.8182,2.8513,2.8905,2.9423,2.9811,3.0047,3.0058,3.0535,3.0489,3.0055,3.0336,3.03,3.006,3.013,3.006,2.9918,2.9918,2.9918,2.9918,2.9918,2.9918,2.9918,3.551,3.5772,3.6101,3.6121,3.5053,3.4159,3.4159,3.412,3.3777,3.2902,3.286,3.2579,3.1789,3.1823,3.1532,3.0674,0.0,0.0,3.071,3.0697,3.0691,3.0703,3.0769,3.0798,3.0801,3.0796,3.0792,3.08,3.0808,3.081,3.081,3.0798,3.0799,3.0799,3.0799,3.0799,3.074,2.9922,3.0059,3.0721,2.9922,2.9591,2.9572,2.9513,2.8903,2.8083,2.8025,2.7873,2.7568,2.6765,2.6479,2.6485,2.6543,2.6568,2.6702,2.7401,2.7611,2.7578,2.7514,2.75,2.7504,2.757,2.7627,2.7873,2.8616,2.8771,2.8723,2.8535,2.85,2.8073,2.6759,2.652,2.6427,2.6056,2.5965,2.594,2.589,0.0,0.0,0.0,0.0,0.0,2.5961,2.5979,2.5979,0.0,0.0,0.0,0.0,0.0,2.6443,2.7139,2.7942,2.8342,2.8342,2.9101,2.9512,2.9554,3.067,3.0855,3.02,3.0972,3.11,3.0723,3.0418,3.0267,3.0267,3.0017,2.9918,2.9918,2.9918,2.9918,2.9918,2.9967,2.9983,2.9999,0.0,0.0,3.616,3.6366,3.6131,3.5916,3.5916,3.5343,3.4617,3.3796,3.4312,3.4213,3.2756,3.3288,3.3432,3.2607,3.1992,3.1394,3.0729,3.0698,3.0722,3.0769,3.0798,3.0807,3.0795,3.0796,3.0801,3.0806,3.0798,3.0793,3.0793,3.0804,3.0799,3.0799,3.0799,3.0799,3.0779,3.0585,3.0604,3.0779,3.0585,3.0487,3.0409,2.9747,2.9266,2.8839,2.8219,2.7843,2.7586,2.7395,2.7319,2.7433,2.8046,2.8222,2.8146,2.7722,2.7561,2.7528,2.75,2.7504,2.7646,2.8256,2.8881,2.9393,2.9566,2.9623,2.9604,2.9555,2.9379,2.8914,2.7818,2.7871,2.7786,2.6954,2.6762,2.6736,2.671,2.6193,2.6032,0.0,2.671,2.696,2.7585,2.7611,2.7611,0.0,0.0,0.0,2.8816,2.9191,2.9226,2.8852,2.9565,2.9976,2.9976,3.0154,3.0487,3.0938,3.1812,3.1812,3.104,3.121,3.0885,3.0172,3.0087,3.006,2.9973,2.9902,2.9918,2.9918,2.9918,2.9918,2.9983,3.0474,3.0668,3.0749,3.4926,3.5324,3.5738,3.588,3.6241,3.6241,3.5477,3.5611,3.5245,3.3714,3.4271,3.4339,3.3111,3.3867,3.4126,3.3327,3.2479,3.1813,3.1364,3.0967,3.0755,3.0798,3.079,3.0796,3.0799,3.08,3.08,3.0794,3.0802,3.0799,3.0799,3.0799,3.0799,3.0799,3.0799,3.0799,3.0799,3.0799,3.0799,3.0799,3.0799,3.0799,3.074,3.0203,2.9904,2.967,2.9177,2.8886,2.8684,2.827,2.8155,2.8218,2.8665,2.8802,2.8783,2.8677,2.8658,2.8639,2.8609,2.8594,2.8692,2.9131,2.9566,2.9888,2.9888,2.9888,2.9839,2.9607,2.9475,2.9105,2.8288,2.8318,2.826,2.77,2.7576,2.7549,2.7549,2.7174,2.721,2.7995,2.7781,2.787,2.8673,2.8441,2.8342,2.8727,2.9155,0.0,2.9886,3.0636,3.0707,2.994,3.0297,3.0511,3.0511,3.0637,3.0961,3.1463,3.167,3.1397,3.0699,3.0699,3.0426,2.9946,2.9946,2.9946,2.9918,2.9918,2.9918,2.9918,2.9918,3.0069,3.0393,3.0781,3.1092,3.1477,3.5078,3.5089,3.5209,3.5209,3.5821,3.5821,3.4388,3.5417,3.5599,3.355,3.3897,3.4108,3.3539,3.4232,3.4435,3.3751,3.29,3.2322,3.2109,3.1276,3.0798,3.0798,3.0801,3.0801,3.08,3.0801,3.0796,3.0807,3.0798,3.0799,3.0799,3.0799,3.0799,3.0799,3.0799,3.0799,3.0799,3.0799,3.0799,3.0799,3.0799,3.0799,3.0769,3.0658,3.0507,3.0374,3.0247,3.0161,2.9973,2.9235,2.8988,2.8973,2.8962,2.8966,2.9099,2.9715,2.994,2.9972,2.9924,2.9888,2.9888,2.9888,2.9888,2.9888,2.9888,2.9872,2.9734,2.9316,2.9169,2.8948,2.8422,2.8327,2.8291,2.8209,2.8182,2.8182,2.8182,0.0,2.8637,2.9333,2.8905,2.8834,2.9512,2.8959,2.8834,2.9512,2.969,3.0029,3.0654,3.1439,3.1564,3.0886,3.0868,3.0868,3.0868,3.1132,3.1411,3.1662,3.1346,3.0824,3.0189,3.026,3.0174,2.9918,3.0032,2.9999,2.9918,3.0032,3.0064,3.0064,3.0064,3.0457,3.1105,3.1172,3.1639,3.219,3.5143,3.5193,3.5209,3.5209,3.5305,3.5305,3.5057,3.5327,3.5441,3.5067,3.5263,3.5407,3.532,3.5523,3.5626,3.5505,3.4749,3.3667,3.2192,3.127,3.0794,3.0798,3.0791,3.0793,3.0799,3.0791,3.0802,3.0789,3.0804,3.0799,3.0799,3.0799,3.0799,3.0799,3.0799,3.0799,3.0799,3.0799,3.0799,3.0799,3.0799,3.0769,3.0703,3.0625,3.0472,3.0317,3.0222,3.0114,3.0003,2.987,2.9813,2.9798,2.975,2.9734,2.9753,2.9886,2.9924,2.9905,2.9888,2.9888,2.9888,2.9888,2.9888,2.9888,2.9888,2.9715,2.9533,2.9476,2.9045,2.867,2.8572,2.837,2.8209,2.8209,2.8182,2.8182,2.8182,0.0,2.9262,2.9387,2.9851,3.0208,3.0332,3.0225,3.0208,3.0332,3.0957,3.1385,3.151,3.2259,3.2652,3.2509,3.2541,3.2541,3.2541,3.257,3.2548,3.2437,3.2879,3.2331,3.0942,3.1474,3.1004,2.9951,3.0506,3.0425,2.9951,3.0522,3.0765,3.0765,3.0765,3.1202,3.1915,3.253,3.2821,3.3,3.5174,3.5209,3.5209,3.5209,3.5592,3.5761,3.5366,3.5733,3.593,3.5589,3.5639,3.5726,3.5806,3.5852,3.5904,3.5903,3.5158,3.4362,3.3551,3.2232,3.1496,3.1496,3.1042,3.08,3.0806,3.081,3.0799,3.0799,3.0799,3.0799,3.0799,3.0799,3.0799,3.0799,3.0799,3.0799,3.0799,3.0799,3.0774,3.0739,3.0739,3.0691,3.0583,3.0472,3.0351,3.0228,3.008,2.9996,2.9956,2.9956,2.9956,2.994,2.9905,2.9888,2.9888,2.9888,2.9888,2.9888,2.9888,2.9888,2.9888,2.9888,2.9888,2.9888,2.9857,2.9753,2.957,2.9237,2.8956,2.8694,2.843,2.83,2.8182,2.8182,2.8182,2.8342,2.8798,2.9173,2.9708,3.0547,3.0564,3.0672,3.11,3.0761,3.0689,3.1118,3.1492,3.1885,3.2313,3.2688,3.2916,3.2916,3.2916,3.2752,3.2486,3.2265,3.2141,3.2128,3.2173,3.1985,3.1599,3.1858,3.1634,3.104,3.1364,3.1332,3.1056,3.138,3.151,3.151,3.151,3.1947,3.2627,3.2967,3.3323,3.368,3.5209,3.5209,3.5209,3.5209,3.578,3.6039,3.5494,3.5968,3.6221,3.5757,3.5724,3.5799,3.5894,3.5895,3.5908,3.5912,3.536,3.4998,3.4998,3.3558,3.2526,3.2116,3.1268,3.0797,3.0794,3.0802,3.0799,3.0799,3.0799,3.0799,3.0799,3.0799,3.0799,3.0799,3.0799,3.0799,3.0774,3.0774,3.0759,3.0691,3.0678,3.0583,3.0491,3.0329,3.0248,3.0161,2.9969,2.9888,2.9888,2.9888,2.9888,2.9888,2.9888,2.9888,2.9888,2.9888,2.9888,2.9888,2.9888,2.9888,2.9907,2.9891,2.9891,2.9857,2.979,2.9851,2.9738,2.9038,2.9007,2.8907,2.8309,2.8182,2.8182,2.8182,0.0,2.8709,2.9315,2.9708,3.0368,3.1564,3.1314,3.1367,3.217,3.1528,3.1457,3.2438,3.217,3.2313,3.3134,3.3169,3.3169,3.3119,3.2859,3.2486,3.1951,3.178,3.1754,3.1876,3.1891,3.1958,3.2166,3.2299,3.2252,3.2012,3.219,3.2158,3.2012,3.219,3.2255,3.2255,3.2255,3.2692,3.3323,3.3323,3.3647,3.4101,3.5209,3.5209,3.5209,3.5209,3.5362,3.5456,3.5398,3.5601,3.5747,3.5697,3.5813,3.5894,3.5903,3.5908,3.5935,3.5988,3.5932,3.5893,3.5893,3.5032,3.3787,3.2166,3.1263,3.0796,3.0794,3.0802,3.0799,3.0799,3.0799,3.0799,3.0799,3.0799,3.0799,3.0799,3.0799,3.0769,3.0703,3.0703,3.0704,3.069,3.056,3.0519,3.0481,3.0273,3.0174,3.0094,2.9937,2.9888,2.9888,2.9888,2.9888,2.9888,2.9888,2.9888,2.9888,2.9888,2.9888,2.9888,2.9888,2.9888,2.9891,2.9806,2.9808,2.979,2.9719,3.0051,3.0076,2.9099,2.9314,2.9358,2.8379,2.8182,2.8182,2.8182,0.0,0.0,2.9387,3.0636,3.1564,3.1689,3.2295,3.3027,3.3847,3.3187,3.333,3.4847,3.3616,3.3152,3.3972,3.4008,3.3942,3.372,3.2721,3.1951,3.1534,3.2068,3.2327,3.2355,3.3567,3.3644,3.2674,3.3238,3.2927,3.2044,3.2708,3.2627,3.206,3.274,3.3016,3.3016,3.3016,3.342,3.4036,3.4036,3.4052,3.4101,3.6757,3.6868,3.6731,3.6267,3.6228,3.6098,3.5654,3.5688,3.5772,3.5827,3.588,3.5923,3.5962,3.5965,3.5965,3.5991,3.5991,3.5999,3.6009,3.568,3.4492,3.2199,3.127,3.0804,3.0806,3.0808,3.0799,3.0799,3.0799,3.0799,3.0799,3.0799,3.0774,3.0739,3.0739,3.0722,3.0691,3.0691,3.0671,3.0626,3.0539,3.0451,3.0367,3.0188,3.006,2.9969,2.9905,2.9888,2.9888,2.9888,2.9888,2.9888,2.9888,2.9888,2.9888,2.9888,2.9888,3.0021,3.0568,3.065,3.058,3.0562,3.0904,3.1165,3.0942,3.1014,3.0941,3.0217,3.0233,3.0242,2.9719,2.9637,2.9637,2.9637,0.0,3.044,3.1421,3.2063,3.2795,3.3758,3.4133,3.4454,3.4757,3.4508,3.4579,3.5168,3.4668,3.4454,3.4775,3.4639,3.4287,3.3636,3.3093,3.2559,3.1941,3.2452,3.2763,3.2838,3.3383,3.3606,3.3597,3.3795,3.3697,3.3323,3.3599,3.355,3.3323,3.3599,3.3712,3.3712,3.3712,3.3874,3.4101,3.4101,3.4101,3.4101,3.7452,3.7762,3.78,3.7295,3.7243,3.7094,3.6597,3.6584,3.6559,3.6333,3.6321,3.6254,3.601,3.5991,3.5991,3.5991,3.5999,3.6007,3.5995,3.5742,3.4799,3.2999,3.1819,3.1219,3.1213,3.0935,3.0799,3.0799,3.0799,3.0799,3.0799,3.0774,3.0739,3.0703,3.0691,3.0691,3.0676,3.0676,3.0618,3.053,3.046,3.0348,3.0226,3.0094,2.9969,2.9888,2.9888,2.9888,2.9888,2.9888,2.9888,2.9888,2.9888,3.0078,3.0305,3.0305,3.0459,3.0782,3.1388,3.1619,3.1637,3.1393,3.1692,3.2,3.1723,3.1811,3.1759,3.1066,3.1092,3.107,3.0576,3.0511,3.0511,3.0511,3.0921,3.1635,3.2723,3.3312,3.4008,3.5079,3.5204,3.5311,3.556,3.5364,3.5418,3.5917,3.542,3.5172,3.5386,3.4977,3.4519,3.4151,3.3736,3.3287,3.2799,3.2923,3.3001,3.308,3.3372,3.3713,3.4101,3.4101,3.4101,3.4101,3.4101,3.4101,3.4101,3.4101,3.4101,3.4101,3.4101,3.4101,3.4101,3.4101,3.4101,3.4101,3.6868,3.7467,3.8099,3.8094,3.8219,3.8305,3.8296,3.8408,3.819,3.7316,3.7253,3.697,3.6111,3.5991,3.5991,3.5994,3.6009,3.5995,3.5995,3.5185,3.4713,3.4713,3.3028,3.2094,3.2094,3.1252,3.0799,3.0799,3.0799,3.0799,3.0799,3.0734,3.0703,3.0697,3.0711,3.0668,3.0602,3.0602,3.052,3.0406,3.033,3.0226,3.0094,2.9953,2.9888,2.9888,2.9888,2.9888,2.9888,2.9888,2.9888,2.9888,2.9907,3.0495,3.1212,3.1212,3.1729,3.2298,3.2298,3.2741,3.3026,3.2289,3.2079,3.1989,3.1842,3.2292,3.2419,3.1425,3.171,3.1773,3.0701,3.0529,3.0547,3.0547,3.1867,3.2934,3.2952,3.424,3.5221,3.5239,3.5239,3.5543,3.6328,3.5703,3.5882,3.747,3.5918,3.517,3.5794,3.4868,3.47,3.5484,3.4575,3.4108,3.4108,3.3448,3.3097,3.3113,3.3777,3.4101,3.4101,3.4101,3.4101,3.4101,3.4101,3.4101,3.4101,3.4101,3.4101,3.4101,3.4101,3.4101,3.4101,3.4101,3.4101,3.4101,3.875,3.8916,3.8917,3.8463,3.8416,3.8441,3.8438,3.8506,3.8252,3.7373,3.7298,3.697,3.6111,3.5991,3.5999,3.5991,3.5994,3.5976,3.5925,3.5697,3.5539,3.5539,3.3327,3.2094,3.2094,3.1252,3.0799,3.0799,3.0799,3.0774,3.0734,3.0709,3.0678,3.0622,3.0634,3.0621,3.0597,3.0597,3.0578,3.054,3.0417,3.0311,3.0226,3.0094,2.9969,2.9888,2.9888,2.9888,2.9888,2.9888,2.9888,3.0002,3.0625,3.0934,3.1165,3.1788,3.2072,3.2275,3.2859,3.3112,3.3153,3.2913,3.3668,3.4358,3.3925,3.4019,3.4006,3.3345,3.3382,3.3409,3.308,3.3455,3.3812,3.3812,3.4204,3.4704,3.5275,3.5739,3.6256,3.6809,3.6881,3.697,3.7202,3.6915,3.6858,3.7337,3.6779,3.6391,3.6457,3.615,3.5913,3.5703,3.5178,3.4768,3.4504,3.404,3.3793,3.3793,3.4003,3.4101,3.4101,3.4101,3.4101,3.4101,3.4101,3.4101,3.4101,3.4101,3.4101,3.4101,3.4101,3.4101,3.4101,3.4101,3.4101,3.4101,3.8682,3.9127,3.9463,3.9071,3.9307,3.9535,3.9529,3.9266,3.8882,3.8355,3.7711,3.7106,3.6579,3.6216,3.6009,3.5995,3.5976,3.5947,3.5908,3.5904,3.5908,3.5908,3.4096,3.3083,3.3083,3.1914,3.1481,3.1796,3.1446,3.1429,3.1689,3.1695,3.1472,3.1133,3.1456,3.139,3.1101,3.1449,3.1371,3.1021,3.0895,3.0586,3.0213,3.0079,2.9969,2.9888,2.9888,2.9888,2.9888,2.9888,3.0099,3.05,3.1351,3.1751,3.2014,3.2541,3.2837,3.3109,3.3596,3.368,3.3659,3.39,3.4402,3.4874,3.4862,3.4754,3.4564,3.4275,3.4396,3.4543,3.4543,3.49,3.5204,3.5204,3.5471,3.5846,3.6328,3.6667,3.7041,3.7523,3.7577,3.7577,3.7577,3.7484,3.7334,3.7182,3.7066,3.6869,3.6544,3.6544,3.636,3.6002,3.5498,3.5085,3.4913,3.4399,3.4101,3.4101,3.4101,3.4101,3.4101,3.4101,3.4101,3.4101,3.4101,3.4101,3.4101,3.4101,3.4101,3.4101,3.4101,3.4101,3.4101,3.4101,3.4101,3.4101,3.7343,3.8416,3.9602,3.9672,4.0413,4.1007,4.1088,4.0424,3.9897,3.9819,3.8473,3.7497,3.7421,3.6635,3.6112,3.6113,3.5982,3.5908,3.5894,3.5908,3.5908,3.5908,3.5148,3.472,3.472,3.3064,3.258,3.3304,3.25,3.2479,3.32,3.3206,3.2781,3.2036,3.2764,3.2657,3.1961,3.2754,3.2585,3.1792,3.1674,3.1106,3.0304,3.0105,3.0037,3.0002,2.9926,2.9888,2.9907,2.9983,3.0502,3.1242,3.2128,3.2804,3.3323,3.3379,3.3874,3.4381,3.4498,3.4381,3.4457,3.5137,3.4669,3.4265,3.5073,3.4914,3.4596,3.4564,3.4978,3.5311,3.5311,3.5382,3.5418,3.5418,3.6024,3.6506,3.6506,3.7131,3.7577,3.7577,3.7577,3.7577,3.7577,3.754,3.7354,3.697,3.6948,3.6771,3.6343,3.6301,3.6301,3.6301,3.5633,3.5224,3.5224,3.4513,3.4151,3.4101,3.4101,3.4101,3.4101,3.4101,3.4101,3.4101,3.4101,3.4101,3.4101,3.4101,3.4101,3.4101,3.4101,3.4101,3.4101,3.4101,3.4101,3.4101,3.7429,3.8049,3.877,3.8857,3.954,4.0304,4.0991,4.0932,4.0561,3.9897,3.9488,3.9005,3.8316,3.7517,3.6992,3.6933,3.6298,3.5899,3.5889,3.5908,3.5908,3.5908,3.5713,3.5624,3.5619,3.392,3.3135,3.3304,3.3055,3.3025,3.3197,3.3208,3.3064,3.2851,3.3015,3.3005,3.2812,3.291,3.2837,3.2627,3.2544,3.2335,3.1981,3.1337,3.101,3.0833,3.0135,2.9888,3.0002,3.056,3.1261,3.1992,3.282,3.3149,3.3343,3.3982,3.4209,3.4394,3.5082,3.508,3.5229,3.6638,3.609,3.5421,3.6236,3.6335,3.6204,3.602,3.6059,3.6131,3.6131,3.6649,3.7077,3.7077,3.722,3.7327,3.7327,3.747,3.7577,3.7577,3.7577,3.7558,3.7372,3.7066,3.6788,3.6468,3.6468,3.6426,3.6301,3.6301,3.6301,3.6301,3.5898,3.5498,3.5224,3.4771,3.4399,3.4101,3.4101,3.4101,3.4101,3.4101,3.4101,3.4101,3.4101,3.4101,3.4101,3.4101,3.4101,3.4101,3.4101,3.4101,3.4101,3.4101,3.4101,3.4101,3.685,3.7351,3.8069,3.8512,3.9273,4.0093,4.0971,4.0756,4.0464,4.0424,3.9691,3.9153,3.912,3.8378,3.7858,3.7815,3.74,3.696,3.6551,3.6902,3.6779,3.595,3.6274,3.6281,3.585,3.4933,3.4431,3.4431,3.3979,3.3983,3.4391,3.4391,3.4148,3.375,3.4094,3.4013,3.3635,3.3943,3.3794,3.3415,3.3355,3.3035,3.2553,3.205,3.1832,3.1724,3.1269,3.1083,3.1146,3.1864,3.2328,3.277,3.3577,3.3751,3.3753,3.4181,3.4543,3.4903,3.5367,3.5584,3.5937,3.7044,3.6757,3.6273,3.6702,3.6692,3.6556,3.6434,3.6702,3.697,3.697,3.7309,3.7577,3.7577,3.7577,3.7577,3.7577,3.7577,3.754,3.7484,3.7447,3.7372,3.7182,3.6965,3.6766,3.6502,3.6502,3.6444,3.6301,3.6301,3.6216,3.6088,3.5722,3.5316,3.4961,3.4594,3.43,3.4101,3.4101,3.4101,3.4101,3.4101,3.4101,3.4101,3.4101,3.4101,3.4101,3.4101,3.4101,3.4101,3.4101,3.4101,3.4101,3.4101,3.4101,3.4101,3.615,3.6813,3.775,3.8475,3.939,4.0268,4.0991,4.0483,4.0291,4.1016,3.9838,3.9218,3.9941,3.9242,3.8653,3.85,3.85,3.8188,3.7461,3.8079,3.7832,3.6377,3.6941,3.69,3.6015,3.596,3.5844,3.5708,3.4972,3.4991,3.5704,3.5704,3.5298,3.4618,3.5232,3.5085,3.443,3.5023,3.4849,3.4182,3.4091,3.3642,3.2961,3.2689,3.2579,3.256,3.2409,3.2392,3.2541,3.3098,3.3309,3.35,3.4344,3.4516,3.4439,3.4587,3.5101,3.5669,3.5799,3.6113,3.6538,3.7111,3.7073,3.6942,3.6924,3.6753,3.6613,3.6613,3.7131,3.7577,3.7577,3.7577,3.7577,3.7577,3.7594,3.7558,3.7558,3.7503,3.7447,3.7259,3.722,3.7143,3.6948,3.6908,3.6829,3.6643,3.6643,3.6544,3.6301,3.6379,3.6225,3.5827,3.5525,3.5171,3.4691,3.4349,3.4151,3.4101,3.4101,3.4101,3.4101,3.4101,3.4101,3.4101,3.4101,3.4101,3.4101,3.4101,3.4101,3.4101,3.4101,3.4101,3.4101,3.4101,3.4101,3.405,3.601,3.7301,3.8456,3.8573,3.9897,4.0952,4.1088,4.0991,4.098,4.1089,4.0896,4.0781,4.0915,4.0155,3.9324,3.8578,3.85,3.8429,3.8259,3.8357,3.8276,3.8002,3.8071,3.7724,3.6862,3.6833,3.6455,3.5708,3.5581,3.5579,3.5704,3.5704,3.5593,3.5354,3.5457,3.5372,3.5158,3.513,3.5064,3.495,3.483,3.4699,3.451,3.3677,3.3355,3.3241,3.2427,3.2552,3.3082,3.3194,3.3589,3.4221,3.5076,3.5337,3.5442,3.6147,3.6276,3.6334,3.7034,3.6985,3.6913,3.769,3.7683,3.7488,3.7488,3.7452,3.7434,3.7434,3.7505,3.7577,3.7577,3.7577,3.7577,3.7577,3.7447,3.7334,3.7334,3.7182,3.7066,3.7066,3.6886,3.6783,3.6725,3.6527,3.6385,3.6343,3.6343,3.6343,3.6301,3.6556,3.6429,3.5844,3.603,3.5688,3.4707,3.4643,3.4448,3.4101,3.4101,3.4101,3.4101,3.4101,3.4101,3.4101,3.4101,3.4101,3.4101,3.4101,3.4101,3.4101,3.4101,3.4101,3.4101,3.4101,3.4101,3.4101,3.7458,3.8063,3.8746,3.9195,3.9878,4.0542,4.103,4.1099,4.1107,4.1091,4.1092,4.1099,4.1097,4.0769,4.037,4.0,3.9922,3.9687,3.9167,3.9552,3.9343,3.8336,3.8763,3.8607,3.7691,3.7672,3.7478,3.7091,3.616,3.5704,3.5704,3.562,3.5553,3.5483,3.534,3.5251,3.5171,3.5053,3.4982,3.4982,3.4908,3.487,3.4792,3.4374,3.4182,3.4064,3.3561,3.359,3.3859,3.3771,3.4282,3.4977,3.5367,3.5795,3.624,3.6593,3.6949,3.7248,3.744,3.7582,3.7751,3.7928,3.7792,3.7577,3.7577,3.7577,3.7577,3.7577,3.7577,3.7577,3.7577,3.7521,3.7447,3.7447,3.7259,3.7143,3.7143,3.7066,3.6948,3.6846,3.7026,3.7161,3.7161,3.7422,3.7577,3.7577,3.7577,3.73,3.6679,3.6791,3.6349,3.5211,3.5324,3.5053,3.4349,3.4349,3.43,3.4101,3.4101,3.4101,3.4101,3.4101,3.4101,3.4101,3.4101,3.4101,3.4101,3.4101,3.4101,3.4101,3.4101,3.4101,3.4101,3.4101,3.4101,3.4101]}]]